[[{"header":{"parameterUnit":"m.s-1","parameterCategory":1,"la1":30.6,"la2":29.2853,"lo1":-89.7004,"lo2":-87.6739,"dy":0.0162,"dx":0.0183,"nx":112,"ny":82,"refTime":"2023-07-23T18:00:00:Z","depth":0,"parameterNumber":2,"parameterNumberName":"U-component_of_WINDS"},"data":[0.0,0.0,0.0,0.0,0.0,0.0,0.0,0.0,0.0,0.0,0.0,0.0,0.0,0.0,0.0,0.0,0.0,0.0,0.0,0.0,0.0,0.0,0.0,0.0,0.0,0.0,0.0,0.0,0.0,0.0,0.0,0.0,0.0,0.0,0.0,0.0,0.0,0.0,0.0,0.0,0.0,0.0,0.0,0.0,0.0,0.0,0.0,0.0,0.0,0.0,0.0,0.0,0.0,0.0,0.0,0.0,0.0,0.0,0.0,0.0,0.0,0.0,0.0,0.0,0.0,0.0,0.0,0.0,0.0,0.0,0.0,0.0,0.0,0.0,0.0,0.0,0.0,0.0,0.0,0.0,0.0,0.0,0.0,0.0,0.0,0.0,0.0,0.0,0.0,0.0,-0.7941,-0.8505,-0.9323,-0.9754,-0.9501,-0.94,-0.9085,-0.8479,0.0,0.0,0.0,0.0,0.0,0.0,0.0,0.0,0.0,0.0,0.0,0.0,0.0,0.0,0.0,0.0,0.0,0.0,0.0,0.0,0.0,0.0,0.0,0.0,0.0,0.0,0.0,0.0,0.0,0.0,0.0,0.0,0.0,0.0,0.0,0.0,0.0,0.0,0.0,0.0,0.0,0.0,0.0,0.0,0.0,0.0,0.0,0.0,0.0,0.0,0.0,0.0,0.0,0.0,0.0,0.0,0.0,0.0,0.0,0.0,0.0,0.0,0.0,0.0,0.0,0.0,0.0,0.0,0.0,0.0,0.0,0.0,0.0,0.0,0.0,0.0,0.0,0.0,0.0,0.0,0.0,0.0,0.0,0.0,0.0,0.0,0.0,0.0,0.0,0.0,0.0,0.0,0.0,0.0,0.0,0.0,0.0,0.0,0.0,0.0,0.0,0.0,0.0,0.0,-0.7735,-0.8673,-0.9007,-0.9366,-0.9874,-0.9407,-0.8786,-0.8126,0.0,0.0,0.0,0.0,0.0,0.0,0.0,0.0,0.0,0.0,0.0,0.0,0.0,0.0,0.0,0.0,0.0,0.0,0.0,0.0,0.0,0.0,0.0,0.0,0.0,0.0,0.0,0.0,0.0,0.0,0.0,0.0,0.0,0.0,0.0,0.0,0.0,0.0,0.0,0.0,0.0,0.0,0.0,0.0,0.0,0.0,0.0,0.0,0.0,0.0,0.0,0.0,0.0,0.0,0.0,0.0,0.0,0.0,0.0,0.0,0.0,0.0,0.0,0.0,0.0,0.0,0.0,0.0,0.0,0.0,0.0,0.0,0.0,0.0,0.0,0.0,0.0,0.0,0.0,0.0,0.0,0.0,0.0,0.0,0.0,0.0,0.0,0.0,0.0,0.0,0.0,0.0,0.0,0.0,0.0,0.0,0.0,0.0,0.0,0.0,0.0,0.0,0.0,-0.7666,-0.7687,-0.8062,-0.8331,-0.8714,-0.9266,-0.8625,-0.815,-0.8003,-0.7546,0.0,0.0,0.0,0.0,0.0,0.0,0.0,0.0,0.0,0.0,0.0,0.0,0.0,0.0,0.0,0.0,0.0,0.0,0.0,0.0,0.0,0.0,0.0,0.0,0.0,0.0,0.0,0.0,0.0,0.0,0.0,0.0,0.0,0.0,0.0,0.0,0.0,0.0,0.0,0.0,0.0,0.0,0.0,0.0,0.0,0.0,0.0,0.0,0.0,0.0,0.0,0.0,0.0,0.0,0.0,0.0,0.0,0.0,0.0,0.0,0.0,0.0,0.0,0.0,0.0,0.0,0.0,0.0,0.0,0.0,0.0,0.0,0.0,0.0,0.0,0.0,0.0,0.0,0.0,0.0,0.0,0.0,0.0,0.0,0.0,0.0,0.0,0.0,0.0,0.0,0.0,0.0,0.0,0.0,0.0,0.0,0.0,0.0,0.0,0.0,0.0,0.0,-0.7826,-0.7551,-0.7504,-0.7702,-0.8024,-0.8516,-0.7843,-0.7538,-0.7845,-0.7125,0.0,0.0,0.0,0.0,0.0,0.0,0.0,0.0,0.0,0.0,0.0,0.0,0.0,0.0,0.0,0.0,0.0,0.0,0.0,0.0,0.0,0.0,0.0,0.0,0.0,0.0,0.0,0.0,0.0,0.0,0.0,0.0,0.0,0.0,0.0,0.0,0.0,0.0,0.0,0.0,0.0,0.0,0.0,0.0,0.0,0.0,0.0,0.0,0.0,0.0,0.0,0.0,0.0,0.0,0.0,0.0,0.0,0.0,0.0,0.0,0.0,0.0,0.0,0.0,0.0,0.0,0.0,0.0,0.0,0.0,0.0,0.0,0.0,0.0,0.0,0.0,0.0,0.0,0.0,0.0,0.0,0.0,0.0,0.0,0.0,0.0,0.0,0.0,0.0,0.0,0.0,0.0,0.0,0.0,0.0,0.0,0.0,0.0,0.0,0.0,0.0,0.0,-0.739,-0.7247,-0.7463,-0.7251,-0.7346,-0.8062,-0.7444,-0.7139,-0.7405,-0.697,0.0,0.0,0.0,0.0,0.0,0.0,0.0,0.0,0.0,0.0,0.0,0.0,0.0,0.0,0.0,0.0,0.0,0.0,0.0,0.0,0.0,0.0,0.0,0.0,0.0,0.0,0.0,0.0,0.0,0.0,0.0,0.0,0.0,0.0,0.0,0.0,0.0,0.0,0.0,0.0,0.0,0.0,0.0,0.0,0.0,0.0,0.0,0.0,0.0,0.0,0.0,0.0,0.0,0.0,0.0,0.0,0.0,0.0,0.0,0.0,0.0,0.0,0.0,0.0,0.0,0.0,0.0,0.0,0.0,0.0,0.0,0.0,0.0,0.0,0.0,0.0,0.0,0.0,0.0,0.0,0.0,0.0,0.0,0.0,0.0,0.0,0.0,0.0,0.0,0.0,0.0,0.0,0.0,0.0,0.0,0.0,0.0,0.0,0.0,0.0,0.0,0.0,-0.7293,-0.7065,0.0,-0.7088,-0.711,-0.7396,-0.7172,-0.7027,-0.7083,0.0,0.0,0.0,0.0,0.0,0.0,0.0,0.0,0.0,0.0,0.0,0.0,0.0,0.0,0.0,0.0,0.0,0.0,0.0,0.0,0.0,0.0,0.0,0.0,0.0,0.0,0.0,0.0,0.0,0.0,0.0,0.0,0.0,0.0,0.0,0.0,0.0,0.0,0.0,0.0,0.0,0.0,0.0,0.0,0.0,0.0,0.0,0.0,0.0,0.0,0.0,0.0,0.0,0.0,0.0,0.0,0.0,0.0,0.0,0.0,0.0,0.0,0.0,0.0,0.0,0.0,0.0,0.0,0.0,0.0,0.0,0.0,0.0,0.0,0.0,0.0,0.0,0.0,0.0,0.0,0.0,0.0,0.0,0.0,0.0,0.0,0.0,0.0,0.0,0.0,0.0,0.0,0.0,0.0,0.0,0.0,0.0,0.0,0.0,0.0,0.0,0.0,-0.7579,-0.7398,-0.7238,0.0,-0.7027,-0.6979,-0.6979,-0.6979,-0.6985,-0.6914,0.0,0.0,0.0,0.0,0.0,0.0,0.0,0.0,0.0,0.0,0.0,0.0,0.0,0.0,0.0,0.0,0.0,0.0,0.0,0.0,0.0,0.0,0.0,0.0,0.0,0.0,0.0,0.0,0.0,0.0,0.0,0.0,0.0,0.0,0.0,0.0,0.0,0.0,0.0,0.0,0.0,0.0,0.0,0.0,0.0,0.0,0.0,0.0,0.0,0.0,0.0,0.0,0.0,0.0,0.0,0.0,0.0,0.0,0.0,0.0,0.0,0.0,0.0,0.0,0.0,0.0,0.0,0.0,0.0,0.0,0.0,0.0,0.0,0.0,0.0,0.0,0.0,0.0,0.0,0.0,0.0,0.0,0.0,0.0,0.0,0.0,0.0,0.0,0.0,0.0,0.0,0.0,0.0,0.0,0.0,0.0,0.0,0.0,0.0,0.0,0.0,0.0,-0.7335,-0.7628,-0.7712,-0.7258,-0.7076,-0.7021,-0.6979,-0.6979,-0.6985,0.0,0.0,0.0,0.0,0.0,0.0,0.0,0.0,0.0,0.0,0.0,0.0,0.0,0.0,0.0,0.0,0.0,0.0,0.0,0.0,0.0,0.0,0.0,0.0,0.0,0.0,0.0,0.0,0.0,0.0,0.0,0.0,0.0,0.0,0.0,0.0,0.0,0.0,0.0,0.0,0.0,0.0,0.0,0.0,0.0,0.0,0.0,0.0,0.0,0.0,0.0,0.0,0.0,0.0,0.0,0.0,0.0,0.0,0.0,0.0,0.0,0.0,0.0,0.0,0.0,0.0,0.0,0.0,0.0,0.0,0.0,0.0,0.0,0.0,0.0,0.0,0.0,0.0,0.0,0.0,0.0,0.0,0.0,0.0,0.0,0.0,0.0,0.0,0.0,0.0,0.0,0.0,0.0,0.0,0.0,0.0,0.0,0.0,0.0,0.0,0.0,0.0,0.0,-0.7582,-0.7751,-0.778,-0.7251,-0.7167,-0.7118,-0.7021,-0.6979,-0.6979,-0.6985,0.0,0.0,0.0,0.0,0.0,0.0,0.0,0.0,0.0,0.0,0.0,0.0,0.0,0.0,0.0,0.0,0.0,0.0,0.0,0.0,0.0,0.0,0.0,0.0,0.0,0.0,0.0,0.0,0.0,0.0,0.0,0.0,0.0,0.0,0.0,0.0,0.0,0.0,0.0,0.0,0.0,0.0,0.0,0.0,0.0,0.0,0.0,0.0,0.0,0.0,0.0,0.0,0.0,0.0,0.0,0.0,0.0,0.0,0.0,0.0,0.0,0.0,0.0,0.0,0.0,0.0,0.0,0.0,0.0,0.0,0.0,0.0,0.0,0.0,0.0,0.0,0.0,0.0,0.0,0.0,0.0,0.0,0.0,0.0,0.0,0.0,0.0,0.0,0.0,0.0,0.0,0.0,0.0,0.0,0.0,0.0,0.0,0.0,0.0,0.0,0.0,0.0,-0.7923,-0.8018,-0.7949,-0.7538,-0.737,-0.7209,-0.7076,-0.7076,-0.7154,-0.7273,0.0,0.0,0.0,0.0,0.0,0.0,0.0,0.0,0.0,0.0,0.0,0.0,0.0,0.0,0.0,0.0,0.0,0.0,0.0,0.0,0.0,0.0,0.0,0.0,0.0,0.0,0.0,0.0,0.0,0.0,0.0,0.0,0.0,0.0,0.0,0.0,0.0,0.0,0.0,0.0,0.0,0.0,0.0,0.0,0.0,0.0,0.0,0.0,0.0,0.0,0.0,0.0,0.0,0.0,0.0,0.0,0.0,0.0,0.0,0.0,0.0,0.0,0.0,0.0,0.0,0.0,0.0,0.0,0.0,0.0,0.0,0.0,0.0,0.0,0.0,0.0,0.0,0.0,0.0,0.0,0.0,0.0,0.0,0.0,0.0,0.0,0.0,0.0,0.0,0.0,0.0,0.0,0.0,0.0,0.0,0.0,0.0,0.0,0.0,0.0,0.0,0.0,-0.8424,-0.8378,-0.8296,-0.8011,-0.7659,-0.7405,-0.7216,-0.7216,-0.7328,-0.7641,0.0,0.0,0.0,0.0,0.0,0.0,0.0,0.0,0.0,0.0,0.0,0.0,0.0,0.0,0.0,0.0,0.0,0.0,0.0,0.0,0.0,0.0,0.0,0.0,0.0,0.0,0.0,0.0,0.0,0.0,0.0,0.0,0.0,0.0,0.0,0.0,0.0,0.0,0.0,0.0,0.0,0.0,0.0,0.0,0.0,0.0,0.0,0.0,0.0,0.0,0.0,0.0,0.0,0.0,0.0,0.0,0.0,0.0,0.0,0.0,-1.0732,0.0,0.0,0.0,0.0,0.0,0.0,0.0,0.0,0.0,0.0,0.0,0.0,0.0,0.0,0.0,0.0,0.0,0.0,0.0,0.0,0.0,0.0,0.0,0.0,0.0,0.0,0.0,0.0,0.0,0.0,0.0,0.0,0.0,0.0,0.0,0.0,0.0,0.0,0.0,0.0,0.0,-0.8882,-0.9291,-0.9274,-0.8106,-0.7938,-0.7716,-0.7398,-0.7251,-0.7209,-0.7293,-0.6456,0.0,0.0,0.0,0.0,0.0,0.0,0.0,0.0,0.0,0.0,0.0,0.0,0.0,0.0,0.0,0.0,0.0,0.0,0.0,0.0,0.0,0.0,0.0,0.0,0.0,0.0,0.0,0.0,0.0,0.0,0.0,0.0,0.0,0.0,0.0,0.0,0.0,0.0,0.0,0.0,0.0,0.0,0.0,0.0,0.0,0.0,0.0,0.0,0.0,0.0,0.0,0.0,0.0,0.0,0.0,0.0,0.0,0.0,0.0,0.0,-1.1398,0.0,0.0,0.0,0.0,0.0,0.0,0.0,0.0,0.0,0.0,0.0,0.0,0.0,0.0,0.0,0.0,0.0,0.0,0.0,0.0,0.0,0.0,0.0,0.0,0.0,0.0,0.0,0.0,0.0,0.0,0.0,0.0,0.0,0.0,0.0,0.0,0.0,0.0,0.0,0.0,-0.9587,-0.9906,-0.988,-0.9099,-0.8712,-0.8308,-0.7802,-0.753,-0.7412,-0.7572,-0.7104,0.0,0.0,0.0,0.0,0.0,0.0,0.0,0.0,0.0,0.0,0.0,0.0,0.0,0.0,0.0,0.0,0.0,0.0,0.0,0.0,0.0,0.0,0.0,0.0,0.0,0.0,0.0,0.0,0.0,0.0,0.0,0.0,0.0,0.0,0.0,0.0,0.0,0.0,0.0,0.0,0.0,0.0,0.0,0.0,0.0,0.0,0.0,0.0,0.0,0.0,0.0,0.0,0.0,-1.5142,-1.5753,-1.6042,-1.6042,-1.6208,-1.6363,-1.3938,-1.2777,-1.2542,-1.2202,0.0,0.0,0.0,0.0,0.0,0.0,0.0,0.0,0.0,0.0,0.0,0.0,0.0,0.0,0.0,0.0,0.0,0.0,0.0,0.0,0.0,0.0,-1.2184,-1.211,-1.2426,-1.2676,-1.2578,0.0,0.0,0.0,0.0,0.0,0.0,0.0,0.0,0.0,0.0,0.0,-1.0332,-1.0511,-1.0466,-1.0063,-0.9464,-0.8845,-0.8299,-0.7848,-0.7724,-0.8021,-0.7853,-0.7464,0.0,0.0,0.0,0.0,0.0,0.0,0.0,0.0,0.0,0.0,0.0,0.0,0.0,0.0,0.0,0.0,0.0,0.0,0.0,0.0,0.0,0.0,0.0,0.0,0.0,0.0,0.0,0.0,0.0,0.0,0.0,0.0,-1.2058,-1.2121,0.0,0.0,0.0,0.0,0.0,0.0,0.0,0.0,0.0,0.0,0.0,0.0,0.0,-1.4014,-1.5225,-1.6073,-1.6471,-1.6543,-1.7502,-1.7771,-1.746,-1.746,-1.7274,-1.6873,-1.6512,0.0,-1.4358,-1.3524,0.0,0.0,0.0,0.0,0.0,0.0,0.0,0.0,0.0,0.0,0.0,0.0,0.0,0.0,0.0,0.0,0.0,0.0,0.0,0.0,0.0,0.0,-1.2793,-1.2745,-1.2842,-1.2881,-1.2832,-1.2676,-1.248,-1.248,-1.2067,-1.176,0.0,0.0,0.0,0.0,0.0,0.0,-1.1141,-1.1522,-1.1252,-0.9755,-0.9504,-0.9169,-0.8429,-0.8226,-0.8136,-0.8177,-0.7352,-0.6986,-0.7282,-0.576,0.0,0.0,0.0,0.0,0.0,0.0,0.0,0.0,0.0,0.0,0.0,0.0,0.0,0.0,0.0,0.0,0.0,0.0,0.0,0.0,0.0,0.0,0.0,0.0,0.0,0.0,0.0,0.0,0.0,-1.2309,-1.2451,-1.1975,-1.2492,-1.2772,0.0,0.0,0.0,0.0,0.0,0.0,0.0,0.0,0.0,-1.5152,-1.567,-1.6218,-1.6839,-1.7471,-1.7926,-1.8185,-1.8837,-1.9189,-1.9251,-1.9251,-1.9137,-1.893,-1.8682,-1.8226,-1.7461,-1.5413,-1.4368,-1.4033,0.0,0.0,0.0,0.0,-1.3942,-1.3942,-1.3972,-1.3681,-1.326,-1.326,0.0,0.0,0.0,0.0,0.0,0.0,0.0,-1.2817,0.0,0.0,-1.3047,-1.3174,-1.3047,-1.2881,-1.2881,-1.2881,-1.2832,-1.2735,-1.252,-1.2372,-1.2421,0.0,0.0,0.0,0.0,-1.2017,-1.1719,-1.2224,-1.2147,-1.1121,-1.0548,-1.001,-0.9387,-0.8848,-0.8516,-0.8516,-0.8197,-0.7722,-0.7152,-0.6798,-0.66,0.0,0.0,0.0,0.0,0.0,0.0,0.0,0.0,0.0,0.0,0.0,0.0,0.0,0.0,0.0,0.0,0.0,0.0,0.0,0.0,0.0,0.0,0.0,0.0,0.0,0.0,0.0,0.0,-1.2596,-1.2803,-1.2016,-1.2937,-1.3486,0.0,0.0,0.0,0.0,0.0,0.0,-1.5163,-1.5835,-1.6477,-1.7046,-1.7719,-1.8185,-1.8423,-1.8858,-1.9251,-1.9603,-2.0058,-2.0462,-2.0772,-2.0772,-2.071,-2.0586,-2.0255,-1.9975,-1.9582,-1.7131,-1.5833,-1.544,-1.5161,-1.4935,-1.478,-1.4834,-1.4844,-1.4824,-1.4702,-1.452,-1.4265,-1.4154,-1.3801,-1.3389,-1.3389,0.0,0.0,0.0,0.0,-1.33,-1.378,-1.3611,-1.3362,-1.3529,-1.3362,-1.3096,-1.2988,-1.3065,-1.3065,-1.2978,-1.2929,-1.2978,-1.2968,0.0,0.0,0.0,0.0,-1.2323,-1.2332,-1.2627,-1.2609,-1.1893,-1.132,-1.0737,-1.0172,-0.9614,-0.9284,-0.9185,-0.9265,-0.8733,-0.7335,-0.7723,-0.7456,-0.6348,0.0,0.0,0.0,0.0,0.0,0.0,0.0,0.0,0.0,0.0,0.0,0.0,0.0,0.0,0.0,0.0,0.0,0.0,0.0,0.0,0.0,0.0,0.0,0.0,0.0,0.0,0.0,0.0,0.0,-1.2872,-1.4449,0.0,0.0,0.0,0.0,-1.6208,-1.6632,-1.7018,-1.7472,-1.7544,-1.803,-1.8909,-1.8982,-1.9417,-2.0286,-2.0741,-2.099,-2.1021,-2.1487,-2.1714,-2.1735,-2.1735,-2.1497,-2.1073,-2.1062,-2.0555,-1.9723,-1.8216,-1.7482,-1.7257,-1.6458,-1.5751,-1.531,-1.542,-1.5475,-1.5413,-1.5099,-1.5159,-1.5372,-1.4889,-1.4379,-1.3852,-1.3852,-1.355,0.0,0.0,-1.354,-1.3419,-1.4294,-1.4194,-1.3862,-1.3882,-1.3872,-1.3741,-1.326,-1.317,-1.318,0.0,-1.3085,-1.3113,-1.318,0.0,-1.3036,-1.3036,-1.3036,-1.2978,-1.2881,-1.2881,-1.2368,-1.1033,-1.1273,-1.1157,-1.0172,-1.0526,-1.0611,-1.0251,-1.0205,-0.9674,-0.8391,-0.7735,-0.744,-0.7432,-0.7032,0.0,0.0,0.0,0.0,0.0,0.0,0.0,0.0,0.0,0.0,0.0,0.0,0.0,0.0,0.0,0.0,0.0,0.0,0.0,0.0,0.0,0.0,0.0,0.0,0.0,0.0,0.0,0.0,-1.4687,-1.6063,0.0,-1.5842,-1.6539,-1.7077,-1.7243,-1.7657,-1.8165,-1.8762,-1.9348,-1.9954,-2.0713,-2.11,-2.1272,-2.1459,-2.1626,-2.1709,-2.1559,-2.1725,-2.1807,-2.1807,-2.1807,-2.1714,-2.1559,-2.1559,-2.1373,-2.099,-1.9903,-1.8874,-1.8018,-1.742,-1.703,-1.6876,-1.6886,-1.6946,-1.6873,-1.642,-1.6172,-1.5945,-1.5192,-1.4769,-1.4594,-1.4594,-1.4481,-1.4379,-1.4543,-1.4471,-1.4491,-1.4978,-1.4816,-1.448,-1.4366,-1.4093,-1.3761,-1.3308,-1.3266,-1.3324,-1.3286,-1.321,-1.3123,-1.3113,-1.3017,-1.2978,-1.3085,-1.3036,-1.2988,-1.3027,-1.2929,-1.2716,-1.2223,-1.1759,-1.1509,-1.1414,-1.1069,-1.0864,-1.0985,-1.0827,-1.0485,-1.0047,-0.918,-0.8632,-0.8392,-0.729,-0.7138,0.0,0.0,0.0,0.0,0.0,0.0,0.0,0.0,0.0,0.0,0.0,0.0,0.0,0.0,0.0,0.0,0.0,0.0,0.0,0.0,0.0,0.0,0.0,0.0,0.0,0.0,-1.6032,-1.6457,-1.7646,-1.8175,-1.7625,-1.8061,-1.8547,-1.8923,-1.9281,-1.9839,-2.0825,-2.1081,-2.146,-2.2083,-2.2326,-2.2342,-2.2265,-2.2422,-2.2345,-2.2035,-2.2035,-2.1952,-2.1807,-2.1807,-2.1807,-2.1807,-2.1807,-2.1807,-2.1735,-2.0803,-1.9975,-1.923,-1.8475,-1.8092,-1.7957,-1.7957,-1.7957,-1.7885,-1.7368,-1.6881,-1.628,-1.5659,-1.5359,-1.5235,-1.5235,-1.5121,-1.5028,-1.5183,-1.5121,-1.5079,-1.5632,-1.5393,-1.5065,-1.5001,-1.4714,-1.4379,-1.3921,-1.3746,-1.3693,-1.3693,-1.3446,-1.321,-1.3258,-1.3162,-1.3055,-1.3113,-1.3113,-1.3065,-1.3085,-1.3017,-1.291,-1.2754,-1.2323,-1.2076,-1.2116,-1.1731,-1.1561,-1.1743,-1.1297,-1.1039,-1.099,-1.0111,-0.9404,-0.8925,-0.7092,-0.6933,-0.8518,0.0,0.0,0.0,0.0,0.0,0.0,0.0,0.0,0.0,0.0,0.0,0.0,0.0,0.0,0.0,0.0,0.0,0.0,0.0,0.0,0.0,0.0,0.0,-1.6558,-1.7238,-1.7885,-1.8081,-1.9156,-1.9646,-1.8889,-1.9469,-2.0365,-2.1502,-2.1481,-2.2134,-2.3711,-2.278,-2.2352,-2.2814,-2.2668,-2.2522,-2.2522,-2.2967,-2.2967,-2.2522,-2.2501,-2.2263,-2.1828,-2.1807,-2.1807,-2.1807,-2.1807,-2.1807,-2.1735,-2.0824,-2.07,-2.0959,-1.9603,-1.8806,-1.8423,-1.8402,-1.8392,-1.8319,-1.7905,-1.7171,-1.6425,-1.6425,-1.6115,-1.5753,-1.5753,-1.5432,-1.5152,-1.5608,-1.5401,-1.5245,-1.6146,-1.6042,-1.5711,-1.5691,-1.5691,-1.5566,-1.5101,-1.4635,-1.4304,-1.4304,-1.3834,-1.3467,-1.3563,-1.3467,-1.3362,-1.3218,-1.3314,0.0,-1.3123,-1.3142,-1.3016,-1.2472,-1.2803,-1.2871,-1.2264,-1.2618,-1.2733,-1.2431,-1.1808,-1.1343,-1.1142,-1.03,-0.9612,-0.9033,-0.6514,-0.6608,-0.9396,0.0,0.0,0.0,0.0,0.0,0.0,0.0,0.0,0.0,0.0,0.0,0.0,0.0,0.0,0.0,0.0,0.0,0.0,0.0,0.0,0.0,0.0,-1.9377,-1.8914,-1.9479,-2.0096,-2.0512,-2.1408,-2.1868,-2.1478,-2.1751,-2.2213,-2.2888,-2.3065,-2.3303,-2.3785,-2.3493,-2.3409,-2.3546,-2.3467,-2.3467,-2.3467,-2.3604,-2.3583,-2.3435,-2.3108,-2.2808,-2.2516,-2.2182,-2.1959,-2.1807,-2.1807,-2.1807,-2.1756,-2.1166,-2.0803,-2.0514,-1.9479,-1.9199,-1.9344,-1.9003,-1.8671,-1.8361,-1.8247,-1.7833,-1.7367,-1.7367,-1.7274,-1.7171,-1.7171,-1.685,-1.6508,-1.6632,-1.6343,-1.6053,-1.6312,-1.628,-1.6105,-1.5773,-1.5691,-1.5566,-1.5101,-1.4635,-1.4304,-1.4304,-1.3882,-1.3515,-1.3467,-1.3314,-1.3266,-1.3314,-1.3314,0.0,-1.3334,-1.3266,-1.3132,-1.291,-1.2774,-1.2725,-1.2822,-1.2725,-1.2716,-1.2952,-1.2799,-1.2464,-1.191,-1.1314,-1.0483,-0.9467,-0.8623,-0.8611,0.0,0.0,0.0,0.0,0.0,0.0,0.0,0.0,0.0,0.0,0.0,0.0,0.0,0.0,0.0,0.0,0.0,0.0,0.0,0.0,0.0,0.0,-2.1513,-2.1694,-2.25,-2.1981,-2.1822,-2.2574,-2.2917,-2.3098,-2.3166,-2.3245,-2.3435,-2.4073,-2.3913,-2.4057,-2.4637,-2.4041,-2.3833,-2.4266,-2.4034,-2.4034,-2.4104,-2.4307,-2.419,-2.3796,-2.353,-2.3122,-2.2653,-2.2227,-2.2025,-2.1959,-2.1807,-2.1807,-2.1766,-2.13,-2.1073,0.0,0.0,0.0,0.0,0.0,-1.8775,-1.8382,-1.8382,-1.8092,-1.7668,-1.7668,-1.7668,-1.7668,-1.7668,-1.7482,-1.7234,-1.7038,-1.686,-1.6612,-1.6425,-1.6384,-1.6312,-1.6042,-1.598,-1.5908,-1.5639,-1.5059,-1.4593,-1.4593,-1.4066,0.0,-1.3515,-1.342,-1.3362,-1.342,-1.3362,-1.3362,-1.342,-1.3362,-1.3324,-1.3296,-1.3055,-1.2949,-1.32,-1.2958,0.0,0.0,0.0,-1.2472,-1.1584,-1.1233,0.0,0.0,0.0,-0.9472,-0.948,-0.942,0.0,0.0,-0.9263,-0.9159,0.0,0.0,0.0,0.0,0.0,0.0,0.0,0.0,0.0,0.0,0.0,0.0,0.0,0.0,0.0,0.0,-2.4107,-2.4305,-2.6447,-2.463,-2.3416,-2.4208,-2.3902,-2.3822,-2.4201,-2.4031,-2.4223,-2.4891,-2.4427,-2.4648,-2.5768,0.0,0.0,0.0,0.0,-2.4428,-2.4655,-2.5071,-2.4868,-2.4057,-2.3951,-2.346,-2.2551,-2.2305,-2.2101,-2.2111,-2.1883,-2.1807,-2.1776,-2.1362,-2.1373,-2.1528,-2.0307,-1.952,-1.9075,-1.9075,-1.8816,-1.8454,-1.8454,0.0,0.0,-1.7885,-1.7885,-1.7885,-1.7885,-1.7843,-1.7709,-1.7193,-1.7018,-1.6884,-1.6498,-1.6384,-1.6384,-1.6384,-1.6384,-1.6384,-1.6384,-1.5691,-1.5059,-1.5007,-1.4293,-1.3683,-1.3621,-1.3621,-1.3563,-1.342,-1.3515,-1.3563,-1.342,-1.3515,-1.361,-1.3563,0.0,0.0,-1.342,-1.3314,-1.3266,-1.3409,-1.2764,-1.1814,-1.0669,-1.0592,-1.0241,-0.9621,-0.9614,-0.9614,-0.9614,-0.9614,-0.9614,-0.9614,-0.9361,-0.9263,0.0,0.0,0.0,0.0,0.0,0.0,0.0,0.0,0.0,0.0,0.0,0.0,0.0,0.0,0.0,-2.5273,-2.6477,-2.7557,-2.8276,-2.72,-2.5911,-2.4908,-2.4708,-2.4616,-2.4431,-2.4605,-2.4902,-2.5387,-2.5869,-2.5945,-2.5665,-2.5753,-2.5551,-2.5157,-2.5062,-2.5157,-2.5419,-2.5516,-2.5557,-2.5445,0.0,0.0,-2.3824,-2.2972,-2.2402,-2.2101,-2.2035,-2.1959,-2.1797,-2.1714,-2.128,-2.0659,-2.04,-1.9789,-1.9075,-1.9075,-1.9013,-1.894,-1.894,-1.8878,-1.8806,-1.8806,-1.8806,-1.8806,-1.8806,-1.8547,0.0,-1.7719,-1.7265,-1.6884,-1.6498,-1.6384,-1.6384,-1.6384,-1.6384,-1.6384,-1.6384,-1.5949,-1.5442,-1.507,-1.4552,-1.4055,-1.3683,-1.3621,-1.361,-1.3573,-1.3563,-1.361,-1.3563,-1.3563,-1.3563,-1.3467,-1.342,-1.342,-1.342,-1.3362,-1.342,-1.3563,-1.2511,-1.1625,-1.0939,-1.0395,-0.9999,-0.974,-0.974,-0.9732,-0.9614,-0.9614,-0.9614,-0.9614,-0.9562,-0.9465,0.0,0.0,0.0,0.0,0.0,0.0,0.0,0.0,0.0,0.0,0.0,-2.2864,0.0,0.0,-2.7078,-2.8443,-2.9176,-2.9491,-2.9419,-2.8569,-2.751,-2.6225,-2.5607,-2.5204,-2.5193,-2.5287,-2.5576,-2.6053,-2.6324,-2.6455,-2.6433,-2.6271,-2.6173,-2.6249,-2.5711,-2.5667,-2.6097,-2.5858,-2.5692,-2.5524,-2.4825,-2.4344,-2.3905,-2.3102,-2.2628,-2.2402,-2.2176,-2.2025,-2.1959,-2.1807,-2.1259,-2.042,-2.042,-1.9872,-1.9075,-1.9075,-1.9075,-1.9075,-1.9075,-1.9075,-1.9075,-1.9075,-1.9075,-1.9075,-1.9075,-1.8744,-1.8288,-1.7854,-1.7337,-1.6884,-1.6498,-1.6384,-1.6384,-1.6384,-1.6384,-1.6384,-1.6384,-1.6011,-1.5618,-1.539,-1.478,-1.4231,-1.4003,-1.3962,-1.389,-1.3652,-1.3621,-1.3621,-1.3621,-1.3621,-1.3563,-1.3515,-1.3515,-1.3515,-1.3515,-1.3515,-1.3409,-1.3208,-1.2374,-1.1642,-1.1006,-1.0454,-1.0058,-0.9799,-0.9799,-0.974,-0.9614,-0.9614,-0.9614,-0.9614,-0.9614,-0.9562,0.0,0.0,0.0,0.0,0.0,0.0,0.0,0.0,-2.1589,-2.2374,-2.3903,-2.5511,-2.6765,-2.8124,-2.9666,-3.1535,-3.1369,-3.0834,-3.0388,-2.9427,-2.851,-2.7522,-2.6451,-2.5836,-2.5906,-2.5895,-2.607,-2.6463,-2.6487,-2.6715,-2.7162,-2.6637,-2.6571,-2.7304,-2.6314,-2.6064,-2.6627,-2.6147,-2.5699,-2.5306,-2.4847,-2.4355,-2.3853,-2.321,-2.2789,-2.2703,-2.2252,-2.2101,-2.2101,-2.1873,-2.1259,-2.0431,-2.0431,-1.9941,-1.9142,-1.9142,-1.9075,-1.9075,-1.9075,-1.9075,-1.9075,-1.9075,-1.9075,-1.9054,-1.8961,-1.8671,-1.8268,-1.775,-1.7265,-1.6884,-1.6498,-1.6384,-1.6384,-1.6384,-1.6384,-1.6384,-1.6384,-1.6084,-1.5794,-1.5711,-1.509,-1.4542,-1.4459,-1.4438,-1.4283,-1.3817,-1.3745,-1.3745,-1.3745,-1.3672,-1.3621,-1.3621,-1.3621,-1.3621,-1.3621,-1.3621,-1.3314,-1.2677,-1.2246,-1.166,-1.0956,-1.0514,-1.0213,-0.9903,-0.9851,-0.9792,-0.9621,-0.9614,-0.9614,-0.9614,-0.9614,-0.9614,-1.8911,-1.8806,-1.9277,-2.0832,-2.0884,-2.1368,0.0,0.0,-2.4792,-2.5876,-2.7484,-2.8595,-2.8255,-2.998,-3.1535,-3.1797,-3.2176,-3.228,-3.1669,-3.0233,-2.903,-2.8339,-2.7243,-2.6291,-2.595,-2.5895,-2.5917,-2.5983,-2.6758,-2.7086,-2.6725,-2.7357,-2.7619,-2.7326,-2.6813,-2.6487,-2.6627,-2.6147,-2.5874,-2.5819,-2.5327,-2.4847,-2.4388,-2.3798,-2.3264,-2.2703,-2.2252,-2.2101,-2.2101,-2.1873,-2.1354,-2.0676,-2.0676,-2.0101,-1.9274,-1.9142,-1.9075,-1.9075,-1.9075,-1.9075,-1.9075,-1.9075,-1.9075,-1.8992,-1.8578,-1.8423,-1.8206,-1.7357,-1.7018,-1.6884,-1.6498,-1.6384,-1.6384,-1.6384,-1.6384,-1.6384,-1.6384,-1.6343,-1.6177,-1.5773,-1.5608,-1.5401,-1.4987,-1.4925,-1.4759,-1.4304,-1.4231,-1.4231,-1.4231,-1.3869,-1.3621,-1.3621,-1.3621,-1.3621,-1.3621,-1.3621,-1.318,-1.2147,-1.2049,-1.156,-1.0624,-1.0522,-1.0419,-1.0265,-1.0051,-0.9895,-0.9792,-0.9673,-0.9614,-0.9614,-0.9614,-0.9614,-2.0044,-2.0414,0.0,0.0,-2.3341,-2.4622,-2.6412,-2.7157,-2.7615,-2.8085,-2.9301,-3.0189,-2.9941,-3.096,-3.2058,0.0,-3.3064,-3.2956,-3.2107,-3.0721,-2.9306,-2.7904,-2.6543,-2.5819,-2.5895,-2.5644,-2.571,-2.6289,-2.6933,-2.7359,-2.7446,-2.7829,-2.7949,-2.7741,-2.702,-2.6627,-2.6627,-2.6147,-2.5895,-2.5895,-2.5142,-2.4672,-2.4465,-2.3667,-2.3123,-2.2703,-2.2553,-2.2402,-2.2231,-2.1881,-2.1397,-2.0857,-2.0582,-2.0065,-1.9473,-1.9274,-1.9142,-1.9131,-1.9208,-1.9142,-1.9131,-1.9208,-1.9142,-1.9034,-1.8837,-1.8599,-1.8299,-1.7926,-1.7636,-1.7337,-1.7212,-1.6964,-1.6767,-1.6767,-1.657,-1.6384,-1.6384,-1.6384,-1.6322,-1.6125,-1.5877,-1.5628,-1.5432,-1.5401,-1.5339,-1.5142,-1.4883,-1.4707,-1.4707,-1.4304,-1.3921,-1.3652,-1.3621,-1.3621,-1.3621,-1.3621,-1.3132,-1.2058,-1.2008,-1.156,-1.0522,-1.0522,-1.0419,-1.0316,-1.0213,-1.0058,-0.9799,-0.974,-0.9673,-0.9614,-0.9614,-0.9614,-2.1092,0.0,0.0,-2.3955,-2.5798,-2.7589,-2.832,-2.9261,-2.998,-2.998,-3.0647,-3.1169,-3.1013,-3.1326,-3.194,-3.2947,-3.3247,-3.3031,-3.2161,-3.0881,-2.94,-2.7797,-2.5926,-2.5048,-2.5776,-2.5458,-2.5459,-2.6168,-2.69,-2.7468,-2.7818,-2.8091,-2.8178,-2.7956,-2.725,-2.6758,-2.6627,-2.6016,-2.5699,-2.5688,-2.488,-2.441,-2.4246,-2.3394,-2.2927,-2.2777,-2.2703,-2.2628,-2.2435,-2.1892,-2.1434,-2.1047,-2.0578,-2.0098,-1.9681,-1.9539,-1.9341,-1.9274,-1.9341,-1.9341,-1.9274,-1.9341,-1.9341,-1.9177,-1.9052,-1.8846,-1.8478,-1.8353,-1.8093,-1.7843,-1.7843,-1.7593,-1.7342,-1.7293,-1.7044,-1.6774,-1.6591,-1.656,-1.6529,-1.6405,-1.6115,-1.5877,-1.5877,-1.5877,-1.5877,-1.5877,-1.5597,-1.5328,-1.5204,-1.4676,-1.4179,-1.3838,-1.3693,-1.3621,-1.3621,-1.3621,-1.3172,-1.2204,-1.2063,-1.1604,-1.0665,-1.0569,-1.047,-1.0368,-1.0316,-1.0162,-0.9844,-0.9799,-0.9732,-0.9614,-0.9614,-0.9614,0.0,0.0,-2.4465,-2.6151,-2.7902,-2.9497,-3.062,-3.1339,-3.168,-3.168,-3.1707,-3.164,-3.1091,-3.0999,-3.1209,-3.1797,-3.2359,-3.2515,-3.1889,-3.0465,-2.9224,-2.885,-2.5761,-2.426,0.0,-2.5371,-2.5185,-2.5207,-2.6518,-2.7315,-2.7337,-2.8222,-2.8517,-2.8058,-2.7555,-2.7075,-2.6638,-2.5677,-2.5196,-2.5196,-2.4716,-2.4235,-2.3733,-2.323,-2.3001,-2.3001,-2.2777,-2.2703,-2.267,-2.1965,-2.1578,-2.1258,-2.0773,-2.0299,-1.9868,-1.9868,-1.9747,-1.9605,-1.9605,-1.9605,-1.9605,-1.9605,-1.9605,-1.952,-1.9062,-1.8913,-1.8807,-1.8339,-1.8201,-1.819,-1.819,-1.8179,-1.8108,-1.8006,-1.7945,-1.7747,-1.7119,-1.6966,-1.6901,-1.6467,-1.6363,-1.6363,-1.6363,-1.6363,-1.6363,-1.6363,-1.6353,-1.6177,-1.5732,-1.4873,-1.4304,-1.4283,-1.389,-1.3621,-1.3621,-1.3621,-1.3302,-1.2599,-1.2218,-1.1676,-1.1016,-1.0653,-1.0522,-1.047,-1.0368,-1.0213,-0.9999,-0.9851,-0.9732,-0.9614,-0.9614,-0.9614,0.0,0.0,-2.7328,-2.8802,-3.0388,-3.1744,-3.2529,-3.2948,-3.2935,-3.2147,-3.1145,-3.0053,-2.9078,-2.8756,-2.9013,-2.998,-3.0947,-3.1627,-3.1823,-3.061,-2.9309,-2.8448,-2.6552,0.0,0.0,0.0,0.0,-2.512,-2.6223,-2.6988,-2.7293,-2.8233,-2.8386,-2.7588,-2.7403,-2.678,-2.5677,-2.5338,-2.5022,-2.4716,-2.4213,-2.3722,-2.3241,-2.3078,-2.3001,-2.3001,-2.2927,-2.2752,-2.2364,-2.1876,-2.1398,-2.1022,-2.0858,-2.0499,-2.0053,-2.0434,-2.028,-1.9944,-1.9802,-1.9736,-1.9605,-1.9747,-1.9736,-1.9573,-1.9424,-1.9371,-1.9339,-1.9179,-1.9126,-1.9126,-1.9126,-1.8903,-1.8658,-1.8606,-1.8362,-1.8036,-1.7706,-1.7434,-1.7113,-1.685,-1.6581,-1.6384,-1.6384,-1.6384,-1.6384,-1.6384,-1.6384,-1.6208,-1.5742,-1.5421,-1.5101,-1.48,-1.4624,-1.4531,-1.4531,-1.4531,-1.4122,-1.3146,-1.2929,-1.2316,-1.1056,-1.0883,-1.0709,-1.0522,-1.047,-1.0368,-1.0213,-0.9999,-0.9844,-0.9732,-0.9621,-0.9614,-2.5375,-2.7656,-2.986,-3.1169,-3.2564,-3.3594,-3.3791,-3.374,-3.3212,-3.1611,-2.9892,-2.8318,-2.7154,-2.6472,-2.6516,-2.7891,-2.907,-3.0019,-3.0817,-3.0138,-2.9378,-2.8902,-2.7115,-2.5769,0.0,0.0,0.0,-2.488,-2.6136,-2.6998,-2.7293,-2.8233,-2.8309,-2.7337,-2.7315,-2.6704,-2.5448,-2.5098,-2.4596,-2.3951,-2.3624,-2.3307,-2.3001,-2.3001,-2.3001,-2.3001,-2.3001,-2.2837,-2.251,-2.1854,-2.1407,-2.1101,-2.0994,-2.0675,-2.0456,-2.0948,-2.0817,-2.038,-2.0063,-1.9878,-1.9834,-2.0138,-2.0018,-1.9845,-2.0017,-1.9942,-1.9813,-1.9813,-1.9813,-1.9845,-2.0017,-1.9705,-1.9329,-1.9501,-1.9169,-1.8721,-1.8374,-1.7912,-1.7473,-1.7186,-1.6742,-1.6384,-1.6384,-1.6384,-1.6384,-1.6384,-1.6384,-1.627,-1.597,-1.5784,-1.5577,-1.5277,-1.5101,-1.4997,-1.4997,-1.4997,-1.4573,-1.3516,-1.3387,-1.2714,-1.1416,-1.1241,-1.1066,-1.0836,-1.0717,-1.0609,-1.0504,-1.0164,-0.9947,-0.9799,-0.9673,-0.9614,-2.7624,-2.9961,-3.2043,-3.3218,-3.4313,-3.4886,-3.43,-3.3647,-3.2515,-3.0197,-2.8213,-2.6591,0.0,0.0,-2.3984,-2.5682,-2.6843,-2.7981,-2.9157,-2.9189,-2.9374,0.0,0.0,0.0,0.0,0.0,0.0,-2.4642,0.0,-2.7293,-2.7436,-2.8313,-2.8287,-2.7337,-2.7293,-2.6824,-2.5874,-2.4923,-2.3973,-2.3045,-2.3012,-2.3001,-2.3001,-2.3001,-2.3001,-2.3001,-2.3001,-2.299,-2.2903,-2.1996,-2.1614,-2.1549,-2.1112,-2.0994,-2.0959,-2.1439,-2.1319,-2.0839,-2.038,-2.014,-2.026,-2.074,-2.0577,-2.0205,-2.0751,-2.0566,-2.0129,-2.0151,-2.0162,-2.0325,-2.074,-2.0522,-2.0227,-2.0528,-2.0202,-1.9749,-1.9094,-1.8448,-1.7933,-1.7399,-1.6811,-1.6384,-1.6415,-1.6394,-1.6384,-1.6384,-1.6384,-1.6384,-1.6384,-1.6001,-1.5732,-1.5732,-1.5328,-1.507,-1.507,-1.507,-1.47,-1.3864,-1.3534,-1.297,-1.2062,-1.1694,-1.1511,-1.1487,-1.1185,-1.0964,-1.0786,-1.0294,-0.997,-0.9792,-0.9673,-0.9614,-3.0051,-3.1978,-3.3792,-3.4687,-3.4687,-3.4286,-3.37,-3.2163,-3.0445,-2.896,-2.6537,-2.452,0.0,0.0,0.0,-2.5203,-2.6987,0.0,-2.9745,-3.0251,0.0,-3.0116,0.0,-2.895,-2.7215,-2.8276,0.0,0.0,-2.6734,-2.7446,-2.8865,-2.8442,-2.7949,-2.7337,-2.6988,-2.6332,-2.5371,-2.4399,-2.3798,-2.3536,-2.3176,-2.3001,-2.3001,-2.3001,-2.3001,-2.3001,-2.3001,-2.2805,-2.2477,-2.2237,-2.192,-2.1614,-2.1854,-2.1723,-2.1461,-2.1953,-2.1822,-2.1385,-2.1265,-2.0981,-2.0762,-2.1243,-2.1068,-2.0773,-2.1254,-2.1068,-2.0751,-2.1123,-2.1221,-2.1166,-2.0994,-2.0773,-2.062,-2.0314,-2.0172,-1.9977,-1.9717,-1.9254,-1.8646,-1.7943,-1.704,-1.6487,-1.6819,-1.6601,-1.6384,-1.6384,-1.6384,-1.6384,-1.6384,-1.628,-1.6208,-1.6208,-1.6094,-1.6022,-1.6022,-1.6022,-1.5555,-1.4372,-1.4222,-1.3544,-1.2086,-1.1932,-1.1757,-1.1495,-1.1408,-1.1241,-1.0949,-1.0693,-1.0355,-0.9947,-0.9792,-0.9681,-3.1988,-3.358,-3.4915,-3.5076,-3.4566,-3.3708,-3.234,-3.0465,-2.8446,-2.6479,-2.4309,0.0,0.0,0.0,0.0,0.0,0.0,0.0,-2.8834,-2.9791,-3.0398,0.0,-3.0853,0.0,-2.9253,-3.0158,-3.0486,0.0,-2.8978,-2.8763,-2.9424,-2.8914,-2.8255,-2.7326,-2.6867,-2.6315,-2.5708,-2.5326,-2.4979,-2.4739,-2.4249,-2.379,-2.3486,-2.3486,-2.3276,-2.3001,0.0,-2.2859,-2.2608,-2.24,-2.216,-2.1931,-2.2215,-2.2149,-2.1964,-2.2444,-2.2313,-2.1942,-2.2138,-2.1898,-2.1549,-2.1822,-2.1581,-2.1265,-2.1756,-2.157,-2.1232,-2.1516,-2.1592,-2.1527,-2.1254,-2.1013,-2.0795,-2.0522,-2.0293,-2.0074,-2.0009,-1.9554,-1.8953,-1.8184,-1.7329,-1.6863,-1.7005,-1.6674,-1.6384,-1.6384,-1.6384,-1.6384,-1.6384,-1.6384,-1.6384,-1.6384,-1.6384,-1.6384,-1.6384,-1.6134,-1.5662,-1.4942,-1.4647,-1.3945,-1.2728,-1.266,-1.2451,-1.1964,-1.1805,-1.1551,-1.1209,-1.0903,-1.0485,-0.9999,-0.9784,-0.9754,-3.3607,-3.4869,-3.5574,-3.4977,-3.4204,-3.301,-3.0798,-2.8641,-2.6362,-2.3622,0.0,-2.1077,-2.0481,0.0,-2.0882,-2.2696,0.0,-2.4983,-2.7433,-2.8625,-2.9889,-3.1535,-3.1227,-3.1208,-3.1964,-3.1685,-3.1859,-3.2855,-3.192,-3.0903,-2.9887,-2.9642,-2.8904,-2.7305,-2.6736,-2.6523,-2.6496,-2.67,-2.6632,-2.6226,-2.5648,-2.4992,-2.4264,-2.4264,-2.3913,-2.3287,-2.3287,-2.3287,-2.3254,-2.2855,-2.2689,-2.2689,-2.2689,-2.2689,-2.2734,-2.3069,-2.2886,-2.26,-2.2859,-2.2739,-2.2411,-2.2411,-2.2084,-2.1778,-2.2258,-2.2073,-2.1701,-2.1756,-2.1734,-2.1669,-2.1614,-2.1221,-2.0917,-2.0784,-2.0445,-2.0085,-2.0085,-1.9629,-1.8985,-1.8405,-1.7733,-1.7294,-1.7179,-1.6715,-1.6431,-1.6384,-1.6384,-1.6384,-1.6384,-1.6384,-1.6384,-1.6384,-1.6384,-1.6384,-1.6384,-1.5778,-1.541,-1.541,-1.4765,-1.4112,-1.3511,-1.345,-1.3155,-1.2621,-1.225,-1.1892,-1.1487,-1.0966,-1.047,-1.0051,-0.9777,-0.9842,-3.4326,-3.5181,-3.5574,-3.4977,-3.3281,-3.1382,-2.9957,-2.6714,0.0,0.0,0.0,-2.0468,-1.9944,-2.0482,0.0,-2.2578,0.0,0.0,0.0,0.0,-2.9745,0.0,0.0,0.0,0.0,0.0,0.0,0.0,0.0,-3.3173,-3.1685,-3.0556,-2.9045,-2.7307,-2.6468,-2.6346,-2.7047,-2.6678,-2.6558,-2.6731,-2.619,-2.5625,-2.5087,-2.5087,-2.5016,-2.4874,-2.4874,0.0,-2.4874,-2.4779,-2.4744,-2.4744,-2.4744,-2.4744,-2.4684,-2.4097,-2.3857,-2.3727,-2.318,-2.2947,-2.2881,-2.2881,-2.2575,-2.228,-2.2739,-2.2553,-2.2269,-2.2652,-2.2488,-2.2095,-2.1691,-2.1221,-2.0762,-2.0369,-2.014,-2.0085,-2.0085,-1.9629,-1.9242,-1.9501,-1.8411,-1.7556,-1.7788,-1.7147,-1.6524,-1.6431,-1.6384,-1.6384,-1.6384,-1.6384,-1.6384,-1.6384,-1.6384,-1.6384,-1.6384,-1.5778,-1.541,-1.541,-1.4341,-1.3631,-1.3511,-1.3042,-1.2683,-1.2621,-1.2557,-1.2146,-1.1487,-1.1368,-1.0973,-1.0265,-1.0051,-1.0076,-3.4953,-3.5566,-3.5425,-3.4217,-3.2359,-3.0188,-2.7718,0.0,0.0,0.0,0.0,-1.9537,-1.9266,0.0,0.0,0.0,0.0,0.0,0.0,0.0,0.0,0.0,0.0,0.0,0.0,0.0,0.0,0.0,0.0,-3.3708,-3.2202,-3.0795,-2.9487,-2.8327,-2.8633,-2.8645,-2.8303,-2.8633,-2.8346,-2.7471,-2.7338,-2.6789,-2.5861,-2.5861,-2.5652,-2.5312,-2.5312,-2.5312,-2.5312,-2.5312,-2.5312,-2.5312,-2.5312,-2.5312,-2.5229,-2.4862,-2.448,-2.4047,-2.3694,-2.335,-2.3001,-2.3001,-2.2848,-2.2717,-2.2936,-2.2848,-2.2717,-2.2936,-2.2848,-2.251,-2.1778,-2.1417,-2.1057,-2.0325,-2.0085,-2.0085,-2.0085,-1.9889,-1.9727,-1.989,-1.9113,-1.8283,-1.8038,-1.7399,-1.6864,-1.6472,-1.6384,-1.6384,-1.6384,-1.6384,-1.6384,-1.6384,-1.6384,-1.6384,-1.6384,-1.5778,-1.5536,-1.5894,-1.4706,-1.4052,-1.4052,-1.339,-1.292,-1.2629,-1.2621,-1.227,-1.1487,-1.1439,-1.1068,-1.0371,-1.0212,-1.0374,-3.4857,-3.5421,-3.5099,-3.3322,-3.1436,-2.9143,-2.5778,-2.2956,0.0,0.0,-1.8806,-1.8806,-1.8806,0.0,0.0,0.0,0.0,0.0,0.0,0.0,0.0,0.0,0.0,0.0,0.0,0.0,0.0,0.0,0.0,0.0,-3.2275,-3.0984,-3.0153,-2.9752,-3.0634,-3.0728,-2.974,-3.0494,-3.0186,-2.8644,-2.8744,-2.8097,-2.681,-2.681,-2.6458,-2.5791,-2.5791,-2.5791,-2.5791,-2.5791,-2.5791,-2.5791,-2.5791,-2.5791,-2.5721,-2.5581,-2.5004,-2.4337,-2.4192,-2.3632,-2.3001,-2.3001,-2.3001,-2.3001,-2.3001,-2.3001,-2.3001,-2.3001,-2.2859,-2.2531,-2.1778,-2.1439,-2.109,-2.026,-2.0085,-2.0085,-2.0085,-2.0085,-2.0085,-1.9944,-1.9544,-1.9005,-1.8235,-1.7708,-1.7116,-1.655,-1.6431,-1.6384,-1.6384,-1.6384,-1.6384,-1.6384,-1.6384,-1.6384,-1.6384,-1.5778,-1.5594,-1.6134,-1.5001,-1.4291,-1.4291,-1.3631,-1.3094,-1.2621,-1.2621,-1.2242,-1.1606,-1.1492,-1.1207,-1.0716,-1.0559,-1.0755,-3.3184,-3.4118,-3.4489,-3.2698,-3.0486,-2.8098,-2.5575,0.0,0.0,-1.8956,-1.8806,-1.8806,-1.8806,-1.932,0.0,0.0,0.0,0.0,0.0,0.0,0.0,0.0,0.0,0.0,0.0,0.0,0.0,0.0,0.0,0.0,-3.2658,-3.1792,-3.1229,-3.1192,-3.0655,-3.0584,-3.1192,-3.0826,-3.0662,-3.0742,-3.0168,-2.9321,-2.8226,-2.8226,-2.7871,-2.7323,-2.7323,-2.7323,0.0,-2.7323,-2.7323,-2.7323,-2.7323,-2.7323,-2.7255,-2.6564,-2.5861,-2.5087,-2.4337,-2.3632,-2.3001,-2.3001,-2.3001,-2.3001,-2.3001,-2.3001,-2.3001,-2.3001,-2.2379,-2.1701,-2.1614,-2.0937,-2.0194,-2.0096,-2.0085,-2.0085,-2.0085,-2.0085,-2.0085,-2.0074,-1.9683,-1.9204,-1.8552,-1.7937,-1.727,-1.6644,-1.6477,-1.6384,-1.6384,-1.6384,-1.6384,-1.6384,-1.6384,-1.6384,-1.6384,-1.5778,-1.541,-1.5478,-1.4282,-1.3563,-1.3563,-1.2981,-1.2683,-1.2621,-1.2621,-1.2369,-1.1972,-1.1913,-1.1731,-1.1383,-1.1166,-1.1195,-3.2044,-3.342,-3.3928,-3.2064,-2.9835,-2.7339,-2.4571,0.0,0.0,-1.848,-1.8276,-1.8276,-1.8276,-1.9035,-1.9646,0.0,0.0,0.0,0.0,0.0,0.0,0.0,0.0,0.0,0.0,0.0,0.0,0.0,0.0,0.0,-3.2176,-3.185,-3.1834,-3.2169,-3.186,-3.1453,-3.0952,-3.1146,-3.074,-2.9655,-2.9921,-2.9523,-2.8386,-2.8386,-2.8072,-2.7523,-2.7523,-2.7523,0.0,-2.7523,-2.7523,-2.7523,-2.7523,-2.7523,-2.7456,-2.7188,-2.6633,-2.5931,-2.5627,-2.4992,-2.4299,-2.3852,-2.3621,-2.3559,-2.3139,-2.3001,-2.3001,-2.3001,-2.2531,-2.2029,-2.2029,-2.1308,-2.0577,-2.0577,-2.0358,-2.0085,-2.0085,-2.0085,-2.0085,-2.0085,-1.9922,-1.9639,-1.9024,-1.8488,-1.7884,-1.7228,-1.6874,-1.6648,-1.6648,-1.6648,-1.6591,-1.6534,-1.6431,-1.6384,-1.6384,-1.6134,-1.5836,-1.541,-1.4579,-1.3932,-1.3511,-1.292,-1.2621,-1.2621,-1.2621,-1.2385,-1.2019,-1.2019,-1.1889,-1.1689,-1.1581,-1.159,-2.9909,-3.1639,-3.2442,-3.0636,-2.8666,-2.6407,0.0,0.0,-1.913,-1.8099,-1.7882,-1.7936,-1.8154,-1.8845,-1.9334,0.0,0.0,0.0,0.0,0.0,0.0,0.0,0.0,0.0,0.0,0.0,0.0,0.0,0.0,-3.245,-3.1798,-3.1759,-3.211,-3.2672,-3.2685,-3.2252,-3.1207,-3.1617,-3.1099,-2.9656,-3.0141,-2.9771,-2.8647,-2.8647,-2.8242,-2.7523,-2.7523,-2.7523,0.0,-2.7523,-2.7523,-2.7523,-2.7523,-2.7523,-2.7523,-2.7523,-2.704,-2.6414,-2.6414,-2.5931,-2.5205,-2.4448,-2.4033,-2.3735,-2.3106,-2.2919,-2.2968,-2.2837,-2.2357,-2.1887,-2.1887,-2.1374,-2.0895,-2.0686,-2.05,-2.0314,-2.0107,-2.0085,-2.0085,-2.0085,-2.0085,-1.9976,-1.9553,-1.8938,-1.8401,-1.8044,-1.7333,-1.686,-1.6999,-1.6892,-1.6751,-1.6694,-1.6534,-1.6431,-1.6384,-1.6384,-1.6019,-1.5177,-1.4883,-1.4291,-1.3277,-1.2981,-1.2805,-1.2621,-1.2621,-1.2432,-1.2178,-1.2178,-1.2119,-1.2067,-1.1999,-1.1882,-2.6165,-2.8197,-2.9768,-2.8029,-2.6764,-2.5101,0.0,0.0,-1.8657,-1.8004,-1.7882,-1.8099,-1.8684,-1.8806,-1.9024,-1.9591,0.0,0.0,0.0,0.0,0.0,0.0,0.0,0.0,0.0,0.0,0.0,0.0,0.0,0.0,-3.1798,-3.1759,-3.211,-3.2672,-3.2685,-3.2685,-3.2685,-3.2123,-3.1759,-3.1733,-3.1248,-3.0372,-2.9274,-2.9274,-2.8634,-2.7523,-2.7523,-2.7523,0.0,-2.7523,-2.7523,-2.7523,-2.7523,-2.7523,-2.7523,-2.7523,-2.704,-2.6414,-2.6414,-2.5931,-2.5216,-2.4594,-2.3943,-2.3316,-2.2743,-2.2797,-2.2903,-2.2455,-2.1625,-2.0939,-2.0939,-2.0939,-2.074,-2.0205,-2.0511,-2.0729,-2.0183,-2.0085,-2.0085,-2.0085,-2.0085,-2.0085,-2.0074,-1.9228,-1.8689,-1.9133,-1.7819,-1.6977,-1.7414,-1.7084,-1.6818,-1.6818,-1.6694,-1.6524,-1.6431,-1.6384,-1.5836,-1.4588,-1.5059,-1.4519,-1.2683,-1.3155,-1.3216,-1.2621,-1.2621,-1.2621,-1.2621,-1.2621,-1.2621,-1.2621,-1.2367,-1.2112,-2.3216,-2.5126,-2.657,-2.5593,-2.4816,-2.3765,-2.1999,0.0,-1.9044,-1.8418,-1.8109,-1.7936,-1.8167,-1.8534,-1.8874,-1.9065,0.0,0.0,0.0,0.0,0.0,0.0,0.0,0.0,0.0,0.0,0.0,0.0,0.0,-3.1692,-3.0651,-3.1341,-3.1927,-3.211,-3.1731,-3.1522,-3.1522,-3.096,-3.0673,-3.066,-3.0085,-2.9418,-2.866,-2.866,-2.8242,-2.7523,-2.7523,-2.7523,-2.7523,-2.7523,-2.7523,-2.7523,-2.7523,-2.7523,-2.7523,-2.7523,-2.7323,-2.7124,-2.6736,-2.6462,-2.6095,-2.4946,-2.4153,-2.3502,-2.3092,-2.2535,-2.1942,-2.1461,-2.1341,-2.1363,-2.1363,-2.1363,-2.1407,-2.1592,-2.1494,-2.1221,-2.074,-2.0631,-2.0544,-2.014,-2.0085,-2.0183,-2.0577,-1.977,-1.9291,-1.9716,-1.8566,-1.7651,-1.7791,-1.7459,-1.7099,-1.6965,-1.6797,-1.6694,-1.6534,-1.6431,-1.6019,-1.5177,-1.5294,-1.4942,-1.3932,-1.3631,-1.339,-1.3216,-1.2797,-1.2621,-1.2621,-1.2621,-1.2621,-1.2621,-1.2367,-1.2243,0.0,-2.2619,-2.4,-2.323,-2.2836,-2.2261,-2.0925,-1.9684,-1.8726,-1.8363,-1.8029,-1.7842,-1.7882,-1.837,-1.8803,-1.9076,0.0,0.0,0.0,0.0,0.0,0.0,0.0,0.0,0.0,0.0,0.0,0.0,0.0,-3.1248,-2.9889,-3.1104,-3.1548,-3.0895,-3.0738,-3.066,-3.066,-3.0098,-2.9915,-3.0124,-2.9549,-2.8961,-2.8386,-2.8386,-2.8072,-2.7523,-2.7523,-2.7523,0.0,-2.7523,-2.7523,-2.7523,-2.7523,-2.7523,-2.751,-2.7288,-2.734,-2.7419,-2.6621,-2.6491,-2.6479,-2.5293,-2.4305,-2.3599,-2.3087,-2.2281,-2.1504,-2.1235,-2.109,-2.109,-2.1265,-2.1308,-2.1352,-2.1472,-2.1407,-2.1177,-2.0697,-2.0587,-2.05,-2.014,-2.0085,-2.0293,-2.0773,-2.0063,-1.9648,-2.0314,-1.9047,-1.8065,-1.8239,-1.7682,-1.7267,-1.7145,-1.692,-1.6761,-1.6694,-1.6488,-1.6134,-1.541,-1.5652,-1.5303,-1.4172,-1.3992,-1.3631,-1.3155,-1.2797,-1.2621,-1.2621,-1.2621,-1.2621,-1.2621,-1.2367,-1.2305,0.0,0.0,0.0,0.0,-2.0907,-2.0631,-1.9197,-1.8399,0.0,-1.7963,-1.7801,-1.7774,-1.7936,-1.8314,-1.8852,-1.9601,0.0,0.0,0.0,0.0,0.0,0.0,0.0,0.0,0.0,0.0,0.0,0.0,-3.1078,-3.0934,-2.9301,-3.0764,-3.0882,-2.9209,-2.9758,-3.0072,-3.0072,-2.9497,-2.9483,-3.0006,-2.9431,-2.8869,-2.832,-2.832,-2.8033,0.0,-2.7523,-2.7523,-2.7523,-2.7523,-2.7523,-2.7523,-2.7523,-2.7523,-2.7458,-2.6935,-2.7066,-2.7366,-2.6216,-2.6177,-2.6489,-2.5384,-2.4445,-2.3518,-2.2786,-2.2044,-2.1453,-2.157,-2.0906,-2.0249,-2.0807,-2.0928,-2.0762,-2.0347,-2.0587,-2.0773,-2.0303,-2.0129,-2.0129,-2.0085,-2.0085,-2.0293,-2.0773,-2.0085,-1.979,-2.0718,-1.9255,-1.8206,-1.8632,-1.7857,-1.7278,-1.7278,-1.6987,-1.6807,-1.6818,-1.6534,-1.6134,-1.5526,-1.6077,-1.5594,-1.3683,-1.4172,-1.3932,-1.2683,-1.2621,-1.2621,-1.2621,-1.2621,-1.2621,-1.2621,-1.2428,-1.2305,-1.6778,0.0,-1.8748,-1.883,-1.9441,-1.9923,0.0,0.0,0.0,0.0,0.0,0.0,0.0,0.0,0.0,0.0,0.0,0.0,0.0,0.0,0.0,0.0,0.0,0.0,0.0,0.0,0.0,0.0,-2.998,-2.9497,-2.8634,-2.9405,-2.9287,-2.7981,-2.8935,-2.9483,-2.9483,-2.8895,-2.866,-2.8778,-2.8216,-2.7863,-2.7732,-2.7732,-2.7654,-2.7523,-2.7523,-2.7523,-2.7523,-2.7523,-2.7523,-2.7523,-2.7523,-2.7523,-2.751,-2.7499,-2.7604,-2.7552,-2.6393,-2.6153,-2.5936,-2.4262,-2.3857,-2.3754,-2.2421,-2.191,-2.1724,-2.1532,-2.1009,-2.0564,-2.0796,-2.0928,-2.0994,-2.1188,-2.1341,-2.1286,-2.0795,-2.0686,-2.0587,-2.0151,-2.0085,-2.0293,-2.0773,-2.0369,-2.0172,-2.0773,-1.9528,-1.8567,-1.8676,-1.7857,-1.7278,-1.7278,-1.7088,-1.6909,-1.6807,-1.6534,-1.6316,-1.6192,-1.6316,-1.5951,-1.4991,-1.4647,-1.4112,-1.3268,-1.2858,-1.2621,-1.2621,-1.2621,-1.2621,-1.2621,-1.256,-1.256,-1.6095,-1.6969,-1.7861,-1.77,-1.8619,-1.9493,0.0,0.0,0.0,0.0,0.0,0.0,0.0,0.0,0.0,0.0,0.0,0.0,0.0,0.0,0.0,0.0,0.0,0.0,0.0,0.0,0.0,-2.9048,-2.9214,-2.9013,-2.8412,-2.9444,-2.9536,-2.8373,-2.9209,-2.9549,-2.9274,-2.8686,-2.8516,-2.8778,-2.7941,-2.7523,-2.7523,-2.7523,-2.7523,-2.7523,-2.7523,-2.7523,-2.7523,-2.7523,-2.7523,-2.7656,-2.7656,-2.7656,-2.7736,-2.726,-2.7457,-2.7682,-2.5972,-2.5449,-2.5329,-2.4315,-2.4234,-2.4292,-2.3327,-2.2847,-2.2421,-2.1325,-2.0828,-2.0573,-2.0522,-2.0533,-2.0598,-2.086,-2.0926,-2.086,-2.0587,-2.0533,-2.0456,-2.0129,-2.0085,-2.0162,-2.0489,-2.0314,-2.0172,-2.05,-1.9484,-1.8687,-1.8687,-1.7857,-1.7278,-1.7278,-1.7134,-1.6955,-1.6909,-1.6637,-1.6477,-1.6384,-1.6384,-1.5961,-1.5001,-1.4647,-1.4052,-1.3094,-1.2744,-1.2621,-1.2621,-1.2621,-1.2621,-1.2621,-1.2621,-1.2621,-1.6039,-1.7074,-1.7971,-1.7257,-1.827,-1.9221,0.0,0.0,0.0,0.0,0.0,0.0,0.0,0.0,0.0,0.0,0.0,0.0,0.0,0.0,0.0,0.0,0.0,0.0,0.0,0.0,0.0,-2.7776,-2.8667,-2.8992,-2.8412,-2.9876,-3.0281,-2.9314,-2.9745,-2.9771,-2.9358,-2.8673,-2.8634,-2.9131,-2.8046,-2.7575,-2.7654,-2.7562,-2.7523,-2.7523,0.0,0.0,-2.7523,-2.7603,-2.7656,-2.7855,-2.7855,-2.7934,-2.7959,-2.6996,-2.7264,-2.7838,-2.5741,-2.4962,-2.4805,-2.4886,-2.4973,-2.4892,-2.4465,-2.3989,-2.3327,-2.1439,-2.0764,-2.0646,-2.027,-2.0151,-2.0085,-2.0085,-2.0085,-2.0085,-2.0085,-2.0085,-2.0085,-2.0085,-2.0085,-2.0085,-2.0085,-2.0085,-2.0085,-2.0085,-1.931,-1.8687,-1.8687,-1.7857,-1.7278,-1.7278,-1.7145,-1.7011,-1.7011,-1.6797,-1.6581,-1.6431,-1.6431,-1.5836,-1.4529,-1.4291,-1.37,-1.2621,-1.2621,-1.2621,-1.2621,-1.2621,-1.2621,-1.2621,-1.2621,-1.2621,-1.6067,-1.7029,-1.7938,-1.7438,-1.839,-1.9176,0.0,0.0,0.0,0.0,0.0,0.0,0.0,0.0,0.0,0.0,0.0,0.0,0.0,0.0,0.0,0.0,0.0,0.0,0.0,0.0,-2.7934,-2.7776,-2.8435,-2.871,-2.8386,-2.9118,-2.9457,-2.9287,-2.9508,-2.9566,-2.9487,-2.8756,-2.8425,-2.8503,-2.785,-2.7785,-2.8229,-2.7745,-2.7523,-2.7523,0.0,-2.7789,-2.7789,-2.7934,-2.8013,-2.8079,-2.8079,-2.8079,-2.8052,-2.8034,-2.8139,-2.8179,-2.7346,-2.6055,-2.4859,-2.5428,-2.531,-2.4892,-2.4465,-2.4234,-2.393,-2.2482,-2.1639,-2.1031,-2.0646,-2.0324,-2.0085,-2.0085,-2.0085,-2.0085,-2.0085,-2.0085,-2.0085,-2.0085,-2.0085,-2.0085,-2.0085,-2.0085,-2.0085,-2.0085,-1.931,-1.8687,-1.8687,-1.7857,-1.7278,-1.7278,-1.7278,-1.7211,-1.7011,-1.6955,-1.6842,-1.6581,-1.6488,-1.5836,-1.4529,-1.3459,-1.2797,-1.2621,-1.2621,-1.2621,-1.2621,-1.2621,-1.2621,-1.2621,-1.2621,-1.2621,-1.5926,-1.6879,-1.7697,-1.7069,-1.8179,-1.9176,0.0,0.0,0.0,0.0,0.0,0.0,0.0,0.0,0.0,0.0,0.0,0.0,0.0,0.0,0.0,0.0,0.0,0.0,0.0,-2.7906,-2.8066,-2.8105,-2.8478,-2.8686,-2.8536,-2.9101,-2.9272,-2.893,-2.9082,-2.8847,-2.8199,-2.7855,-2.7973,-2.8523,-2.7932,-2.7788,-2.8037,-2.7774,-2.7723,-2.7802,0.0,-2.7934,-2.8,-2.8079,-2.8131,-2.8183,-2.8183,-2.8249,-2.8406,-2.8444,-2.762,-2.6566,-2.6972,-2.6134,-2.4932,-2.5216,-2.5179,-2.4892,-2.4465,-2.4105,-2.3754,-2.2944,-2.2137,-2.1463,-2.0764,-2.0324,-2.0085,-2.0085,-2.0347,-2.0456,-2.014,-2.0347,-2.0456,-2.0129,-2.0085,-2.0085,-2.0085,-2.0085,-2.0085,-2.0085,-1.931,-1.8687,-1.8687,-1.7857,-1.7278,-1.7278,-1.7278,-1.7267,-1.7145,-1.6976,-1.6797,-1.6627,-1.5826,-1.5128,-1.4529,-1.3277,-1.2621,-1.2621,-1.2621,-1.2621,-1.2621,-1.2621,-1.2621,-1.2621,-1.2621,-1.2621,-1.5741,-1.6697,-1.7519,0.0,0.0,0.0,0.0,0.0,0.0,0.0,0.0,0.0,0.0,0.0,0.0,0.0,0.0,0.0,0.0,0.0,0.0,0.0,0.0,0.0,-2.7843,-2.7846,-2.7782,-2.7884,-2.8199,-2.8344,-2.8344,-2.8963,-2.9069,-2.8475,-2.8664,-2.8239,-2.7187,-2.7103,-2.7506,-2.8331,-2.7736,-2.7511,-2.7643,-2.7511,-2.751,-2.7666,-2.7731,-2.7731,-2.7744,-2.7956,-2.8061,-2.8163,-2.8163,-2.8147,-2.818,-2.818,-2.6918,-2.5358,-2.6457,-2.6022,-2.5032,-2.5168,-2.5127,-2.4948,-2.4593,-2.4118,-2.3636,-2.3198,-2.2506,-2.1726,-2.1103,-2.0477,-2.0107,-2.0293,-2.0511,-2.0598,-2.0162,-2.0435,-2.0587,-2.0151,-2.0085,-2.0085,-2.0085,-2.0085,-2.0085,-2.0085,-1.931,-1.8687,-1.8687,-1.7857,-1.7278,-1.7278,-1.7278,-1.7278,-1.7278,-1.6987,-1.6751,-1.6627,-1.541,-1.4706,-1.4706,-1.364,-1.2981,-1.2797,-1.2797,-1.2744,-1.2621,-1.2621,-1.2621,-1.2621,-1.2621,-1.2621,-1.5507,-1.6558,-1.7519,-1.6766,0.0,0.0,0.0,0.0,0.0,0.0,0.0,0.0,0.0,0.0,0.0,0.0,0.0,0.0,0.0,0.0,0.0,0.0,0.0,-2.6647,-2.6599,-2.681,-2.6823,-2.666,-2.7176,-2.7384,-2.7229,-2.8319,-2.8691,-2.8027,-2.8211,-2.8034,-2.7404,-2.7039,-2.6943,-2.7229,-2.6645,-2.6645,-2.715,-2.6605,-2.6427,-2.6427,-2.6551,-2.6612,-2.6653,-2.7404,-2.771,-2.7773,-2.7773,-2.7434,-2.6945,-2.6945,-2.647,-2.5928,-2.6592,-2.6022,-2.51,-2.5643,-2.5453,-2.5005,-2.4948,-2.465,-2.4176,-2.3695,-2.2725,-2.1871,-2.1809,-2.0939,-2.026,-2.0697,-2.05,-2.0129,-2.0085,-2.0107,-2.0129,-2.0085,-2.0085,-2.0085,-2.0085,-2.0085,-2.0085,-2.0085,-1.931,-1.8687,-1.8687,-1.7857,-1.7278,-1.7278,-1.7278,-1.7278,-1.7278,-1.6987,-1.6818,-1.6818,-1.5874,-1.5352,-1.5352,-1.4706,-1.4052,-1.345,-1.345,-1.3155,-1.2621,-1.2621,-1.2621,-1.2621,-1.2621,-1.2621,-1.5668,-1.6651,-1.7519,-1.6711,0.0,0.0,0.0,0.0,0.0,0.0,0.0,0.0,0.0,0.0,0.0,0.0,0.0,0.0,0.0,0.0,0.0,0.0,-2.6492,-2.6566,-2.6688,-2.6762,-2.6762,-2.6688,-2.6768,-2.6827,-2.6752,-2.718,-2.6992,-2.6042,-2.6546,-2.6337,-2.5378,-2.5558,-2.5747,-2.5786,-2.6237,-2.6537,-2.6738,-2.6524,-2.6492,-2.6627,-2.6688,-2.6688,-2.6702,-2.6992,-2.7162,-2.7162,-2.7162,-2.6782,-2.6294,-2.6687,-2.6199,-2.5426,-2.6036,-2.5697,-2.5046,-2.5276,-2.5195,-2.5005,-2.5005,-2.4478,-2.3872,-2.3989,-2.2786,-2.1446,-2.1463,-2.0803,-2.0129,-2.0369,-2.05,-2.0511,-2.014,-2.038,-2.05,-2.014,-2.0085,-2.0085,-2.0085,-2.0085,-2.0085,-2.0085,-1.9572,-1.9146,-1.9146,-1.8316,-1.7726,-1.7726,-1.7453,-1.7267,-1.7134,-1.7022,-1.6853,-1.6694,-1.5874,-1.541,-1.541,-1.4824,-1.435,-1.4112,-1.4112,-1.3812,-1.3155,-1.3155,-1.2981,-1.2621,-1.2621,-1.2621,-1.5862,-1.6707,-1.7397,0.0,0.0,0.0,0.0,0.0,0.0,0.0,0.0,0.0,0.0,0.0,0.0,0.0,0.0,0.0,0.0,0.0,0.0,0.0,-2.5827,-2.5846,-2.6226,-2.6431,-2.6548,-2.6548,-2.6329,-2.6191,-2.6031,-2.5986,-2.5561,-2.4579,-2.5057,-2.4951,-2.4137,-2.453,-2.4734,-2.4747,-2.5635,-2.6048,-2.6048,-2.6048,-2.6107,-2.6253,-2.6253,-2.6362,-2.6524,-2.6524,-2.6524,-2.6524,-2.6524,-2.6267,-2.5914,-2.6158,-2.5846,-2.5317,-2.5534,-2.5344,-2.5005,-2.5005,-2.5005,-2.5005,-2.5005,-2.4465,-2.3872,-2.4234,-2.3088,-2.1765,-2.1463,-2.0775,-2.0162,-2.0533,-2.074,-2.0773,-2.0435,-2.0631,-2.0718,-2.0172,-2.0085,-2.0085,-2.0085,-2.0085,-2.0085,-2.0085,-1.9594,-1.9189,-1.9189,-1.8359,-1.7781,-1.7781,-1.7475,-1.7211,-1.7134,-1.7011,-1.6899,-1.674,-1.6171,-1.5826,-1.571,-1.5303,-1.5001,-1.4765,-1.4588,-1.4291,-1.3812,-1.3631,-1.339,-1.3164,-1.2981,-1.2858,-1.6039,-1.671,0.0,0.0,0.0,0.0,0.0,0.0,0.0,0.0,0.0,0.0,0.0,0.0,0.0,0.0,0.0,0.0,0.0,0.0,0.0,-2.4842,-2.4365,-2.4175,-2.4937,-2.5536,-2.5879,-2.5879,-2.5735,-2.548,-2.5029,-2.4871,-2.4553,-2.4109,-2.4109,-2.4109,-2.4096,-2.4109,-2.4109,-2.4123,-2.4706,-2.4991,-2.5005,-2.5005,-2.5005,-2.5005,-2.5005,-2.5344,-2.5873,-2.5873,-2.5873,-2.5873,-2.5873,-2.5873,-2.5805,-2.5222,-2.5385,-2.5805,-2.5208,-2.5005,-2.5005,-2.5005,-2.5005,-2.5005,-2.5005,-2.465,-2.4292,-2.4292,-2.3695,-2.2907,-2.2125,-2.1019,-2.0325,-2.1352,-2.121,-2.0917,-2.0917,-2.0917,-2.0708,-2.0172,-2.0085,-2.0085,-2.0085,-2.0085,-2.0085,-2.0085,-1.9321,-1.8698,-1.8676,-1.7857,-1.7278,-1.7278,-1.7278,-1.7278,-1.7278,-1.7134,-1.7011,-1.7011,-1.6864,-1.6705,-1.6431,-1.6384,-1.6077,-1.541,-1.4824,-1.4529,-1.4529,-1.3872,-1.3863,-1.4469,-1.3812,-1.3511,-1.6395,0.0,0.0,0.0,0.0,0.0,0.0,0.0,0.0,0.0,0.0,0.0,0.0,0.0,0.0,0.0,0.0,0.0,0.0,0.0,-2.3792,-2.4152,-2.4367,-2.4413,-2.4232,-2.4417,-2.4546,-2.4627,-2.4487,-2.4563,-2.4843,-2.4413,-2.3928,-2.3409,-2.3425,-2.3229,-2.2848,-2.3229,-2.3446,-2.3446,-2.4096,-2.4598,-2.5005,-2.5005,-2.5005,-2.5005,-2.5005,-2.51,-2.5276,-2.5276,-2.5276,-2.5276,-2.5276,-2.5276,-2.5249,-2.5073,-2.5113,-2.5236,-2.5059,-2.5005,-2.5005,-2.5005,-2.5005,-2.5005,-2.5005,-2.465,-2.4292,-2.4292,-2.3446,-2.2555,-2.231,-2.1667,-2.0908,-2.0587,-2.0467,-2.0358,-2.0358,-2.0358,-2.0314,-2.0107,-2.0085,-2.0085,-2.0085,-2.0085,-2.0085,-2.0085,-1.9604,-1.896,-1.8294,-1.7966,-1.766,-1.7322,-1.7278,-1.7278,-1.7278,-1.7267,-1.7145,-1.7011,-1.6864,-1.6705,-1.6524,-1.6524,-1.641,-1.6134,-1.5904,-1.5594,-1.5118,-1.4932,-1.446,-1.3803,-1.3563,-1.3277,-1.6815,0.0,0.0,0.0,0.0,0.0,0.0,0.0,0.0,0.0,0.0,0.0,0.0,0.0,0.0,0.0,0.0,0.0,-2.3195,-2.34,-2.3709,-2.4155,-2.4296,-2.4287,-2.4248,-2.4397,-2.4555,-2.4634,-2.4517,-2.4476,-2.4418,-2.3851,-2.3259,-2.2804,-2.2592,-2.2454,-2.2305,-2.2671,-2.2861,-2.2875,-2.3419,-2.4082,-2.4666,-2.4896,-2.5005,-2.5018,-2.5249,-2.5222,-2.5032,-2.5263,-2.5222,-2.5005,-2.5005,-2.5154,-2.5331,-2.51,-2.5154,-2.5317,-2.5086,-2.5005,-2.5005,-2.5005,-2.5005,-2.5005,-2.5005,-2.4821,-2.4593,-2.4593,-2.3872,-2.3027,-2.2604,-2.2052,-2.1399,-2.0786,-2.0643,-2.0664,-2.0467,-2.0435,-2.0369,-2.0118,-2.0085,-2.0085,-2.0085,-2.0085,-2.002,-1.9824,-1.9288,-1.8654,-1.8075,-1.7835,-1.7606,-1.7311,-1.7278,-1.7278,-1.7278,-1.7278,-1.7267,-1.7145,-1.7043,-1.692,-1.6797,-1.6581,-1.6477,-1.6384,-1.6134,-1.5951,-1.5778,-1.5536,-1.5167,-1.4746,-1.4282,-1.3932,0.0,0.0,0.0,0.0,0.0,0.0,0.0,0.0,0.0,0.0,0.0,0.0,0.0,0.0,0.0,0.0,0.0,-2.3296,-2.439,-2.363,-2.3371,-2.4467,-2.4156,-2.4025,-2.4539,-2.5047,-2.5344,-2.5357,-2.5227,-2.479,-2.4019,-2.3329,-2.2783,-2.2446,-2.1792,-2.173,-2.2274,-2.2224,-2.2224,-2.2237,-2.2848,-2.3392,-2.3974,-2.4639,-2.4951,-2.5032,-2.5575,-2.5507,-2.5046,-2.5588,-2.5493,-2.5005,-2.5005,-2.5344,-2.5738,-2.5208,-2.5344,-2.5738,-2.5195,-2.5005,-2.5005,-2.5005,-2.5005,-2.5005,-2.5005,-2.5005,-2.5005,-2.4948,-2.465,-2.4047,-2.2895,-2.2273,-2.1879,-2.1438,-2.1417,-2.1341,-2.0893,-2.0795,-2.0664,-2.0162,-2.0085,-2.0085,-2.0085,-2.0085,-1.99,-1.943,-1.8622,-1.8032,-1.7955,-1.7551,-1.7278,-1.7278,-1.7278,-1.7278,-1.7278,-1.7278,-1.7278,-1.7278,-1.7278,-1.7211,-1.7011,-1.6637,-1.6431,-1.6431,-1.5826,-1.5836,-1.6431,-1.5826,-1.5874,-1.6513,-1.541,-1.5001,0.0,0.0,0.0,0.0,0.0,0.0,0.0,0.0,0.0,0.0,0.0,0.0,0.0,0.0,0.0,0.0,0.0,-2.2991,-2.3267,-2.3378,-2.3525,-2.3822,-2.404,-2.4096,-2.3881,-2.3925,-2.4045,-2.4133,-2.4045,-2.4073,-2.4357,-2.3777,-2.3393,-2.3303,-2.2459,-2.2099,-2.2225,-2.1794,-2.1613,-2.1613,-2.2224,-2.2563,-2.2726,-2.3811,-2.4557,-2.5018,-2.5141,-2.5127,-2.5018,-2.5141,-2.5127,-2.5005,-2.5005,-2.5086,-2.5181,-2.5059,-2.5086,-2.5181,-2.5059,-2.5005,-2.5005,-2.5005,-2.5005,-2.5005,-2.5005,-2.5005,-2.4948,-2.4523,-2.4408,-2.3989,-2.2786,-2.2438,-2.218,-2.1065,-2.0566,-2.0357,-2.0325,-2.0303,-2.0271,-2.0096,-2.0085,-2.0085,-2.0085,-2.0085,-1.9856,-1.8971,-1.8676,-1.8272,-1.7529,-1.7344,-1.7278,-1.7278,-1.7278,-1.7278,-1.7278,-1.7278,-1.7278,-1.7278,-1.7145,-1.7067,-1.7011,-1.6899,-1.6797,-1.6705,-1.6581,-1.6581,-1.6705,-1.6581,-1.6343,-1.6046,-1.541,-1.4874,0.0,0.0,0.0,0.0,0.0,0.0,0.0,0.0,0.0,0.0,0.0,0.0,0.0,0.0,0.0,0.0,-2.3724,-2.3551,-2.3551,-2.3767,-2.3952,-2.3952,-2.4135,-2.4219,-2.3952,-2.3952,-2.396,-2.4029,-2.3963,-2.4018,-2.4147,-2.3876,-2.3595,-2.3319,-2.283,-2.2572,-2.254,-2.203,-2.1841,-2.1921,-2.1868,-2.2034,-2.2332,-2.3268,-2.3865,-2.4164,-2.4164,-2.4164,-2.4177,-2.4462,-2.4422,-2.4218,-2.4774,-2.4829,-2.4611,-2.4896,-2.5005,-2.5005,-2.5005,-2.5005,-2.5005,-2.5005,-2.5005,-2.4951,-2.4666,-2.4584,-2.4529,-2.4292,-2.3883,-2.3354,-2.258,-2.2261,-2.1922,-2.078,-2.0464,-2.049,-2.0379,-2.0205,-2.014,-2.0324,-2.0205,-2.0009,-1.977,-1.9604,-1.9277,-1.8763,-1.8501,-1.8185,-1.7693,-1.742,-1.7278,-1.7278,-1.7278,-1.7278,-1.7278,-1.7278,-1.7278,-1.7278,-1.72,-1.7145,-1.7145,-1.7145,-1.7032,-1.6818,-1.6818,-1.6818,-1.6818,-1.6818,-1.6694,-1.6389,-1.569,-1.5284,0.0,0.0,0.0,0.0,0.0,0.0,0.0,0.0,0.0,0.0,0.0,0.0,0.0,0.0,0.0,0.0,-2.421,-2.4133,-2.4133,-2.4025,-2.3948,-2.3948,-2.3948,-2.401,-2.4117,-2.4133,-2.4179,-2.4302,-2.4302,-2.4177,-2.3925,-2.3925,-2.3724,-2.3289,-2.3201,-2.3128,-2.3068,-2.254,-2.2356,-2.2512,-2.1779,-2.1716,-2.2219,-2.2685,-2.2986,-2.3189,-2.3189,-2.3189,-2.3229,-2.3717,-2.3622,-2.3297,-2.4422,-2.4557,-2.4177,-2.4666,-2.4842,-2.4842,-2.4747,-2.4774,-2.4842,-2.4734,-2.4774,-2.4747,-2.415,-2.396,-2.396,-2.396,-2.3345,-2.259,-2.2236,-2.1884,-2.1478,-2.0626,-2.0666,-2.0886,-2.0736,-2.0464,-2.0335,-2.0571,-2.0257,-1.9802,-1.9375,-1.896,-1.8665,-1.8578,-1.825,-1.7977,-1.789,-1.7529,-1.7278,-1.7278,-1.7278,-1.7278,-1.7278,-1.7278,-1.7311,-1.7398,-1.7322,-1.7322,-1.7398,-1.7322,-1.7166,-1.6874,-1.6874,-1.6874,-1.6874,-1.6874,-1.692,-1.7022,-1.6104,-1.5768,0.0,0.0,0.0,0.0,0.0,0.0,0.0,0.0,0.0,0.0,0.0,0.0,0.0,0.0,0.0,0.0,-2.381,-2.3425,-2.3425,-2.2932,-2.2563,-2.2563,-2.2563,-2.2794,-2.3379,-2.3425,-2.3671,-2.4271,-2.4302,-2.4317,-2.4416,-2.4416,-2.44,-2.441,-2.4006,-2.3767,-2.3696,-2.2979,-2.2603,-2.2512,-2.1969,-2.1801,-2.187,-2.1724,-2.2187,-2.3189,-2.3189,-2.3189,-2.3189,-2.327,-2.3256,-2.3256,-2.3974,-2.4191,-2.4137,-2.4204,-2.4245,-2.4177,-2.3595,-2.3757,-2.415,-2.3581,-2.3757,-2.4137,-2.3473,-2.3297,-2.3297,-2.3297,-2.2964,-2.2452,-2.1724,-2.1568,-2.1428,-2.0595,-2.0785,-2.1186,-2.1117,-2.1094,-2.0967,-2.0635,-1.9982,-1.9353,-1.8862,-1.8731,-1.8556,-1.8152,-1.8043,-1.7857,-1.7431,-1.7322,-1.7278,-1.7278,-1.7278,-1.7278,-1.7278,-1.7278,-1.7453,-1.7879,-1.7508,-1.7464,-1.789,-1.7508,-1.7278,-1.7222,-1.7222,-1.7222,-1.7222,-1.7222,-1.7222,-1.7222,-1.6285,-1.5874,0.0,0.0,0.0,0.0,0.0,0.0,0.0,0.0,0.0,0.0,0.0,0.0,0.0,0.0,0.0,0.0,-2.2932,-2.2732,-2.2732,-2.2486,-2.2286,-2.2286,-2.2308,-2.2454,-2.2763,-2.2794,-2.2918,-2.3211,-2.3242,-2.3281,-2.3429,-2.3491,-2.3514,-2.3537,-2.3732,-2.3588,-2.3115,-2.2903,-2.2469,-2.1849,-2.2094,-2.1996,-2.1568,-2.1616,-2.1855,-2.2173,-2.2173,-2.2173,-2.22,-2.2576,-2.2522,-2.2319,-2.3202,-2.3418,-2.3146,-2.3446,-2.3581,-2.3541,-2.327,-2.3351,-2.3527,-2.327,-2.3365,-2.3459,-2.2902,-2.2712,-2.2661,-2.2402,-2.2036,-2.1598,-2.1046,-2.0969,-2.0909,-2.0481,-2.0665,-2.0937,-2.1141,-2.0956,-2.0529,-1.9862,-1.9122,-1.8556,-1.8348,-1.8305,-1.8141,-1.7671,-1.7835,-1.7824,-1.7333,-1.7278,-1.7278,-1.7278,-1.7278,-1.7278,-1.7278,-1.7278,-1.7366,-1.7584,-1.7398,-1.7376,-1.7584,-1.7387,-1.7278,-1.7278,-1.7278,-1.7278,-1.7278,-1.7278,-1.7278,-1.7278,-1.6637,-1.6161,0.0,0.0,0.0,0.0,0.0,0.0,0.0,0.0,0.0,0.0,0.0,0.0,0.0,0.0,0.0,0.0,-2.2147,-2.204,-2.204,-2.1886,-2.1778,-2.1778,-2.1837,-2.1972,-2.2127,-2.2195,-2.2273,-2.2443,-2.2459,-2.2496,-2.2623,-2.2666,-2.2703,-2.2739,-2.3274,-2.3284,-2.2618,-2.2685,-2.2256,-2.1355,-2.2042,-2.2024,-2.1349,-2.1582,-2.1616,-2.1423,-2.1423,-2.1423,-2.145,-2.1898,-2.1817,-2.1518,-2.259,-2.2712,-2.2359,-2.2834,-2.2945,-2.2931,-2.2782,-2.2823,-2.2931,-2.2769,-2.2823,-2.2888,-2.2264,-2.2074,-2.2024,-2.1736,-2.1328,-2.09,-2.0625,-2.0581,-2.0511,-2.0415,-2.0482,-2.0668,-2.0974,-2.0653,-2.0067,-1.9197,-1.8522,-1.8013,-1.7835,-1.7824,-1.7737,-1.7497,-1.7781,-1.7912,-1.7671,-1.7529,-1.7464,-1.7464,-1.7355,-1.7278,-1.7278,-1.7278,-1.7333,-1.7453,-1.7344,-1.7333,-1.7453,-1.7344,-1.7278,-1.7278,-1.7278,-1.7278,-1.7278,-1.7278,-1.7278,-1.7278,-1.6807,-1.6343,0.0,0.0,0.0,0.0,0.0,0.0,0.0,0.0,0.0,0.0,0.0,0.0,0.0,0.0,0.0,0.0,-2.1784,-2.1368,-2.1368,-2.0813,-2.0412,-2.0412,-2.0447,-2.0763,-2.1383,-2.1564,-2.1895,-2.2549,-2.2596,-2.2602,-2.2703,-2.2703,-2.2755,-2.288,-2.2927,-2.2875,-2.2703,-2.2377,-2.1985,-2.1499,-2.1642,-2.1552,-2.1192,-2.1356,-2.1423,-2.1423,-2.1423,-2.1423,-2.1423,-2.145,-2.145,-2.1477,-2.2101,-2.2332,-2.2305,-2.2346,-2.2359,-2.2278,-2.1708,-2.1884,-2.2264,-2.1694,-2.1898,-2.2237,-2.164,-2.1464,-2.1464,-2.1415,-2.1109,-2.0799,-2.0799,-2.0616,-2.0407,-2.0382,-2.0482,-2.061,-2.061,-2.0379,-1.9878,-1.908,-1.8612,-1.8157,-1.7444,-1.7322,-1.7464,-1.7901,-1.7988,-1.8152,-1.8556,-1.8239,-1.7966,-1.7966,-1.7562,-1.7278,-1.7278,-1.7278,-1.7475,-1.7944,-1.754,-1.7486,-1.7944,-1.7529,-1.7278,-1.7278,-1.7278,-1.7278,-1.7278,-1.7278,-1.7278,-1.7278,-1.6807,-1.6343,0.0,0.0,0.0,0.0,0.0,0.0,0.0,0.0,0.0,0.0,0.0,0.0,0.0,0.0,0.0,0.0,-2.0864,-2.0709,-2.0709,-2.0562,-2.0426,-2.0426,-2.0509,-2.0686,-2.092,-2.0986,-2.1111,-2.1346,-2.1362,-2.1396,-2.1415,-2.1468,-2.1503,-2.1537,-2.1995,-2.2248,-2.2197,-2.1807,-2.1461,-2.1174,-2.1289,-2.1312,-2.1243,-2.1162,-2.1199,-2.1423,-2.1423,-2.1423,-2.1423,-2.1423,-2.1423,-2.1437,-2.1654,-2.1735,-2.1735,-2.1735,-2.1735,-2.1708,-2.1491,-2.1559,-2.1708,-2.1491,-2.1572,-2.1694,-2.1491,-2.1423,-2.1361,-2.1104,-2.0908,-2.0696,-2.0156,-1.9962,-1.9797,-1.9531,-1.9743,-1.989,-1.9631,-1.9345,-1.901,-1.8504,-1.8292,-1.8013,-1.7412,-1.7688,-1.801,-1.7977,-1.8261,-1.8501,-1.8665,-1.8545,-1.8338,-1.8043,-1.7846,-1.7617,-1.7311,-1.7278,-1.7355,-1.7529,-1.7376,-1.7355,-1.7529,-1.7366,-1.7278,-1.7278,-1.7278,-1.7278,-1.7278,-1.7278,-1.7278,-1.7278,-1.7099,-1.6807,0.0,0.0,0.0,0.0,0.0,0.0,0.0,0.0,0.0,0.0,0.0,0.0,0.0,0.0,0.0,0.0,0.0,-2.0388,-2.0388,-2.0475,-2.0494,-2.0494,-2.061,-2.0693,-2.0693,-2.0726,-2.0744,-2.0744,-2.0744,0.0,-2.0744,-2.0777,-2.0794,-2.0794,-2.1268,-2.1521,-2.1521,-2.1283,-2.1007,-2.0809,-2.0923,-2.1137,-2.1341,-2.1086,-2.1213,-2.1664,-2.1471,-2.1423,-2.1423,-2.1423,-2.1423,-2.1423,-2.1423,-2.1423,-2.1423,-2.1423,-2.1423,-2.1423,-2.1423,-2.1423,-2.1423,-2.1423,-2.1423,-2.1423,-2.1423,-2.1423,-2.1313,-2.1055,-2.1006,-2.0858,-2.0156,-1.9811,-1.9512,-1.9093,-1.9198,-1.9356,-1.904,-1.8881,-1.8614,-1.8356,-1.8247,-1.8084,-1.7545,-1.799,-1.8358,-1.8265,-1.8632,-1.8993,-1.9157,-1.9037,-1.8753,-1.8283,-1.8097,-1.7813,-1.7322,-1.7278,-1.7278,-1.7278,-1.7278,-1.7278,-1.7278,-1.7278,-1.7278,-1.7278,-1.7278,-1.7278,-1.7278,-1.7278,-1.7278,-1.7278,-1.7278,-1.7043,0.0,0.0,0.0,0.0,0.0,0.0,0.0,0.0,0.0,0.0,0.0,0.0,0.0,0.0,0.0,0.0,0.0,-2.0423,-2.0423,-2.0475,-2.0527,-2.0527,-2.0644,-2.0726,-2.0726,-2.0777,-2.0794,-2.0794,-2.0794,-2.0794,-2.0794,-2.0794,-2.0794,-2.0794,-2.0794,-2.0794,-2.0794,-2.0794,-2.0679,-2.041,-2.067,-2.0985,-2.138,-2.1154,-2.1493,-2.2156,-2.165,-2.1423,-2.1423,-2.1423,-2.1423,-2.1423,-2.1423,-2.1423,-2.1423,-2.1423,-2.1423,-2.1423,-2.1423,-2.1423,-2.1423,-2.1423,-2.1423,-2.1423,-2.1423,-2.1423,-2.1423,-2.1375,-2.1361,-2.1264,-2.0858,-2.0156,-1.946,-1.9093,-1.8987,-1.8987,-1.8987,-1.8987,-1.8934,-1.8667,-1.8614,-1.8398,-1.7822,-1.8103,-1.8469,-1.8671,-1.9102,-1.9594,-2.002,-1.9672,-1.9244,-1.8742,-1.8294,-1.7824,-1.7322,-1.7278,-1.7278,-1.7278,-1.7278,-1.7278,-1.7278,-1.7278,-1.7278,-1.7278,-1.7278,-1.7278,-1.7278,-1.7278,-1.7278,-1.7278,-1.7278,-1.7043,-1.8007,0.0,0.0,0.0,0.0,0.0,0.0,0.0,0.0,0.0,0.0,0.0,0.0,0.0,0.0,0.0,0.0,-2.0579,-2.0878,-2.1007,-2.1183,-2.1417,-2.1479,-2.1402,-2.1167,-2.1151,-2.1055,0.0,-2.0794,-2.0794,-2.0794,-2.0794,-2.0794,-2.0794,-2.0794,-2.0794,-2.0794,-2.0794,-2.0761,-2.0695,-2.0424,-2.0582,-2.1084,-2.0765,-2.0936,-2.1555,-2.1458,-2.1423,-2.1423,-2.1423,-2.1423,-2.1423,-2.1423,-2.1423,-2.1423,-2.1423,-2.1423,-2.1423,-2.1423,-2.1423,-2.1423,-2.1423,-2.1423,-2.1423,-2.1423,-2.1423,-2.1313,-2.1055,-2.0957,-2.0809,-2.0105,-1.9552,-1.9146,-1.904,-1.8987,-1.8987,-1.8987,-1.8987,-1.8934,-1.8667,-1.8774,-1.8721,-1.8084,-1.844,-1.8827,-1.897,-1.9225,-1.9594,-2.002,-1.9966,-1.9626,-1.8785,-1.8578,-1.8174,-1.7344,-1.7278,-1.7278,-1.7278,-1.7278,-1.7278,-1.7278,-1.7278,-1.7278,-1.7278,-1.7278,-1.7278,-1.7278,-1.7278,-1.7278,-1.7278,-1.7278,-1.7222,0.0,0.0,0.0,0.0,0.0,0.0,-1.9271,-1.9765,-1.998,0.0,0.0,0.0,0.0,0.0,0.0,0.0,0.0,-2.0646,-2.1039,-2.1214,-2.1433,-2.1751,-2.1797,-2.1721,-2.1526,-2.1495,-2.1371,-2.1023,-2.1023,-2.0958,-2.0794,-2.0794,-2.0794,-2.0794,-2.0794,-2.0794,-2.0794,-2.0794,-2.0794,-2.0794,-2.0494,-2.0747,-2.15,-2.1017,-2.1184,-2.1804,-2.1627,-2.152,-2.1423,-2.1423,-2.1423,-2.1423,-2.1423,-2.1423,-2.1423,-2.1423,-2.1423,-2.1423,-2.1423,-2.1423,-2.1423,-2.1423,-2.1423,-2.1423,-2.1423,-2.1423,-2.1361,-2.1118,-2.0957,-2.0696,-2.0207,-1.9708,-1.9251,-1.9251,-1.9093,-1.8987,-1.8987,-1.8987,-1.8934,-1.8774,-1.8881,-1.8827,-1.841,-1.8719,-1.8988,-1.8798,-1.9277,-1.9577,-1.9528,-1.9714,-1.9473,-1.8512,-1.8403,-1.8185,-1.7628,-1.7584,-1.766,-1.7857,-1.7868,-1.7868,-1.7868,-1.7682,-1.7584,-1.7584,-1.7387,-1.7278,-1.7278,-1.7278,-1.7278,-1.7278,-1.7278,-1.7278,0.0,0.0,0.0,0.0,0.0,0.0,-1.8269,-1.9148,-1.9595,-1.7068,0.0,0.0,0.0,0.0,0.0,0.0,0.0,-2.0618,-2.107,-2.1245,-2.1495,-2.1811,-2.1886,-2.1869,-2.184,-2.184,-2.1721,-2.1371,-2.1309,-2.1151,-2.0827,-2.0794,-2.0794,-2.0794,-2.0794,-2.0794,-2.0794,-2.0794,-2.0794,-2.0794,-2.0823,-2.1307,-2.2125,-2.1734,-2.1883,-2.2457,-2.1988,-2.1664,-2.1423,-2.1423,-2.1423,-2.1423,-2.1423,-2.1423,-2.1423,-2.1423,-2.1423,-2.1423,-2.1423,-2.1423,-2.1423,-2.1423,-2.1423,-2.1423,-2.1423,-2.1423,-2.1375,-2.1375,-2.1055,-2.0759,-2.0759,-2.0156,-1.9617,-1.9617,-1.9303,-1.8987,-1.8987,-1.8987,-1.8987,-1.8987,-1.8987,-1.8934,-1.8667,-1.8948,-1.9041,-1.852,-1.9179,-1.9516,-1.8879,-1.9102,-1.9015,-1.8174,-1.8032,-1.7988,-1.7933,-1.7977,-1.8174,-1.8589,-1.8665,-1.8687,-1.8687,-1.825,-1.801,-1.801,-1.7529,-1.7311,-1.7355,-1.7311,-1.7278,-1.7278,-1.7278,-1.7278,0.0,0.0,0.0,0.0,0.0,0.0,-1.9891,-2.0144,-2.0131,0.0,0.0,0.0,0.0,0.0,0.0,0.0,0.0,0.0,-2.1149,-2.1526,-2.1811,-2.2096,-2.2354,-2.2409,-2.2153,-2.2124,-2.2027,-2.1721,-2.1464,-2.1151,-2.0827,-2.0794,-2.0794,-2.0794,-2.0794,-2.0794,-2.0794,-2.0794,-2.0794,-2.081,-2.1395,-2.1736,-2.1882,-2.2143,-2.2283,-2.225,-2.1931,-2.1664,-2.1423,-2.1423,-2.1423,-2.1423,-2.1423,-2.1423,-2.1423,-2.1423,-2.1423,-2.1423,-2.1423,-2.1423,-2.1423,-2.1423,-2.1423,-2.1423,-2.1423,-2.1423,-2.1313,-2.1006,-2.061,-2.0321,-2.0321,-1.9965,-1.9617,-1.9617,-1.9303,-1.8987,-1.8987,-1.8987,-1.8987,-1.8987,-1.8987,-1.8987,-1.8934,-1.8804,-1.8744,-1.8827,-1.8758,-1.8848,-1.9189,-1.9015,-1.8763,-1.8578,-1.8228,-1.7846,-1.7453,-1.7781,-1.8043,-1.813,-1.848,-1.8687,-1.8687,-1.825,-1.801,-1.801,-1.7529,-1.7475,-1.7857,-1.7464,-1.7278,-1.7278,-1.7278,-1.7278,0.0,0.0,0.0,-2.0373,0.0,0.0,0.0,-2.046,-2.0385,-2.0172,-1.9951,-1.9406,0.0,0.0,0.0,0.0,0.0,0.0,-2.0355,-2.1217,-2.1824,-2.1898,-2.2365,-2.2642,-2.2463,-2.2446,-2.2254,-2.184,-2.1324,-2.099,-2.0794,-2.0794,-2.0794,-2.0794,-2.0794,-2.0794,-2.0794,-2.0794,-2.0794,-2.081,-2.1503,-2.1866,-2.2014,-2.2543,-2.2772,-2.2731,-2.2338,-2.2016,-2.1793,-2.152,-2.1423,-2.1423,-2.1423,-2.1423,-2.1423,-2.1423,-2.1423,-2.1423,-2.1423,-2.1423,-2.1423,-2.1423,-2.1423,-2.1423,-2.1423,-2.1423,-2.1375,-2.1166,-2.097,-2.0772,-2.0772,-2.0372,-1.9926,-1.9926,-1.946,-1.8987,-1.8987,-1.8987,-1.8987,-1.8987,-1.8987,-1.8987,-1.8987,-1.8881,-1.8815,-1.8748,-1.8668,-1.8633,-1.8552,-1.8408,-1.825,-1.801,-1.7781,-1.7696,-1.7844,-1.8065,-1.832,-1.8504,-1.8795,-1.8918,-1.9037,-1.8381,-1.801,-1.801,-1.7529,-1.7518,-1.801,-1.7518,-1.7278,-1.7278,-1.7278,-1.7278,0.0,0.0,0.0,0.0,0.0,-2.0561,0.0,0.0,0.0,-2.0555,-2.0189,0.0,0.0,0.0,0.0,0.0,0.0,0.0,0.0,-2.0439,0.0,-2.1516,-2.1867,-2.2281,-2.2677,-2.2712,-2.248,-2.1928,-2.1324,-2.0942,-2.0893,-2.0827,-2.0794,-2.0794,-2.0794,-2.0794,-2.0794,-2.0794,-2.0761,-2.0777,-2.1509,-2.202,-2.2301,-2.2983,-2.3269,-2.3216,-2.2694,-2.2342,-2.1996,-2.1568,-2.1423,-2.1423,-2.1423,-2.1423,-2.1423,-2.1423,-2.1423,-2.1423,-2.1423,-2.1423,-2.1423,-2.1423,-2.1423,-2.1423,-2.1423,-2.1423,-2.1423,-2.1423,-2.1423,-2.1361,-2.1313,-2.0723,-2.0182,-2.008,-1.9512,-1.8987,-1.8987,-1.9071,-1.9107,-1.9011,-1.9155,-1.9263,-1.9155,-1.9143,-1.9036,-1.8767,-1.8911,-1.8747,-1.8013,-1.7956,-1.7838,-1.7687,-1.7444,-1.7577,-1.8315,-1.8406,-1.8585,-1.9048,-1.9171,-1.9287,-1.9452,-1.8665,-1.8156,-1.801,-1.7617,-1.7606,-1.801,-1.7518,-1.7278,-1.7278,-1.7278,-1.7333,0.0,0.0,0.0,0.0,-2.0628,0.0,0.0,0.0,-2.0572,-1.9877,0.0,0.0,0.0,0.0,0.0,0.0,0.0,0.0,-1.7548,-1.8958,-2.0432,-2.1068,-2.0514,-2.0722,-2.2539,-2.2712,-2.2561,-2.2164,-2.1853,-2.1556,-2.1246,-2.0958,-2.0794,-2.0794,-2.0794,-2.0794,-2.0794,-2.0744,-2.0726,-2.0742,-2.1925,-2.2508,-2.2596,-2.3554,-2.3634,-2.3024,-2.2649,-2.2109,-2.1471,-2.1423,-2.1423,-2.1423,-2.1423,-2.1423,-2.1423,-2.1423,-2.1423,-2.1423,-2.1423,-2.1423,-2.1423,-2.1423,-2.1423,-2.1423,-2.1423,-2.1423,-2.1423,-2.1423,-2.1423,-2.1326,-2.0957,-2.0523,-2.0131,-1.9759,-1.9356,-1.8987,-1.8987,-1.936,-1.9552,-1.9083,-1.9744,-2.0294,-1.9768,-1.9696,-1.9641,-1.9344,-1.9336,-1.9179,-1.8816,-1.8137,-1.8047,-1.8792,-1.7942,-1.7577,-1.8315,-1.8406,-1.8554,-1.8908,-1.9285,-1.9559,-1.9568,-1.9205,-1.8652,-1.801,-1.7955,-1.7955,-1.801,-1.7518,-1.7278,-1.7278,-1.7278,-1.7508,0.0,0.0,0.0,0.0,0.0,0.0,-2.123,0.0,-2.1289,0.0,0.0,0.0,0.0,0.0,0.0,0.0,-1.8413,0.0,0.0,0.0,-1.9218,0.0,0.0,0.0,-2.1325,-2.1216,-2.0688,-1.9681,-2.0792,-2.1075,-2.0038,-2.048,-2.0794,-2.0794,-2.0794,-2.0794,-2.0794,-2.0744,-2.0693,-2.0709,-2.1916,-2.2496,-2.2506,-2.3412,-2.3638,-2.3319,-2.2603,-2.217,-2.1841,-2.152,-2.1423,-2.1423,-2.1423,-2.1423,-2.1423,-2.1423,-2.1423,-2.1423,-2.1423,-2.1423,-2.1423,-2.1423,-2.1423,-2.1423,-2.1423,-2.1423,-2.1423,-2.1423,-2.1423,-2.1326,-2.0894,-2.051,-2.008,-1.972,-1.946,-1.9356,-1.9356,-1.9986,-2.0511,-2.0285,-2.0655,-2.1043,-2.1129,-2.0625,-2.0097,-1.9686,-1.9483,-1.9371,-1.9202,-1.8724,-1.8351,-1.8305,-1.8519,-1.8578,-1.826,-1.8668,-1.8939,-1.8748,-1.9044,-1.8965,-1.851,-1.8643,-1.8467,-1.801,-1.7726,-1.7846,-1.8403,-1.7933,-1.7835,-1.8086,-1.7529,-1.754,-2.0595,0.0,0.0,0.0,0.0,0.0,0.0,0.0,0.0,0.0,0.0,0.0,0.0,0.0,0.0,0.0,0.0,-1.7828,0.0,0.0,0.0,0.0,0.0,0.0,0.0,-2.0191,-1.9796,-1.8246,-1.9623,-2.0105,-1.9192,-1.9827,-2.0399,-2.0778,-2.0794,-2.0794,-2.0794,-2.0744,-2.0787,-2.0957,-2.1937,-2.2477,-2.2655,-2.3296,-2.3508,-2.3377,-2.254,-2.2137,-2.1949,-2.1568,-2.1423,-2.1423,-2.1423,-2.1423,-2.1423,-2.1423,-2.1423,-2.1423,-2.1423,-2.1423,-2.1423,-2.1423,-2.1423,-2.1423,-2.1423,-2.1423,-2.1423,-2.1423,-2.1423,-2.1326,-2.0894,-2.056,-2.0271,-1.9862,-1.9759,-1.9759,-1.9759,-2.046,-2.1014,-2.0861,-2.1214,-2.1549,-2.1649,-2.1153,-2.0694,-2.0286,-1.9948,-1.9705,-1.9551,-1.9247,-1.8815,-1.8225,-1.8943,-1.9206,-1.8469,-1.8896,-1.9038,-1.8744,-1.8869,-1.8629,-1.7986,-1.8385,-1.8418,-1.8032,-1.7876,-1.8049,-1.861,-1.8353,-1.8359,-1.8665,-1.7857,-1.7813,0.0,0.0,0.0,-2.1214,0.0,0.0,0.0,0.0,-2.1797,0.0,0.0,0.0,0.0,0.0,0.0,0.0,0.0,0.0,0.0,0.0,0.0,0.0,0.0,0.0,0.0,-2.0257,-2.0911,-1.9361,-1.8848,-1.8856,-1.9454,-1.9033,-1.9388,-2.0747,-2.0794,-2.0794,-2.0794,-2.0744,-2.1004,-2.1588,-2.2133,-2.2724,-2.3286,-2.3507,-2.3334,-2.2889,-2.2402,-2.1902,-2.1423,-2.1423,-2.1423,-2.1423,-2.1423,-2.1423,-2.1423,-2.1423,-2.1423,-2.1423,-2.1423,-2.1423,-2.1423,-2.1423,-2.1423,-2.1423,-2.1423,-2.1423,-2.1423,-2.1423,-2.1423,-2.1326,-2.0894,-2.0795,-2.066,-2.0271,-2.0182,-2.0182,-2.0182,-2.0616,-2.0859,-2.031,-2.1154,-2.1634,-2.066,-2.097,-2.1368,-2.1356,-2.0923,-2.0394,-1.9853,-1.9527,-1.9359,-1.9268,-1.9066,-1.9021,-1.9268,-1.8865,-1.8744,-1.8987,-1.9011,-1.8851,-1.856,-1.901,-1.889,-1.8118,-1.8699,-1.8829,-1.844,-1.8566,-1.8676,-1.8676,-1.8206,-1.848,0.0,0.0,-2.0893,-2.1214,0.0,0.0,0.0,0.0,0.0,0.0,0.0,0.0,0.0,0.0,0.0,0.0,0.0,0.0,0.0,0.0,0.0,0.0,0.0,0.0,0.0,0.0,-1.8504,-1.6471,-1.8163,-1.8906,-1.802,-1.9515,-2.0527,-2.0778,-2.0744,-2.0744,-2.0794,-2.0628,-2.0936,-2.1619,-2.2133,-2.274,-2.3277,-2.3167,-2.3068,-2.2844,-2.203,-2.1568,-2.1423,-2.1423,-2.1423,-2.1423,-2.1423,-2.1423,-2.1423,-2.1423,-2.1423,-2.1423,-2.1423,-2.1423,-2.1423,-2.1423,-2.1423,-2.1423,-2.1423,-2.1423,-2.1423,-2.1423,-2.1423,-2.1326,-2.0894,-2.0795,-2.0709,-2.0271,-2.0422,-2.061,-2.061,-2.127,-2.1743,-2.1288,-2.1902,-2.2274,-2.1624,-2.1433,-2.1404,-2.1404,-2.126,-2.1067,-2.0875,-2.0447,-1.9975,-1.9406,-1.979,-1.9696,-1.8889,-1.8881,-1.8881,-1.8987,-1.8987,-1.8881,-1.8614,-1.8724,-1.8585,-1.8096,-1.8442,-1.8684,-1.8851,-1.872,-1.8851,-1.9157,-1.8676,-1.8807,-2.0794,-2.0794,0.0,-2.1214,-2.1309,0.0,-2.1924,0.0,-2.2113,0.0,0.0,0.0,0.0,0.0,0.0,0.0,0.0,0.0,0.0,-2.0636,0.0,0.0,0.0,0.0,0.0,0.0,-1.7711,-1.4606,-1.7428,-1.8954,0.0,-1.9585,-2.0558,-2.0974,-2.081,-2.0744,-2.0761,-2.0644,-2.1011,-2.1874,-2.2242,-2.2825,-2.3631,-2.3314,-2.3068,-2.2844,-2.203,-2.1568,-2.1423,-2.1423,-2.1423,-2.1423,-2.1423,-2.1423,-2.1423,-2.1423,-2.1423,-2.1423,-2.1423,-2.1423,-2.1423,-2.1423,-2.1423,-2.1423,-2.1423,-2.1423,-2.1423,-2.1423,-2.1423,-2.1313,-2.1055,-2.1006,-2.0957,-2.0673,-2.0809,-2.1006,-2.1006,-2.1399,-2.173,-2.1592,-2.1729,-2.1863,-2.1906,-2.1584,-2.1352,-2.1368,-2.1247,-2.1174,-2.1338,-2.0931,-2.0406,-1.9853,-2.0105,-1.9905,-1.8845,-1.8881,-1.8987,-1.8987,-1.8987,-1.8934,-1.8774,-1.8952,-1.9034,-1.8958,-1.9218,-1.9397,-1.9584,-1.9304,-1.9138,-1.9157,-1.9015,-1.9113]},{"header":{"parameterUnit":"m.s-1","parameterCategory":1,"la1":30.6,"la2":29.2853,"lo1":-89.7004,"lo2":-87.6739,"dy":0.0162,"dx":0.0183,"nx":112,"ny":82,"refTime":"2023-07-23T18:00:00:Z","depth":0,"parameterNumber":3,"parameterNumberName":"V-component_of_WINDS"},"data":[0.0,0.0,0.0,0.0,0.0,0.0,0.0,0.0,0.0,0.0,0.0,0.0,0.0,0.0,0.0,0.0,0.0,0.0,0.0,0.0,0.0,0.0,0.0,0.0,0.0,0.0,0.0,0.0,0.0,0.0,0.0,0.0,0.0,0.0,0.0,0.0,0.0,0.0,0.0,0.0,0.0,0.0,0.0,0.0,0.0,0.0,0.0,0.0,0.0,0.0,0.0,0.0,0.0,0.0,0.0,0.0,0.0,0.0,0.0,0.0,0.0,0.0,0.0,0.0,0.0,0.0,0.0,0.0,0.0,0.0,0.0,0.0,0.0,0.0,0.0,0.0,0.0,0.0,0.0,0.0,0.0,0.0,0.0,0.0,0.0,0.0,0.0,0.0,0.0,0.0,-1.5419,-1.6425,-1.9009,-2.0449,-1.992,-2.0507,-2.0285,-1.8823,0.0,0.0,0.0,0.0,0.0,0.0,0.0,0.0,0.0,0.0,0.0,0.0,0.0,0.0,0.0,0.0,0.0,0.0,0.0,0.0,0.0,0.0,0.0,0.0,0.0,0.0,0.0,0.0,0.0,0.0,0.0,0.0,0.0,0.0,0.0,0.0,0.0,0.0,0.0,0.0,0.0,0.0,0.0,0.0,0.0,0.0,0.0,0.0,0.0,0.0,0.0,0.0,0.0,0.0,0.0,0.0,0.0,0.0,0.0,0.0,0.0,0.0,0.0,0.0,0.0,0.0,0.0,0.0,0.0,0.0,0.0,0.0,0.0,0.0,0.0,0.0,0.0,0.0,0.0,0.0,0.0,0.0,0.0,0.0,0.0,0.0,0.0,0.0,0.0,0.0,0.0,0.0,0.0,0.0,0.0,0.0,0.0,0.0,0.0,0.0,0.0,0.0,0.0,0.0,-1.6973,-1.9142,-1.9763,-2.02,-2.0586,-2.0289,-1.9734,-1.8914,0.0,0.0,0.0,0.0,0.0,0.0,0.0,0.0,0.0,0.0,0.0,0.0,0.0,0.0,0.0,0.0,0.0,0.0,0.0,0.0,0.0,0.0,0.0,0.0,0.0,0.0,0.0,0.0,0.0,0.0,0.0,0.0,0.0,0.0,0.0,0.0,0.0,0.0,0.0,0.0,0.0,0.0,0.0,0.0,0.0,0.0,0.0,0.0,0.0,0.0,0.0,0.0,0.0,0.0,0.0,0.0,0.0,0.0,0.0,0.0,0.0,0.0,0.0,0.0,0.0,0.0,0.0,0.0,0.0,0.0,0.0,0.0,0.0,0.0,0.0,0.0,0.0,0.0,0.0,0.0,0.0,0.0,0.0,0.0,0.0,0.0,0.0,0.0,0.0,0.0,0.0,0.0,0.0,0.0,0.0,0.0,0.0,0.0,0.0,0.0,0.0,0.0,0.0,-1.6725,-1.7678,-1.9344,-1.9867,-2.0405,-2.1059,-2.0569,-2.0047,-1.9685,-1.9405,0.0,0.0,0.0,0.0,0.0,0.0,0.0,0.0,0.0,0.0,0.0,0.0,0.0,0.0,0.0,0.0,0.0,0.0,0.0,0.0,0.0,0.0,0.0,0.0,0.0,0.0,0.0,0.0,0.0,0.0,0.0,0.0,0.0,0.0,0.0,0.0,0.0,0.0,0.0,0.0,0.0,0.0,0.0,0.0,0.0,0.0,0.0,0.0,0.0,0.0,0.0,0.0,0.0,0.0,0.0,0.0,0.0,0.0,0.0,0.0,0.0,0.0,0.0,0.0,0.0,0.0,0.0,0.0,0.0,0.0,0.0,0.0,0.0,0.0,0.0,0.0,0.0,0.0,0.0,0.0,0.0,0.0,0.0,0.0,0.0,0.0,0.0,0.0,0.0,0.0,0.0,0.0,0.0,0.0,0.0,0.0,0.0,0.0,0.0,0.0,0.0,0.0,-1.7681,-1.8118,-1.9295,-1.9805,-2.0371,-2.1079,-2.0567,-2.016,-2.0043,-1.9709,0.0,0.0,0.0,0.0,0.0,0.0,0.0,0.0,0.0,0.0,0.0,0.0,0.0,0.0,0.0,0.0,0.0,0.0,0.0,0.0,0.0,0.0,0.0,0.0,0.0,0.0,0.0,0.0,0.0,0.0,0.0,0.0,0.0,0.0,0.0,0.0,0.0,0.0,0.0,0.0,0.0,0.0,0.0,0.0,0.0,0.0,0.0,0.0,0.0,0.0,0.0,0.0,0.0,0.0,0.0,0.0,0.0,0.0,0.0,0.0,0.0,0.0,0.0,0.0,0.0,0.0,0.0,0.0,0.0,0.0,0.0,0.0,0.0,0.0,0.0,0.0,0.0,0.0,0.0,0.0,0.0,0.0,0.0,0.0,0.0,0.0,0.0,0.0,0.0,0.0,0.0,0.0,0.0,0.0,0.0,0.0,0.0,0.0,0.0,0.0,0.0,0.0,-1.829,-1.8515,-2.023,-1.9787,-1.9648,-2.0335,-1.9778,-1.935,-1.9292,-1.9412,0.0,0.0,0.0,0.0,0.0,0.0,0.0,0.0,0.0,0.0,0.0,0.0,0.0,0.0,0.0,0.0,0.0,0.0,0.0,0.0,0.0,0.0,0.0,0.0,0.0,0.0,0.0,0.0,0.0,0.0,0.0,0.0,0.0,0.0,0.0,0.0,0.0,0.0,0.0,0.0,0.0,0.0,0.0,0.0,0.0,0.0,0.0,0.0,0.0,0.0,0.0,0.0,0.0,0.0,0.0,0.0,0.0,0.0,0.0,0.0,0.0,0.0,0.0,0.0,0.0,0.0,0.0,0.0,0.0,0.0,0.0,0.0,0.0,0.0,0.0,0.0,0.0,0.0,0.0,0.0,0.0,0.0,0.0,0.0,0.0,0.0,0.0,0.0,0.0,0.0,0.0,0.0,0.0,0.0,0.0,0.0,0.0,0.0,0.0,0.0,0.0,0.0,-1.8875,-1.9023,0.0,-1.9473,-1.9402,-1.965,-1.9442,-1.9308,-1.9329,0.0,0.0,0.0,0.0,0.0,0.0,0.0,0.0,0.0,0.0,0.0,0.0,0.0,0.0,0.0,0.0,0.0,0.0,0.0,0.0,0.0,0.0,0.0,0.0,0.0,0.0,0.0,0.0,0.0,0.0,0.0,0.0,0.0,0.0,0.0,0.0,0.0,0.0,0.0,0.0,0.0,0.0,0.0,0.0,0.0,0.0,0.0,0.0,0.0,0.0,0.0,0.0,0.0,0.0,0.0,0.0,0.0,0.0,0.0,0.0,0.0,0.0,0.0,0.0,0.0,0.0,0.0,0.0,0.0,0.0,0.0,0.0,0.0,0.0,0.0,0.0,0.0,0.0,0.0,0.0,0.0,0.0,0.0,0.0,0.0,0.0,0.0,0.0,0.0,0.0,0.0,0.0,0.0,0.0,0.0,0.0,0.0,0.0,0.0,0.0,0.0,0.0,-1.9119,-1.9148,-1.923,0.0,-1.9308,-1.9305,-1.9305,-1.9305,-1.9323,-1.939,0.0,0.0,0.0,0.0,0.0,0.0,0.0,0.0,0.0,0.0,0.0,0.0,0.0,0.0,0.0,0.0,0.0,0.0,0.0,0.0,0.0,0.0,0.0,0.0,0.0,0.0,0.0,0.0,0.0,0.0,0.0,0.0,0.0,0.0,0.0,0.0,0.0,0.0,0.0,0.0,0.0,0.0,0.0,0.0,0.0,0.0,0.0,0.0,0.0,0.0,0.0,0.0,0.0,0.0,0.0,0.0,0.0,0.0,0.0,0.0,0.0,0.0,0.0,0.0,0.0,0.0,0.0,0.0,0.0,0.0,0.0,0.0,0.0,0.0,0.0,0.0,0.0,0.0,0.0,0.0,0.0,0.0,0.0,0.0,0.0,0.0,0.0,0.0,0.0,0.0,0.0,0.0,0.0,0.0,0.0,0.0,0.0,0.0,0.0,0.0,0.0,0.0,-1.936,-1.912,-1.9087,-1.9285,-1.9311,-1.9289,-1.9305,-1.9305,-1.9323,0.0,0.0,0.0,0.0,0.0,0.0,0.0,0.0,0.0,0.0,0.0,0.0,0.0,0.0,0.0,0.0,0.0,0.0,0.0,0.0,0.0,0.0,0.0,0.0,0.0,0.0,0.0,0.0,0.0,0.0,0.0,0.0,0.0,0.0,0.0,0.0,0.0,0.0,0.0,0.0,0.0,0.0,0.0,0.0,0.0,0.0,0.0,0.0,0.0,0.0,0.0,0.0,0.0,0.0,0.0,0.0,0.0,0.0,0.0,0.0,0.0,0.0,0.0,0.0,0.0,0.0,0.0,0.0,0.0,0.0,0.0,0.0,0.0,0.0,0.0,0.0,0.0,0.0,0.0,0.0,0.0,0.0,0.0,0.0,0.0,0.0,0.0,0.0,0.0,0.0,0.0,0.0,0.0,0.0,0.0,0.0,0.0,0.0,0.0,0.0,0.0,0.0,0.0,-2.0144,-1.9429,-1.9017,-1.9266,-1.9298,-1.9295,-1.9289,-1.9305,-1.9305,-1.9323,0.0,0.0,0.0,0.0,0.0,0.0,0.0,0.0,0.0,0.0,0.0,0.0,0.0,0.0,0.0,0.0,0.0,0.0,0.0,0.0,0.0,0.0,0.0,0.0,0.0,0.0,0.0,0.0,0.0,0.0,0.0,0.0,0.0,0.0,0.0,0.0,0.0,0.0,0.0,0.0,0.0,0.0,0.0,0.0,0.0,0.0,0.0,0.0,0.0,0.0,0.0,0.0,0.0,0.0,0.0,0.0,0.0,0.0,0.0,0.0,0.0,0.0,0.0,0.0,0.0,0.0,0.0,0.0,0.0,0.0,0.0,0.0,0.0,0.0,0.0,0.0,0.0,0.0,0.0,0.0,0.0,0.0,0.0,0.0,0.0,0.0,0.0,0.0,0.0,0.0,0.0,0.0,0.0,0.0,0.0,0.0,0.0,0.0,0.0,0.0,0.0,0.0,-2.0913,-1.9721,-1.9074,-1.9638,-1.9451,-1.9282,-1.9311,-1.9311,-1.9261,-1.9196,0.0,0.0,0.0,0.0,0.0,0.0,0.0,0.0,0.0,0.0,0.0,0.0,0.0,0.0,0.0,0.0,0.0,0.0,0.0,0.0,0.0,0.0,0.0,0.0,0.0,0.0,0.0,0.0,0.0,0.0,0.0,0.0,0.0,0.0,0.0,0.0,0.0,0.0,0.0,0.0,0.0,0.0,0.0,0.0,0.0,0.0,0.0,0.0,0.0,0.0,0.0,0.0,0.0,0.0,0.0,0.0,0.0,0.0,0.0,0.0,0.0,0.0,0.0,0.0,0.0,0.0,0.0,0.0,0.0,0.0,0.0,0.0,0.0,0.0,0.0,0.0,0.0,0.0,0.0,0.0,0.0,0.0,0.0,0.0,0.0,0.0,0.0,0.0,0.0,0.0,0.0,0.0,0.0,0.0,0.0,0.0,0.0,0.0,0.0,0.0,0.0,0.0,-2.1662,-2.0101,-1.9309,-2.0208,-1.9696,-1.9292,-1.9301,-1.9301,-1.9216,-1.9031,0.0,0.0,0.0,0.0,0.0,0.0,0.0,0.0,0.0,0.0,0.0,0.0,0.0,0.0,0.0,0.0,0.0,0.0,0.0,0.0,0.0,0.0,0.0,0.0,0.0,0.0,0.0,0.0,0.0,0.0,0.0,0.0,0.0,0.0,0.0,0.0,0.0,0.0,0.0,0.0,0.0,0.0,0.0,0.0,0.0,0.0,0.0,0.0,0.0,0.0,0.0,0.0,0.0,0.0,0.0,0.0,0.0,0.0,0.0,0.0,-1.7773,0.0,0.0,0.0,0.0,0.0,0.0,0.0,0.0,0.0,0.0,0.0,0.0,0.0,0.0,0.0,0.0,0.0,0.0,0.0,0.0,0.0,0.0,0.0,0.0,0.0,0.0,0.0,0.0,0.0,0.0,0.0,0.0,0.0,0.0,0.0,0.0,0.0,0.0,0.0,0.0,0.0,-2.2405,-2.124,-2.035,-2.0318,-2.0153,-1.9842,-1.9273,-1.9266,-1.9282,-1.9251,-1.7499,0.0,0.0,0.0,0.0,0.0,0.0,0.0,0.0,0.0,0.0,0.0,0.0,0.0,0.0,0.0,0.0,0.0,0.0,0.0,0.0,0.0,0.0,0.0,0.0,0.0,0.0,0.0,0.0,0.0,0.0,0.0,0.0,0.0,0.0,0.0,0.0,0.0,0.0,0.0,0.0,0.0,0.0,0.0,0.0,0.0,0.0,0.0,0.0,0.0,0.0,0.0,0.0,0.0,0.0,0.0,0.0,0.0,0.0,0.0,0.0,-1.8876,0.0,0.0,0.0,0.0,0.0,0.0,0.0,0.0,0.0,0.0,0.0,0.0,0.0,0.0,0.0,0.0,0.0,0.0,0.0,0.0,0.0,0.0,0.0,0.0,0.0,0.0,0.0,0.0,0.0,0.0,0.0,0.0,0.0,0.0,0.0,0.0,0.0,0.0,0.0,0.0,-2.3004,-2.1736,-2.0714,-2.0557,-2.0278,-1.9813,-1.9071,-1.9117,-1.9184,-1.9101,-1.792,0.0,0.0,0.0,0.0,0.0,0.0,0.0,0.0,0.0,0.0,0.0,0.0,0.0,0.0,0.0,0.0,0.0,0.0,0.0,0.0,0.0,0.0,0.0,0.0,0.0,0.0,0.0,0.0,0.0,0.0,0.0,0.0,0.0,0.0,0.0,0.0,0.0,0.0,0.0,0.0,0.0,0.0,0.0,0.0,0.0,0.0,0.0,0.0,0.0,0.0,0.0,0.0,0.0,-2.4232,-2.5209,-2.5673,-2.5673,-2.5938,-2.6187,-2.2635,-2.085,-2.0467,-2.0307,0.0,0.0,0.0,0.0,0.0,0.0,0.0,0.0,0.0,0.0,0.0,0.0,0.0,0.0,0.0,0.0,0.0,0.0,0.0,0.0,0.0,0.0,-2.1426,-2.1513,-2.1963,-2.2405,-2.246,0.0,0.0,0.0,0.0,0.0,0.0,0.0,0.0,0.0,0.0,0.0,-2.3343,-2.2036,-2.0992,-2.0864,-2.0413,-1.975,-1.886,-1.8947,-1.8998,-1.8895,-1.85,-1.7583,0.0,0.0,0.0,0.0,0.0,0.0,0.0,0.0,0.0,0.0,0.0,0.0,0.0,0.0,0.0,0.0,0.0,0.0,0.0,0.0,0.0,0.0,0.0,0.0,0.0,0.0,0.0,0.0,0.0,0.0,0.0,0.0,-1.9204,-1.9303,0.0,0.0,0.0,0.0,0.0,0.0,0.0,0.0,0.0,0.0,0.0,0.0,0.0,-2.2427,-2.4365,-2.5723,-2.6488,-2.6604,-2.8009,-2.8439,-2.7942,-2.7942,-2.7644,-2.7135,-2.6554,0.0,-2.3431,-2.2178,0.0,0.0,0.0,0.0,0.0,0.0,0.0,0.0,0.0,0.0,0.0,0.0,0.0,0.0,0.0,0.0,0.0,0.0,0.0,0.0,0.0,0.0,-2.2158,-2.2186,-2.2243,-2.231,-2.2338,-2.2405,-2.2515,-2.2515,-2.2694,-2.2833,0.0,0.0,0.0,0.0,0.0,0.0,-2.3098,-2.2735,-2.2084,-2.116,-2.0975,-2.0354,-1.8931,-1.8807,-1.8825,-1.8807,-1.6908,-1.6661,-1.8606,-1.5007,0.0,0.0,0.0,0.0,0.0,0.0,0.0,0.0,0.0,0.0,0.0,0.0,0.0,0.0,0.0,0.0,0.0,0.0,0.0,0.0,0.0,0.0,0.0,0.0,0.0,0.0,0.0,0.0,0.0,-1.9415,-1.9926,-1.9072,-1.9992,-2.0439,0.0,0.0,0.0,0.0,0.0,0.0,0.0,0.0,0.0,-2.4249,-2.5077,-2.5955,-2.6949,-2.7959,-2.8688,-2.9102,-3.0145,-3.0709,-3.0808,-3.0808,-3.0626,-3.0294,-2.9897,-2.9168,-2.808,-2.5029,-2.3562,-2.324,0.0,0.0,0.0,0.0,-2.3318,-2.3318,-2.3254,-2.2768,-2.2178,-2.2178,0.0,0.0,0.0,0.0,0.0,0.0,0.0,-2.1759,0.0,0.0,-2.2372,-2.2818,-2.2598,-2.231,-2.231,-2.231,-2.2338,-2.2394,-2.247,-2.2552,-2.2525,0.0,0.0,0.0,0.0,-2.2721,-2.2876,-2.2632,-2.2141,-2.125,-2.1388,-2.1106,-2.0017,-1.9642,-1.9469,-1.9469,-1.7986,-1.7043,-1.6951,-1.6211,-1.6439,0.0,0.0,0.0,0.0,0.0,0.0,0.0,0.0,0.0,0.0,0.0,0.0,0.0,0.0,0.0,0.0,0.0,0.0,0.0,0.0,0.0,0.0,0.0,0.0,0.0,0.0,0.0,0.0,-2.0158,-2.0489,-1.923,-2.0704,-2.1582,0.0,0.0,0.0,0.0,0.0,0.0,-2.4265,-2.5342,-2.6369,-2.728,-2.8357,-2.9102,-2.9483,-3.0179,-3.0808,-3.1371,-3.21,-3.2746,-3.3243,-3.3243,-3.3143,-3.2945,-3.2415,-3.1967,-3.1338,-2.7549,-2.5711,-2.5196,-2.4863,-2.4612,-2.4477,-2.4445,-2.4462,-2.4428,-2.4228,-2.3927,-2.3625,-2.3441,-2.2856,-2.2283,-2.2283,0.0,0.0,0.0,0.0,-2.2245,-2.3278,-2.2992,-2.2572,-2.3199,-2.2912,-2.2456,-2.2271,-2.218,-2.218,-2.2254,-2.2282,-2.2254,-2.2237,0.0,0.0,0.0,0.0,-2.2579,-2.2596,-2.2432,-2.2061,-2.1455,-2.1631,-2.1534,-2.0855,-2.0386,-2.0023,-1.981,-1.9102,-1.7906,-1.6189,-1.7449,-1.7671,-1.6538,0.0,0.0,0.0,0.0,0.0,0.0,0.0,0.0,0.0,0.0,0.0,0.0,0.0,0.0,0.0,0.0,0.0,0.0,0.0,0.0,0.0,0.0,0.0,0.0,0.0,0.0,0.0,0.0,0.0,-2.0699,-2.3123,0.0,0.0,0.0,0.0,-2.5938,-2.6617,-2.7367,-2.8097,-2.8213,-2.8853,-3.0261,-3.0377,-3.1073,-3.2464,-3.3193,-3.3591,-3.364,-3.4386,-3.475,-3.4783,-3.4783,-3.4402,-3.3723,-3.3707,-3.2895,-3.1411,-2.9152,-2.8251,-2.816,-2.6726,-2.583,-2.523,-2.5163,-2.5129,-2.5029,-2.4282,-2.4497,-2.4963,-2.4297,-2.3579,-2.3053,-2.3053,-2.2551,0.0,0.0,-2.2534,-2.2333,-2.379,-2.3622,-2.307,-2.3103,-2.3087,-2.2869,-2.2178,-2.2027,-2.2044,0.0,-2.2214,-2.2152,-2.2044,0.0,-2.2242,-2.2242,-2.2242,-2.2254,-2.231,-2.231,-2.2197,-2.1888,-2.1655,-2.1319,-2.0855,-2.0547,-2.0062,-1.928,-1.9194,-1.8986,-1.8627,-1.7273,-1.7317,-1.8988,-1.82,0.0,0.0,0.0,0.0,0.0,0.0,0.0,0.0,0.0,0.0,0.0,0.0,0.0,0.0,0.0,0.0,0.0,0.0,0.0,0.0,0.0,0.0,0.0,0.0,0.0,0.0,0.0,0.0,-2.3503,-2.5706,0.0,-2.5476,-2.6468,-2.733,-2.7595,-2.8257,-2.893,-2.9593,-3.0516,-3.1473,-3.2356,-3.2804,-3.339,-3.4011,-3.4275,-3.4407,-3.4502,-3.4767,-3.4899,-3.4899,-3.4899,-3.475,-3.4502,-3.4502,-3.4203,-3.3591,-3.1851,-3.0352,-2.8976,-2.8014,-2.752,-2.7271,-2.7288,-2.7251,-2.7135,-2.6405,-2.6007,-2.5642,-2.4431,-2.3866,-2.3699,-2.3699,-2.3516,-2.335,-2.3616,-2.3499,-2.3533,-2.4563,-2.4296,-2.3746,-2.3792,-2.3455,-2.2902,-2.2149,-2.1969,-2.1957,-2.2003,-2.2094,-2.2168,-2.2152,-2.2209,-2.2254,-2.2214,-2.2242,-2.2271,-2.2225,-2.2282,-2.2248,-2.2165,-2.2349,-2.2347,-2.2044,-2.1607,-2.1207,-2.077,-2.0257,-1.9929,-1.9826,-1.9575,-1.9503,-1.965,-1.793,-1.8474,0.0,0.0,0.0,0.0,0.0,0.0,0.0,0.0,0.0,0.0,0.0,0.0,0.0,0.0,0.0,0.0,0.0,0.0,0.0,0.0,0.0,0.0,0.0,0.0,0.0,0.0,-2.5657,-2.6082,-2.8103,-2.9085,-2.807,-2.8903,-2.9682,-3.0137,-3.0558,-3.1292,-3.2377,-3.2932,-3.3524,-3.4168,-3.4709,-3.507,-3.5119,-3.5366,-3.5415,-3.5263,-3.5263,-3.5131,-3.4899,-3.4899,-3.4899,-3.4899,-3.4899,-3.4899,-3.4783,-3.3292,-3.1967,-3.0775,-2.9566,-2.8953,-2.8738,-2.8738,-2.8738,-2.8622,-2.7931,-2.7015,-2.6054,-2.506,-2.458,-2.4381,-2.4381,-2.4199,-2.405,-2.4299,-2.4199,-2.4249,-2.5261,-2.4996,-2.4464,-2.448,-2.4129,-2.3579,-2.2829,-2.2432,-2.2235,-2.2235,-2.2158,-2.2094,-2.2065,-2.2123,-2.2163,-2.2152,-2.2152,-2.218,-2.2214,-2.2209,-2.2248,-2.2315,-2.2579,-2.2712,-2.2668,-2.2297,-2.1857,-2.1404,-2.1024,-2.0653,-2.0347,-2.1079,-2.0998,-1.9929,-1.6913,-1.7715,-2.2483,0.0,0.0,0.0,0.0,0.0,0.0,0.0,0.0,0.0,0.0,0.0,0.0,0.0,0.0,0.0,0.0,0.0,0.0,0.0,0.0,0.0,0.0,0.0,-2.4664,-2.6928,-2.8483,-2.8382,-3.036,-3.1137,-2.965,-3.0856,-3.2276,-3.359,-3.3719,-3.4577,-3.6512,-3.5416,-3.5086,-3.5811,-3.5927,-3.6042,-3.6042,-3.6754,-3.6754,-3.6042,-3.6009,-3.5628,-3.4932,-3.4899,-3.4899,-3.4899,-3.4899,-3.4899,-3.4783,-3.3326,-3.3127,-3.3541,-3.1371,-3.0096,-2.9483,-2.945,-2.9433,-2.9317,-2.8655,-2.7479,-2.6286,-2.6286,-2.5789,-2.5209,-2.5209,-2.4696,-2.4249,-2.4978,-2.4646,-2.4398,-2.5839,-2.5673,-2.5143,-2.511,-2.511,-2.4911,-2.4166,-2.3421,-2.2891,-2.2891,-2.2355,-2.1869,-2.1811,-2.1869,-2.1911,-2.1998,-2.194,0.0,-2.2168,-2.2089,-2.2096,-2.2385,-2.2287,-2.2293,-2.2588,-2.2415,-2.1944,-2.1103,-2.1413,-2.1221,-2.0309,-2.1595,-2.159,-2.0052,-1.544,-1.6668,-2.4008,0.0,0.0,0.0,0.0,0.0,0.0,0.0,0.0,0.0,0.0,0.0,0.0,0.0,0.0,0.0,0.0,0.0,0.0,0.0,0.0,0.0,0.0,-2.6067,-2.7265,-2.9711,-3.1545,-3.2044,-3.3604,-3.4492,-3.4206,-3.4473,-3.5036,-3.5926,-3.5859,-3.6055,-3.6626,-3.635,-3.6219,-3.6432,-3.6483,-3.6483,-3.6483,-3.6697,-3.6664,-3.6434,-3.5925,-3.563,-3.5514,-3.4987,-3.4804,-3.4899,-3.4899,-3.4899,-3.4816,-3.3872,-3.3292,-3.2829,-3.1172,-3.0725,-3.0957,-3.041,-2.988,-2.9383,-2.9201,-2.8539,-2.7793,-2.7793,-2.7644,-2.7479,-2.7479,-2.6965,-2.6419,-2.6617,-2.6154,-2.569,-2.6104,-2.6054,-2.5773,-2.5243,-2.511,-2.4911,-2.4166,-2.3421,-2.2891,-2.2891,-2.2325,-2.184,-2.1869,-2.194,-2.1969,-2.194,-2.194,0.0,-2.1974,-2.1969,-2.2073,-2.2248,-2.2349,-2.2377,-2.2321,-2.2377,-2.2248,-2.177,-2.1838,-2.1919,-2.1936,-2.2447,-2.2739,-2.2715,-2.1478,-2.1861,0.0,0.0,0.0,0.0,0.0,0.0,0.0,0.0,0.0,0.0,0.0,0.0,0.0,0.0,0.0,0.0,0.0,0.0,0.0,0.0,0.0,0.0,-2.6685,-2.892,-3.0826,-3.1983,-3.3126,-3.4595,-3.5629,-3.6256,-3.6189,-3.6138,-3.6434,-3.7068,-3.6823,-3.6869,-3.7399,-3.7019,-3.6875,-3.7012,-3.7187,-3.7187,-3.7118,-3.7429,-3.7249,-3.6643,-3.6233,-3.5776,-3.5218,-3.4889,-3.4739,-3.4804,-3.4899,-3.4899,-3.4833,-3.4087,-3.3723,0.0,0.0,0.0,0.0,0.0,-3.0046,-2.9417,-2.9417,-2.8953,-2.8412,-2.8412,-2.8412,-2.8412,-2.8412,-2.8113,-2.7715,-2.74,-2.6982,-2.6584,-2.6286,-2.622,-2.6104,-2.5673,-2.5574,-2.5458,-2.5027,-2.41,-2.3354,-2.3354,-2.251,0.0,-2.184,-2.1899,-2.1911,-2.1899,-2.1911,-2.1911,-2.1899,-2.1911,-2.1957,-2.202,-2.2163,-2.2203,-2.2077,-2.222,0.0,0.0,0.0,-2.2385,-2.2857,-2.3032,0.0,0.0,0.0,-2.3894,-2.3912,-2.3915,0.0,0.0,-2.3976,-2.4016,0.0,0.0,0.0,0.0,0.0,0.0,0.0,0.0,0.0,0.0,0.0,0.0,0.0,0.0,0.0,0.0,-2.9637,-3.1818,-3.4311,-3.3745,-3.3912,-3.6231,-3.6806,-3.6858,-3.6564,-3.6653,-3.6947,-3.7606,-3.7257,-3.7416,-3.8383,0.0,0.0,0.0,0.0,-3.7978,-3.7785,-3.8423,-3.8112,-3.6869,-3.6705,-3.5953,-3.4726,-3.4676,-3.4691,-3.4707,-3.4851,-3.4899,-3.4849,-3.4187,-3.4203,-3.4452,-3.2497,-3.1239,-3.0526,-3.0526,-3.0112,-2.9533,-2.9533,0.0,0.0,-2.8622,-2.8622,-2.8622,-2.8622,-2.8555,-2.834,-2.7649,-2.7367,-2.7151,-2.6402,-2.622,-2.622,-2.622,-2.622,-2.622,-2.622,-2.511,-2.41,-2.4017,-2.2874,-2.1897,-2.1797,-2.1797,-2.1811,-2.1899,-2.184,-2.1811,-2.1899,-2.184,-2.1781,-2.1811,0.0,0.0,-2.1899,-2.194,-2.1969,-2.1882,-2.222,-2.2695,-2.3277,-2.3376,-2.3553,-2.3813,-2.3795,-2.3795,-2.3795,-2.3795,-2.3795,-2.3795,-2.3917,-2.3976,0.0,0.0,0.0,0.0,0.0,0.0,0.0,0.0,0.0,0.0,0.0,0.0,0.0,0.0,0.0,-2.844,-3.0191,-3.2123,-3.4149,-3.4814,-3.5663,-3.7102,-3.7329,-3.7367,-3.7441,-3.7351,-3.7622,-3.8355,-3.8715,-3.8829,-3.8593,-3.8909,-3.8972,-3.8553,-3.8592,-3.8553,-3.8404,-3.8551,-3.843,-3.8082,0.0,0.0,-3.5994,-3.4871,-3.4497,-3.4691,-3.4756,-3.4804,-3.4883,-3.475,-3.4054,-3.3061,-3.2646,-3.1669,-3.0526,-3.0526,-3.0427,-3.0311,-3.0311,-3.0212,-3.0096,-3.0096,-3.0096,-3.0096,-3.0096,-2.9682,0.0,-2.8357,-2.7765,-2.7151,-2.6402,-2.622,-2.622,-2.622,-2.622,-2.622,-2.622,-2.5524,-2.4713,-2.4116,-2.3288,-2.2493,-2.1897,-2.1797,-2.1781,-2.1827,-2.1811,-2.1781,-2.1811,-2.1811,-2.1811,-2.1869,-2.1899,-2.1899,-2.1899,-2.1911,-2.1899,-2.1811,-2.2341,-2.2815,-2.3194,-2.3486,-2.37,-2.3807,-2.3807,-2.3789,-2.3795,-2.3795,-2.3795,-2.3795,-2.3816,-2.3876,0.0,0.0,0.0,0.0,0.0,0.0,0.0,0.0,0.0,0.0,0.0,-2.5617,0.0,0.0,-3.0206,-3.1868,-3.3123,-3.453,-3.6167,-3.7064,-3.7518,-3.7454,-3.7785,-3.8079,-3.8062,-3.8023,-3.8277,-3.8991,-3.9397,-3.9592,-3.956,-3.9691,-3.9732,-3.9658,-3.903,-3.8779,-3.9056,-3.8699,-3.827,-3.7841,-3.6805,-3.6092,-3.5776,-3.4738,-3.4349,-3.4497,-3.4643,-3.4739,-3.4804,-3.4899,-3.4021,-3.268,-3.268,-3.1802,-3.0526,-3.0526,-3.0526,-3.0526,-3.0526,-3.0526,-3.0526,-3.0526,-3.0526,-3.0526,-3.0526,-2.9996,-2.9268,-2.8572,-2.7881,-2.7151,-2.6402,-2.622,-2.622,-2.622,-2.622,-2.622,-2.622,-2.5624,-2.4994,-2.463,-2.3653,-2.2775,-2.241,-2.2344,-2.2228,-2.1847,-2.1797,-2.1797,-2.1797,-2.1797,-2.1811,-2.184,-2.184,-2.184,-2.184,-2.184,-2.1882,-2.1982,-2.2439,-2.2849,-2.3206,-2.3481,-2.3696,-2.3804,-2.3804,-2.3807,-2.3795,-2.3795,-2.3795,-2.3795,-2.3795,-2.3816,0.0,0.0,0.0,0.0,0.0,0.0,0.0,0.0,-2.4189,-2.4849,-2.6547,-2.8332,-2.9726,-3.1235,-3.2948,-3.5024,-3.5928,-3.6746,-3.7694,-3.8523,-3.8529,-3.7364,-3.8129,-3.8666,-3.8408,-3.8391,-3.8651,-3.9233,-3.9641,-3.9982,-4.027,-4.0245,-4.0335,-4.048,-3.9381,-3.9008,-3.9476,-3.8764,-3.81,-3.7517,-3.6837,-3.6108,-3.5364,-3.4737,-3.443,-3.43,-3.4594,-3.4691,-3.4691,-3.4835,-3.4021,-3.2696,-3.2696,-3.1758,-3.0485,-3.0485,-3.0526,-3.0526,-3.0526,-3.0526,-3.0526,-3.0526,-3.0526,-3.0493,-3.0344,-2.988,-2.9234,-2.8406,-2.7765,-2.7151,-2.6402,-2.622,-2.622,-2.622,-2.622,-2.622,-2.622,-2.574,-2.5276,-2.5143,-2.4149,-2.3272,-2.3139,-2.3106,-2.2857,-2.2112,-2.1996,-2.1996,-2.1996,-2.188,-2.1797,-2.1797,-2.1797,-2.1797,-2.1797,-2.1797,-2.194,-2.2292,-2.2554,-2.2884,-2.323,-2.3476,-2.3629,-2.3761,-2.3783,-2.3786,-2.3813,-2.3795,-2.3795,-2.3795,-2.3795,-2.3795,-2.1003,-2.0886,-2.1409,-2.3136,-2.3194,-2.3731,0.0,0.0,-2.7534,-2.8739,-3.0524,-3.1758,-3.138,-3.3296,-3.5024,-3.5314,-3.5892,-3.6166,-3.5795,-3.6839,-3.7325,-3.66,-3.8193,-3.9161,-3.8472,-3.8391,-3.8424,-3.8521,-3.9671,-4.0156,-3.9622,-4.0751,-4.114,-4.0513,-3.9752,-3.9453,-3.9476,-3.8764,-3.8359,-3.8278,-3.7549,-3.6837,-3.6157,-3.5448,-3.4818,-3.43,-3.4594,-3.4691,-3.4691,-3.4835,-3.4008,-3.2611,-3.2611,-3.1704,-3.0401,-3.0485,-3.0526,-3.0526,-3.0526,-3.0526,-3.0526,-3.0526,-3.0526,-3.0394,-2.9731,-2.9483,-2.9135,-2.7777,-2.7367,-2.7151,-2.6402,-2.622,-2.622,-2.622,-2.622,-2.622,-2.622,-2.6154,-2.5889,-2.5243,-2.4978,-2.4646,-2.3984,-2.3884,-2.3619,-2.2891,-2.2775,-2.2775,-2.2775,-2.2195,-2.1797,-2.1797,-2.1797,-2.1797,-2.1797,-2.1797,-2.2044,-2.2607,-2.266,-2.2935,-2.3448,-2.3494,-2.3539,-2.3607,-2.3678,-2.3743,-2.3786,-2.3792,-2.3795,-2.3795,-2.3795,-2.3795,-2.2164,-2.2672,0.0,0.0,-2.5923,-2.7345,-2.9334,-3.0161,-3.0669,-3.1192,-3.2542,-3.3529,-3.3253,-3.4385,-3.5604,0.0,-3.6722,-3.6924,-3.7098,-3.76,-3.7679,-3.703,-3.7732,-3.8278,-3.8391,-3.8019,-3.8116,-3.8974,-3.993,-4.0561,-4.0691,-4.1257,-4.1436,-4.1128,-4.0059,-3.9476,-3.9476,-3.8764,-3.8391,-3.8391,-3.7274,-3.6578,-3.627,-3.5088,-3.4443,-3.43,-3.4399,-3.4497,-3.4561,-3.4182,-3.3425,-3.2426,-3.1999,-3.1194,-3.0274,-3.0401,-3.0485,-3.0468,-3.0443,-3.0485,-3.0468,-3.0443,-3.0485,-3.046,-3.0145,-2.9764,-2.9284,-2.8688,-2.8224,-2.7881,-2.7545,-2.7147,-2.6833,-2.6833,-2.6518,-2.622,-2.622,-2.622,-2.612,-2.5806,-2.5408,-2.5011,-2.4696,-2.4646,-2.4547,-2.4232,-2.3818,-2.3537,-2.3537,-2.2891,-2.2278,-2.1847,-2.1797,-2.1797,-2.1797,-2.1797,-2.2073,-2.2677,-2.2703,-2.2935,-2.3494,-2.3494,-2.3539,-2.3585,-2.3629,-2.3696,-2.3804,-2.3807,-2.3792,-2.3795,-2.3795,-2.3795,-2.3322,0.0,0.0,-2.6605,-2.8652,-3.064,-3.1453,-3.2498,-3.3296,-3.3296,-3.4037,-3.4617,-3.4443,-3.4791,-3.5473,-3.6591,-3.6925,-3.7171,-3.749,-3.7797,-3.7631,-3.672,-3.6685,-3.6961,-3.7504,-3.739,-3.7744,-3.8796,-3.9881,-4.0723,-4.1241,-4.1646,-4.1776,-4.1642,-4.0399,-3.9671,-3.9476,-3.857,-3.81,-3.8084,-3.6886,-3.6189,-3.5946,-3.4683,-3.4151,-3.425,-3.43,-3.4349,-3.4382,-3.3711,-3.3006,-3.2256,-3.1536,-3.08,-3.0162,-3.0231,-3.0359,-3.0401,-3.0359,-3.0359,-3.0401,-3.0359,-3.0359,-3.0393,-3.0195,-2.9725,-2.9287,-2.9088,-2.8675,-2.8279,-2.8279,-2.7883,-2.7486,-2.754,-2.7143,-2.6713,-2.6551,-2.6501,-2.6452,-2.6253,-2.5789,-2.5408,-2.5408,-2.5408,-2.5408,-2.5408,-2.4961,-2.453,-2.4332,-2.3487,-2.2692,-2.2145,-2.1913,-2.1797,-2.1797,-2.1797,-2.214,-2.2953,-2.2807,-2.3022,-2.3815,-2.3601,-2.3517,-2.3562,-2.3585,-2.3652,-2.3765,-2.3804,-2.3789,-2.3795,-2.3795,-2.3795,0.0,0.0,-2.7171,-2.9044,-3.0988,-3.2759,-3.4008,-3.4806,-3.5339,-3.5339,-3.5369,-3.514,-3.453,-3.4428,-3.4661,-3.5314,-3.5938,-3.6112,-3.5572,-3.6469,-3.6575,-3.4688,-3.4974,-3.5299,0.0,-3.6573,-3.7339,-3.7371,-3.9314,-4.0496,-4.0529,-4.184,-4.2278,-4.1598,-4.0853,-4.014,-3.9493,-3.8068,-3.7355,-3.7355,-3.6643,-3.593,-3.5185,-3.4441,-3.4101,-3.4101,-3.425,-3.43,-3.4251,-3.3663,-3.2912,-3.2118,-3.1385,-3.0668,-3.0017,-3.0017,-3.0119,-3.0189,-3.0189,-3.0189,-3.0189,-3.0189,-3.0189,-3.0058,-2.9353,-2.9124,-2.896,-2.824,-2.8027,-2.801,-2.801,-2.7994,-2.8017,-2.8129,-2.8168,-2.7993,-2.7396,-2.7284,-2.7048,-2.6352,-2.6187,-2.6187,-2.6187,-2.6187,-2.6187,-2.6187,-2.617,-2.5889,-2.5176,-2.3802,-2.2891,-2.2857,-2.2228,-2.1797,-2.1797,-2.1797,-2.2358,-2.3695,-2.3101,-2.3292,-2.4599,-2.3927,-2.3494,-2.3517,-2.3562,-2.3629,-2.37,-2.3783,-2.3789,-2.3795,-2.3795,-2.3795,0.0,0.0,-3.0218,-3.157,-3.3454,-3.5256,-3.6127,-3.6432,-3.6259,-3.5392,-3.4138,-3.2941,-3.1873,-3.1797,-3.2222,-3.3296,-3.437,-3.5125,-3.5343,-3.5681,-3.5398,-3.3903,-3.3833,0.0,0.0,0.0,0.0,-3.7242,-3.8877,-4.0011,-4.0464,-4.1857,-4.2083,-4.0901,-4.0626,-3.9703,-3.8068,-3.7566,-3.7096,-3.6643,-3.5898,-3.5169,-3.4457,-3.4214,-3.4101,-3.4101,-3.4151,-3.3891,-3.347,-3.2739,-3.2024,-3.1313,-3.107,-3.0535,-3.0011,-3.0437,-3.0352,-2.9989,-3.006,-3.0103,-3.0189,-3.0119,-3.0103,-3.014,-2.991,-2.9828,-2.9779,-2.9534,-2.9452,-2.9452,-2.9452,-2.9108,-2.8731,-2.8788,-2.8411,-2.804,-2.7927,-2.7498,-2.7123,-2.6965,-2.6535,-2.622,-2.622,-2.622,-2.622,-2.622,-2.622,-2.5938,-2.5193,-2.4679,-2.4166,-2.3686,-2.3404,-2.3255,-2.3255,-2.3255,-2.362,-2.4465,-2.4315,-2.4303,-2.4688,-2.4444,-2.4052,-2.3494,-2.3517,-2.3562,-2.3629,-2.37,-2.3765,-2.3789,-2.3813,-2.3795,-2.7211,-2.9918,-3.2587,-3.3719,-3.5382,-3.6822,-3.7038,-3.6821,-3.6086,-3.4347,-3.2479,-3.0769,-2.9504,-2.9016,-2.932,-3.0841,-3.2144,-3.334,-3.4225,-3.4669,-3.455,-3.3543,-3.3785,-3.4042,0.0,0.0,0.0,-3.6886,-3.8748,-4.0027,-4.0464,-4.1857,-4.197,-4.0529,-4.0496,-3.959,-3.7728,-3.7209,-3.6465,-3.5509,-3.5024,-3.4554,-3.4101,-3.4101,-3.4101,-3.4101,-3.4101,-3.3858,-3.3372,-3.24,-3.1737,-3.1283,-3.0978,-3.0652,-3.0328,-3.1056,-3.0862,-3.0214,-3.0027,-3.0033,-3.0109,-3.0282,-3.0245,-3.0125,-3.0386,-3.0272,-3.0076,-3.0076,-3.0076,-3.0125,-3.0386,-2.9913,-2.9482,-2.9744,-2.9237,-2.869,-2.8566,-2.7981,-2.7427,-2.7238,-2.6664,-2.622,-2.622,-2.622,-2.622,-2.622,-2.622,-2.6038,-2.5557,-2.5259,-2.4928,-2.4448,-2.4166,-2.4,-2.4,-2.4,-2.4374,-2.5286,-2.5045,-2.5087,-2.549,-2.5247,-2.4855,-2.4337,-2.407,-2.3968,-2.4014,-2.3799,-2.3721,-2.3804,-2.3792,-2.3795,-2.9494,-3.1989,-3.4212,-3.5467,-3.6636,-3.741,-3.6782,-3.6082,-3.4868,-3.2382,-3.0387,-2.8641,0.0,0.0,-2.6289,-2.815,-2.9682,-3.1076,-3.2382,-3.3579,-3.409,0.0,0.0,0.0,0.0,0.0,0.0,-3.6362,0.0,-4.0464,-4.0485,-4.1779,-4.1938,-4.0529,-4.0464,-3.9768,-3.8359,-3.695,-3.5542,-3.4165,-3.4117,-3.4101,-3.4101,-3.4101,-3.4101,-3.4101,-3.4101,-3.4084,-3.3955,-3.2611,-3.2044,-3.1947,-3.1299,-3.0978,-3.1073,-3.1785,-3.1607,-3.0895,-3.0214,-2.9999,-3.0036,-3.0749,-3.0506,-3.0097,-3.0765,-3.049,-2.9983,-3.0016,-3.0032,-3.0134,-3.0749,-3.0425,-3.0129,-3.0868,-3.0521,-2.9837,-2.9263,-2.8681,-2.8014,-2.7311,-2.6644,-2.622,-2.627,-2.6236,-2.622,-2.622,-2.622,-2.622,-2.622,-2.5607,-2.5176,-2.5176,-2.453,-2.4116,-2.4116,-2.4116,-2.4708,-2.6074,-2.5454,-2.5593,-2.6934,-2.6264,-2.5854,-2.58,-2.5122,-2.4772,-2.4807,-2.4105,-2.3775,-2.3786,-2.3792,-2.3795,-3.1392,-3.3845,-3.608,-3.6713,-3.6874,-3.6768,-3.6139,-3.4341,-3.2364,-3.0785,-2.821,-2.5952,0.0,0.0,0.0,-2.7504,-2.971,0.0,-3.3035,-3.3893,0.0,-3.3594,0.0,-3.4655,-3.4678,-3.5707,0.0,0.0,-3.8717,-3.9935,-4.0467,-4.1383,-4.1436,-4.0529,-4.0011,-3.9039,-3.7614,-3.6173,-3.5283,-3.4894,-3.436,-3.4101,-3.4101,-3.4101,-3.4101,-3.4101,-3.4101,-3.3809,-3.3323,-3.2967,-3.2498,-3.2044,-3.24,-3.2206,-3.1817,-3.2546,-3.2352,-3.1704,-3.1526,-3.1105,-3.0781,-3.1494,-3.1235,-3.0797,-3.151,-3.1235,-3.0765,-3.1316,-3.1461,-3.138,-3.0978,-3.0797,-3.0571,-3.0259,-3.0048,-2.9897,-2.9789,-2.9228,-2.8576,-2.803,-2.7007,-2.6385,-2.6916,-2.6568,-2.622,-2.622,-2.622,-2.622,-2.622,-2.6054,-2.5938,-2.5938,-2.5756,-2.564,-2.564,-2.564,-2.6017,-2.6888,-2.6747,-2.6725,-2.6987,-2.68,-2.6407,-2.5818,-2.5622,-2.5247,-2.4736,-2.4592,-2.4249,-2.3721,-2.3786,-2.381,-3.3269,-3.5232,-3.6793,-3.6801,-3.6424,-3.5676,-3.4228,-3.2103,-2.9845,-2.7781,-2.5505,0.0,0.0,0.0,0.0,0.0,0.0,0.0,-3.1884,-3.2941,-3.3761,0.0,-3.4873,0.0,-3.6125,-3.7076,-3.7816,0.0,-3.8984,-3.9771,-4.0498,-4.0912,-4.0919,-4.0513,-3.9833,-3.8649,-3.6886,-3.5506,-3.4698,-3.4365,-3.3683,-3.3507,-3.3697,-3.3697,-3.3866,-3.4101,0.0,-3.389,-3.3518,-3.321,-3.2854,-3.2514,-3.2935,-3.2838,-3.2562,-3.3275,-3.308,-3.253,-3.2821,-3.2465,-3.1947,-3.2352,-3.1996,-3.1526,-3.2255,-3.1979,-3.1477,-3.1898,-3.2012,-3.1915,-3.151,-3.1154,-3.083,-3.0425,-3.0085,-2.9902,-2.9946,-2.9404,-2.8771,-2.827,-2.7333,-2.6726,-2.7214,-2.6684,-2.622,-2.622,-2.622,-2.622,-2.622,-2.622,-2.622,-2.622,-2.622,-2.622,-2.622,-2.6329,-2.6589,-2.6956,-2.7117,-2.7222,-2.7295,-2.7305,-2.7165,-2.6871,-2.6514,-2.5943,-2.5176,-2.4927,-2.4405,-2.37,-2.3768,-2.3991,-3.4801,-3.6107,-3.6838,-3.622,-3.5419,-3.4183,-3.1893,-2.9659,-2.7298,-2.4568,0.0,-2.1921,-2.1302,0.0,-2.2295,-2.4021,0.0,-2.7625,-3.0069,-3.1652,-3.3195,-3.5024,-3.5922,-3.6865,-3.8093,-3.878,-3.9167,-3.9155,-3.9243,-3.9554,-4.0206,-4.0242,-4.0151,-4.0102,-3.9638,-3.8412,-3.6469,-3.5272,-3.4241,-3.3418,-3.2829,-3.2718,-3.3093,-3.3093,-3.3371,-3.3882,-3.3882,-3.3882,-3.3834,-3.3255,-3.3013,-3.3013,-3.3013,-3.3013,-3.3078,-3.3724,-3.3612,-3.3193,-3.389,-3.3712,-3.3226,-3.3226,-3.274,-3.2287,-3.3,-3.2724,-3.2174,-3.2255,-3.2222,-3.2125,-3.2044,-3.1461,-3.0865,-3.0814,-3.0312,-2.9918,-2.9918,-2.9377,-2.882,-2.8476,-2.7701,-2.7147,-2.7358,-2.675,-2.6168,-2.622,-2.622,-2.622,-2.622,-2.622,-2.622,-2.622,-2.622,-2.622,-2.622,-2.6521,-2.6691,-2.6691,-2.7053,-2.74,-2.7701,-2.773,-2.7893,-2.8182,-2.7513,-2.671,-2.58,-2.5219,-2.4518,-2.3678,-2.375,-2.4208,-3.5545,-3.6431,-3.6838,-3.622,-3.4464,-3.2497,-3.1021,-2.7664,0.0,0.0,0.0,-2.1288,-2.0653,-2.149,0.0,-2.4212,0.0,0.0,0.0,0.0,-3.3035,0.0,0.0,0.0,0.0,0.0,0.0,0.0,0.0,-3.85,-3.878,-3.876,-3.8543,-3.7931,-3.8332,-3.8155,-3.7227,-3.6384,-3.5404,-3.4214,-3.3521,-3.2946,-3.2547,-3.2547,-3.2602,-3.2711,-3.2711,0.0,-3.2711,-3.2586,-3.254,-3.254,-3.254,-3.254,-3.2609,-3.3166,-3.3292,-3.3264,-3.3885,-3.402,-3.3922,-3.3922,-3.3469,-3.3032,-3.3712,-3.3437,-3.3016,-3.3582,-3.334,-3.2757,-3.2158,-3.1461,-3.0781,-3.0198,-2.9999,-2.9918,-2.9918,-2.9377,-2.9072,-2.9603,-2.8216,-2.7164,-2.7921,-2.6916,-2.6063,-2.6168,-2.622,-2.622,-2.622,-2.622,-2.622,-2.622,-2.622,-2.622,-2.622,-2.6521,-2.6691,-2.6691,-2.7258,-2.7642,-2.7701,-2.7968,-2.8154,-2.8182,-2.8039,-2.7281,-2.58,-2.5683,-2.4939,-2.3607,-2.3678,-2.4176,-3.526,-3.6192,-3.6683,-3.5433,-3.3508,-3.126,-2.8703,0.0,0.0,0.0,0.0,-2.0231,-1.995,0.0,0.0,0.0,0.0,0.0,0.0,0.0,0.0,0.0,0.0,0.0,0.0,0.0,0.0,0.0,0.0,-3.8267,-3.8377,-3.837,-3.8083,-3.7421,-3.7655,-3.767,-3.739,-3.5997,-3.4849,-3.3924,-3.2871,-3.221,-3.1936,-3.1936,-3.2104,-3.2398,-3.2398,-3.2398,-3.2398,-3.2398,-3.2398,-3.2398,-3.2398,-3.2398,-3.2437,-3.2695,-3.2933,-3.3251,-3.3527,-3.3815,-3.4101,-3.4101,-3.3874,-3.368,-3.4003,-3.3874,-3.368,-3.4003,-3.3874,-3.3372,-3.2287,-3.1753,-3.1218,-3.0134,-2.9918,-2.9918,-2.9918,-2.9626,-2.9524,-2.9908,-2.8876,-2.802,-2.8178,-2.7311,-2.6471,-2.6234,-2.622,-2.622,-2.622,-2.622,-2.622,-2.622,-2.622,-2.622,-2.622,-2.6521,-2.664,-2.6452,-2.7085,-2.743,-2.743,-2.776,-2.8025,-2.82,-2.8182,-2.7397,-2.58,-2.5843,-2.5302,-2.4284,-2.4352,-2.5046,-3.4554,-3.5731,-3.6346,-3.4506,-3.2553,-3.0178,-2.6694,-2.3772,0.0,0.0,-1.939,-1.939,-1.939,0.0,0.0,0.0,0.0,0.0,0.0,0.0,0.0,0.0,0.0,0.0,0.0,0.0,0.0,0.0,0.0,0.0,-3.7957,-3.8091,-3.7907,-3.7403,-3.7494,-3.7443,-3.7388,-3.5703,-3.442,-3.3687,-3.2489,-3.1757,-3.1529,-3.1529,-3.1672,-3.1992,-3.1992,-3.1992,-3.1992,-3.1992,-3.1992,-3.1992,-3.1992,-3.1992,-3.2048,-3.216,-3.2586,-3.3039,-3.3145,-3.3594,-3.4101,-3.4101,-3.4101,-3.4101,-3.4101,-3.4101,-3.4101,-3.4101,-3.389,-3.3404,-3.2287,-3.1785,-3.1267,-3.0178,-2.9918,-2.9918,-2.9918,-2.9918,-2.9918,-2.9989,-2.9388,-2.8714,-2.8214,-2.7531,-2.6867,-2.6231,-2.6168,-2.622,-2.622,-2.622,-2.622,-2.622,-2.622,-2.622,-2.622,-2.6521,-2.6607,-2.6329,-2.6923,-2.7307,-2.7307,-2.7642,-2.7922,-2.8182,-2.8182,-2.7496,-2.6068,-2.6118,-2.5774,-2.5093,-2.518,-2.5966,-3.3768,-3.5176,-3.5714,-3.3859,-3.1569,-2.9097,-2.6483,0.0,0.0,-1.9544,-1.939,-1.939,-1.939,-2.0007,0.0,0.0,0.0,0.0,0.0,0.0,0.0,0.0,0.0,0.0,0.0,0.0,0.0,0.0,0.0,0.0,-3.643,-3.706,-3.7383,-3.7338,-3.7855,-3.7937,-3.7338,-3.6574,-3.5585,-3.4292,-3.3652,-3.2707,-3.1486,-3.1486,-3.1227,-3.0747,-3.0747,-3.0747,0.0,-3.0747,-3.0747,-3.0747,-3.0747,-3.0747,-3.0807,-3.1379,-3.1936,-3.2547,-3.3039,-3.3594,-3.4101,-3.4101,-3.4101,-3.4101,-3.4101,-3.4101,-3.4101,-3.4101,-3.3178,-3.2174,-3.2044,-3.104,-3.008,-2.9935,-2.9918,-2.9918,-2.9918,-2.9918,-2.9918,-2.9902,-2.9318,-2.8605,-2.803,-2.7359,-2.6721,-2.6125,-2.6115,-2.622,-2.622,-2.622,-2.622,-2.622,-2.622,-2.622,-2.622,-2.6521,-2.6691,-2.6674,-2.7289,-2.7654,-2.7654,-2.7996,-2.8154,-2.8182,-2.8182,-2.7781,-2.6889,-2.6915,-2.6504,-2.5718,-2.5835,-2.6375,-3.081,-3.2841,-3.4076,-3.3059,-3.0895,-2.831,-2.5444,0.0,0.0,-1.9053,-1.8843,-1.8843,-1.8843,-1.9712,-2.0344,0.0,0.0,0.0,0.0,0.0,0.0,0.0,0.0,0.0,0.0,0.0,0.0,0.0,0.0,0.0,-3.5735,-3.6,-3.63,-3.6681,-3.6976,-3.699,-3.6724,-3.6147,-3.5362,-3.4416,-3.382,-3.2788,-3.1526,-3.1526,-3.1177,-3.0568,-3.0568,-3.0568,0.0,-3.0568,-3.0568,-3.0568,-3.0568,-3.0568,-3.0628,-3.0866,-3.1321,-3.1879,-3.2074,-3.2571,-3.314,-3.3439,-3.3578,-3.3646,-3.3984,-3.4101,-3.4101,-3.4101,-3.3404,-3.2659,-3.2659,-3.1591,-3.0506,-3.0506,-3.0182,-2.9918,-2.9918,-2.9918,-2.9918,-2.9918,-2.9675,-2.9253,-2.8607,-2.7932,-2.7277,-2.6656,-2.6233,-2.6007,-2.6007,-2.6007,-2.6043,-2.6079,-2.6168,-2.622,-2.622,-2.6329,-2.6486,-2.6691,-2.7132,-2.7491,-2.7701,-2.8025,-2.8182,-2.8182,-2.8182,-2.7817,-2.6996,-2.6996,-2.6861,-2.6565,-2.6634,-2.714,-2.7406,-2.9763,-3.1466,-3.0904,-2.9171,-2.6872,0.0,0.0,-1.981,-1.8742,-1.8517,-1.8574,-1.8717,-1.9515,-2.0021,0.0,0.0,0.0,0.0,0.0,0.0,0.0,0.0,0.0,0.0,0.0,0.0,0.0,0.0,-3.604,-3.547,-3.5427,-3.5662,-3.6286,-3.6301,-3.6295,-3.6378,-3.5736,-3.5151,-3.4723,-3.4069,-3.3064,-3.1816,-3.1816,-3.1366,-3.0568,-3.0568,-3.0568,0.0,-3.0568,-3.0568,-3.0568,-3.0568,-3.0568,-3.0568,-3.0568,-3.097,-3.148,-3.148,-3.1879,-3.2407,-3.2591,-3.2777,-3.297,-3.3152,-3.3661,-3.4052,-3.3858,-3.3145,-3.2449,-3.2449,-3.1688,-3.0833,-3.0668,-3.0393,-3.0117,-2.9951,-2.9918,-2.9918,-2.9918,-2.9918,-2.9756,-2.9264,-2.8477,-2.7802,-2.7522,-2.6564,-2.5963,-2.6176,-2.6012,-2.5917,-2.5954,-2.6079,-2.6168,-2.622,-2.622,-2.6399,-2.6825,-2.6989,-2.7307,-2.7836,-2.7996,-2.8099,-2.8182,-2.8182,-2.7924,-2.7353,-2.7353,-2.7379,-2.7424,-2.7432,-2.7823,-2.3975,-2.6179,-2.7759,-2.7067,-2.5959,-2.4559,0.0,0.0,-1.9235,-1.8644,-1.8517,-1.8661,-1.9263,-1.939,-1.9614,-2.0288,0.0,0.0,0.0,0.0,0.0,0.0,0.0,0.0,0.0,0.0,0.0,0.0,0.0,0.0,-3.547,-3.5427,-3.5662,-3.6286,-3.6301,-3.6301,-3.6301,-3.5677,-3.5427,-3.5398,-3.4704,-3.3732,-3.2513,-3.2513,-3.1801,-3.0568,-3.0568,-3.0568,0.0,-3.0568,-3.0568,-3.0568,-3.0568,-3.0568,-3.0568,-3.0568,-3.097,-3.148,-3.148,-3.1879,-3.2275,-3.162,-3.1774,-3.2092,-3.1446,-3.2558,-3.3955,-3.3291,-3.206,-3.0898,-3.0898,-3.0898,-3.0749,-3.0097,-3.0409,-3.0733,-3.0064,-2.9918,-2.9918,-2.9918,-2.9918,-2.9918,-2.9902,-2.8777,-2.8103,-2.877,-2.7179,-2.6143,-2.6814,-2.6307,-2.5897,-2.5897,-2.5954,-2.6063,-2.6168,-2.622,-2.6486,-2.7149,-2.6891,-2.7164,-2.8154,-2.7893,-2.7864,-2.8182,-2.8182,-2.8182,-2.8182,-2.8182,-2.8182,-2.8182,-2.8273,-2.8362,-2.036,-2.2328,-2.3819,-2.4075,-2.3447,-2.2454,-2.0968,0.0,-1.8796,-1.8179,-1.8268,-1.8574,-1.8731,-1.9109,-1.946,-1.9656,0.0,0.0,0.0,0.0,0.0,0.0,0.0,0.0,0.0,0.0,0.0,0.0,0.0,-3.5198,-3.4191,-3.4961,-3.5459,-3.5662,-3.5241,-3.5009,-3.5009,-3.4385,-3.4066,-3.4051,-3.3412,-3.2672,-3.183,-3.183,-3.1366,-3.0568,-3.0568,-3.0568,-3.0568,-3.0568,-3.0568,-3.0568,-3.0568,-3.0568,-3.0568,-3.0568,-3.0747,-3.0793,-3.0353,-3.0308,-3.0419,-3.0262,-3.0501,-3.0907,-3.0923,-3.1739,-3.253,-3.1817,-3.1639,-3.1672,-3.1672,-3.1672,-3.1737,-3.2012,-3.1866,-3.1461,-3.0749,-3.0587,-3.0457,-2.9999,-2.9918,-3.0064,-3.0506,-2.9448,-2.8735,-2.9507,-2.7786,-2.6542,-2.6753,-2.613,-2.5712,-2.5754,-2.5864,-2.5954,-2.6079,-2.6168,-2.6399,-2.6825,-2.6758,-2.6956,-2.7491,-2.7642,-2.776,-2.7864,-2.8081,-2.8182,-2.8182,-2.8182,-2.8182,-2.8182,-2.8273,-2.8327,0.0,-1.8895,-2.0318,-2.1193,-2.1017,-2.0488,-1.9857,-1.9176,-1.8563,-1.8124,-1.8347,-1.8556,-1.8517,-1.9023,-1.9556,-1.9754,0.0,0.0,0.0,0.0,0.0,0.0,0.0,0.0,0.0,0.0,0.0,0.0,0.0,-3.4704,-3.3195,-3.4545,-3.5038,-3.4312,-3.4138,-3.4051,-3.4051,-3.3427,-3.3224,-3.3456,-3.2817,-3.2164,-3.1526,-3.1526,-3.1177,-3.0568,-3.0568,-3.0568,0.0,-3.0568,-3.0568,-3.0568,-3.0568,-3.0568,-3.0553,-3.0306,-3.0364,-3.0451,-2.9566,-2.9421,-2.9537,-2.8969,-2.8966,-2.9143,-2.955,-3.0527,-3.1435,-3.1334,-3.1267,-3.1267,-3.1526,-3.1591,-3.1656,-3.1834,-3.1737,-3.1396,-3.0684,-3.0522,-3.0393,-2.9999,-2.9918,-3.0085,-3.0797,-2.9745,-2.913,-3.0117,-2.8239,-2.6782,-2.7041,-2.6215,-2.56,-2.5659,-2.5807,-2.5934,-2.5954,-2.6132,-2.6329,-2.6691,-2.6572,-2.6775,-2.7369,-2.7461,-2.7642,-2.7893,-2.8081,-2.8182,-2.8182,-2.8182,-2.8182,-2.8182,-2.8273,-2.83,0.0,0.0,0.0,0.0,-1.8578,-1.874,-1.9114,-1.8805,0.0,-1.8439,-1.8595,-1.8648,-1.8574,-1.9131,-1.9779,-2.0387,0.0,0.0,0.0,0.0,0.0,0.0,0.0,0.0,0.0,0.0,0.0,0.0,-3.4516,-3.4356,-3.2542,-3.4167,-3.4298,-3.244,-3.305,-3.3398,-3.3398,-3.2759,-3.2745,-3.3325,-3.2687,-3.2063,-3.1453,-3.1453,-3.1134,0.0,-3.0568,-3.0568,-3.0568,-3.0568,-3.0568,-3.0568,-3.0568,-3.0568,-3.0495,-2.9914,-3.006,-3.0393,-2.9116,-2.9073,-2.9291,-2.7946,-2.7268,-2.7174,-2.7765,-2.9121,-3.0638,-3.1531,-3.0849,-3.002,-3.0703,-3.0881,-3.0781,-3.0166,-3.0522,-3.0797,-3.0101,-2.9983,-2.9983,-2.9918,-2.9918,-3.0085,-3.0797,-2.9777,-2.934,-3.0716,-2.8547,-2.6992,-2.7624,-2.6474,-2.5616,-2.5616,-2.5787,-2.5881,-2.5897,-2.6079,-2.6329,-2.6624,-2.6364,-2.6607,-2.7595,-2.7369,-2.7491,-2.8154,-2.8182,-2.8182,-2.8182,-2.8182,-2.8182,-2.8182,-2.8246,-2.83,-1.3168,0.0,-1.5455,-1.5385,-1.6241,-1.7091,0.0,0.0,0.0,0.0,0.0,0.0,0.0,0.0,0.0,0.0,0.0,0.0,0.0,0.0,0.0,0.0,0.0,0.0,0.0,0.0,0.0,0.0,-3.3296,-3.2759,-3.1801,-3.2658,-3.2527,-3.1076,-3.2135,-3.2745,-3.2745,-3.2092,-3.183,-3.1961,-3.1337,-3.0945,-3.08,-3.08,-3.0713,-3.0568,-3.0568,-3.0568,-3.0568,-3.0568,-3.0568,-3.0568,-3.0568,-3.0568,-3.0553,-3.0274,-3.0257,-3.0199,-2.8929,-2.8541,-2.8553,-2.7665,-2.7085,-2.6967,-2.8061,-2.8683,-2.9092,-2.9501,-2.9589,-2.9781,-3.0687,-3.0881,-3.0978,-3.1413,-3.1639,-3.1558,-3.083,-3.0668,-3.0522,-3.0016,-2.9918,-3.0085,-3.0797,-3.0198,-2.9907,-3.0797,-2.8951,-2.7527,-2.7688,-2.6474,-2.5616,-2.5616,-2.5696,-2.5791,-2.5881,-2.6079,-2.6239,-2.6293,-2.6239,-2.6417,-2.6906,-2.7117,-2.74,-2.7818,-2.8053,-2.8182,-2.8182,-2.8182,-2.8182,-2.8182,-2.8209,-2.8209,-1.2803,-1.368,-1.4658,-1.4852,-1.5762,-1.6723,0.0,0.0,0.0,0.0,0.0,0.0,0.0,0.0,0.0,0.0,0.0,0.0,0.0,0.0,0.0,0.0,0.0,0.0,0.0,0.0,0.0,-3.198,-3.2304,-3.2222,-3.1555,-3.2701,-3.2803,-3.1511,-3.244,-3.2817,-3.2513,-3.1859,-3.1671,-3.1961,-3.1032,-3.0568,-3.0568,-3.0568,-3.0568,-3.0568,-3.0568,-3.0568,-3.0568,-3.0568,-3.0568,-3.0447,-3.0447,-3.0447,-3.0269,-2.9619,-2.9703,-2.9947,-2.8096,-2.741,-2.7281,-2.6886,-2.6563,-2.651,-2.7312,-2.7715,-2.8061,-2.8951,-2.9335,-2.9656,-3.0283,-3.0441,-3.0538,-3.0927,-3.1024,-3.0927,-3.0522,-3.0441,-3.0328,-2.9983,-2.9918,-3.0032,-3.0376,-3.0117,-3.0048,-3.0393,-2.8887,-2.7705,-2.7705,-2.6474,-2.5616,-2.5616,-2.5642,-2.5738,-2.5791,-2.599,-2.6115,-2.622,-2.622,-2.6434,-2.6923,-2.7117,-2.743,-2.7922,-2.8126,-2.8182,-2.8182,-2.8182,-2.8182,-2.8182,-2.8182,-2.8182,-1.2873,-1.3581,-1.4553,-1.5335,-1.6164,-1.7005,0.0,0.0,0.0,0.0,0.0,0.0,0.0,0.0,0.0,0.0,0.0,0.0,0.0,0.0,0.0,0.0,0.0,0.0,0.0,0.0,0.0,-3.0312,-3.156,-3.2057,-3.1555,-3.318,-3.363,-3.2556,-3.3035,-3.3064,-3.2463,-3.1845,-3.1801,-3.2353,-3.1148,-3.0626,-3.0713,-3.0611,-3.0568,-3.0568,0.0,0.0,-3.0568,-3.0522,-3.0447,-3.0266,-3.0266,-3.0219,-2.9983,-2.8824,-2.9109,-2.9722,-2.7484,-2.642,-2.6139,-2.6224,-2.6087,-2.6002,-2.6351,-2.6759,-2.7312,-2.8842,-2.938,-2.9486,-2.977,-2.9874,-2.9918,-2.9918,-2.9918,-2.9918,-2.9918,-2.9918,-2.9918,-2.9918,-2.9918,-2.9918,-2.9918,-2.9918,-2.9918,-2.9918,-2.8628,-2.7705,-2.7705,-2.6474,-2.5616,-2.5616,-2.5659,-2.5701,-2.5701,-2.5864,-2.6026,-2.6168,-2.6168,-2.6486,-2.7181,-2.7307,-2.763,-2.8182,-2.8182,-2.8182,-2.8182,-2.8182,-2.8182,-2.8182,-2.8182,-2.8182,-1.2838,-1.3668,-1.4656,-1.5159,-1.6057,-1.7115,0.0,0.0,0.0,0.0,0.0,0.0,0.0,0.0,0.0,0.0,0.0,0.0,0.0,0.0,0.0,0.0,0.0,0.0,0.0,0.0,-3.0219,-3.0312,-3.1032,-3.1469,-3.1526,-3.2338,-3.2716,-3.2527,-3.2486,-3.2407,-3.232,-3.1797,-3.1569,-3.1656,-3.093,-3.0858,-3.1351,-3.0814,-3.0568,-3.0568,0.0,-3.0326,-3.0326,-3.0219,-3.0172,-3.0111,-3.0111,-3.0111,-3.0083,-2.9671,-2.9652,-2.9695,-2.8817,-2.7456,-2.6196,-2.6679,-2.644,-2.6002,-2.6351,-2.6563,-2.6811,-2.8012,-2.8716,-2.9213,-2.9486,-2.971,-2.9918,-2.9918,-2.9918,-2.9918,-2.9918,-2.9918,-2.9918,-2.9918,-2.9918,-2.9918,-2.9918,-2.9918,-2.9918,-2.9918,-2.8628,-2.7705,-2.7705,-2.6474,-2.5616,-2.5616,-2.5616,-2.5637,-2.5701,-2.5738,-2.5811,-2.6026,-2.6132,-2.6486,-2.7181,-2.7748,-2.8081,-2.8182,-2.8182,-2.8182,-2.8182,-2.8182,-2.8182,-2.8182,-2.8182,-2.8182,-1.3012,-1.3853,-1.4916,-1.5573,-1.6297,-1.7115,0.0,0.0,0.0,0.0,0.0,0.0,0.0,0.0,0.0,0.0,0.0,0.0,0.0,0.0,0.0,0.0,0.0,0.0,0.0,-2.9925,-3.0097,-3.0007,-3.0807,-3.1305,-3.1416,-3.2037,-3.2225,-3.185,-3.1737,-3.1343,-3.0639,-3.0398,-3.0661,-3.1401,-3.0751,-3.0592,-3.0866,-3.0577,-3.0387,-3.0341,0.0,-3.0219,-3.0158,-3.0111,-3.0036,-2.996,-2.996,-2.9898,-2.9803,-2.9713,-2.8852,-2.7752,-2.8175,-2.73,-2.6045,-2.6341,-2.6187,-2.6002,-2.6351,-2.6654,-2.6967,-2.771,-2.8334,-2.8873,-2.938,-2.971,-2.9918,-2.9918,-3.0166,-3.0328,-2.9999,-3.0166,-3.0328,-2.9983,-2.9918,-2.9918,-2.9918,-2.9918,-2.9918,-2.9918,-2.8628,-2.7705,-2.7705,-2.6474,-2.5616,-2.5616,-2.5616,-2.56,-2.5659,-2.577,-2.5864,-2.5974,-2.6469,-2.6875,-2.7181,-2.7836,-2.8182,-2.8182,-2.8182,-2.8182,-2.8182,-2.8182,-2.8182,-2.8182,-2.8182,-2.8182,-1.3267,-1.4072,-1.5095,0.0,0.0,0.0,0.0,0.0,0.0,0.0,0.0,0.0,0.0,0.0,0.0,0.0,0.0,0.0,0.0,0.0,0.0,0.0,0.0,0.0,-2.9341,-2.9472,-2.9533,-2.9383,-3.024,-3.0797,-3.0797,-3.1608,-3.1723,-3.1075,-3.0874,-3.0283,-2.9154,-2.8938,-2.9497,-3.0783,-3.0136,-2.9892,-3.0036,-2.9892,-2.976,-2.9668,-2.9608,-2.9608,-2.9622,-2.9718,-2.97,-2.9549,-2.9549,-2.9402,-2.9181,-2.9181,-2.7874,-2.6259,-2.7397,-2.6947,-2.5921,-2.6062,-2.602,-2.5948,-2.6258,-2.6669,-2.7071,-2.7524,-2.8042,-2.87,-2.945,-2.9794,-2.9951,-3.0085,-3.0409,-3.0538,-3.0032,-3.0295,-3.0522,-3.0016,-2.9918,-2.9918,-2.9918,-2.9918,-2.9918,-2.9918,-2.8628,-2.7705,-2.7705,-2.6474,-2.5616,-2.5616,-2.5616,-2.5616,-2.5616,-2.5787,-2.5917,-2.5974,-2.6691,-2.7085,-2.7085,-2.7659,-2.7996,-2.8081,-2.8081,-2.8126,-2.8182,-2.8182,-2.8182,-2.8182,-2.8182,-2.8182,-1.348,-1.4205,-1.5095,-1.5841,0.0,0.0,0.0,0.0,0.0,0.0,0.0,0.0,0.0,0.0,0.0,0.0,0.0,0.0,0.0,0.0,0.0,0.0,0.0,-2.808,-2.8152,-2.8006,-2.802,-2.8094,-2.8763,-2.9237,-2.9328,-3.0502,-3.0902,-3.0319,-3.0121,-2.9671,-2.9004,-2.8245,-2.8392,-2.9328,-2.8698,-2.8698,-2.9242,-2.8655,-2.834,-2.834,-2.8224,-2.8166,-2.8209,-2.8626,-2.882,-2.8759,-2.8759,-2.8408,-2.7902,-2.7902,-2.7411,-2.6849,-2.7537,-2.6947,-2.5992,-2.6554,-2.6357,-2.5893,-2.5948,-2.6204,-2.6616,-2.7019,-2.7815,-2.8762,-2.988,-3.0044,-3.0036,-3.0684,-3.0393,-2.9983,-2.9918,-2.9951,-2.9983,-2.9918,-2.9918,-2.9918,-2.9918,-2.9918,-2.9918,-2.9918,-2.8628,-2.7705,-2.7705,-2.6474,-2.5616,-2.5616,-2.5616,-2.5616,-2.5616,-2.5787,-2.5897,-2.5897,-2.6418,-2.6725,-2.6725,-2.7085,-2.743,-2.773,-2.773,-2.7893,-2.8182,-2.8182,-2.8182,-2.8182,-2.8182,-2.8182,-1.3323,-1.4096,-1.5095,-1.5928,0.0,0.0,0.0,0.0,0.0,0.0,0.0,0.0,0.0,0.0,0.0,0.0,0.0,0.0,0.0,0.0,0.0,0.0,-2.8039,-2.7995,-2.7879,-2.7834,-2.7834,-2.7879,-2.8207,-2.8393,-2.8438,-2.8893,-2.8694,-2.7684,-2.7852,-2.7512,-2.651,-2.6581,-2.6779,-2.7173,-2.7769,-2.821,-2.8423,-2.8196,-2.8039,-2.7937,-2.7879,-2.7879,-2.7893,-2.8074,-2.8127,-2.8127,-2.8127,-2.7734,-2.7228,-2.7636,-2.713,-2.6329,-2.6961,-2.661,-2.5936,-2.6174,-2.609,-2.5893,-2.5893,-2.6365,-2.6864,-2.6759,-2.7765,-2.8983,-2.9406,-2.971,-2.9983,-3.0198,-3.0393,-3.0409,-2.9999,-3.0214,-3.0393,-2.9999,-2.9918,-2.9918,-2.9918,-2.9918,-2.9918,-2.9918,-2.9016,-2.8385,-2.8385,-2.7154,-2.628,-2.628,-2.5875,-2.56,-2.5642,-2.5717,-2.5828,-2.5954,-2.6418,-2.6691,-2.6691,-2.7021,-2.7276,-2.74,-2.74,-2.7552,-2.7893,-2.7893,-2.7996,-2.8182,-2.8182,-2.8182,-1.3607,-1.4332,-1.5324,0.0,0.0,0.0,0.0,0.0,0.0,0.0,0.0,0.0,0.0,0.0,0.0,0.0,0.0,0.0,0.0,0.0,0.0,0.0,-2.7216,-2.7117,-2.7158,-2.7014,-2.6898,-2.6898,-2.6676,-2.6537,-2.6721,-2.6792,-2.6469,-2.5788,-2.606,-2.5837,-2.4994,-2.5402,-2.5612,-2.5626,-2.6778,-2.7329,-2.7329,-2.7329,-2.7272,-2.7186,-2.7186,-2.7298,-2.7467,-2.7467,-2.7467,-2.7467,-2.7467,-2.72,-2.6835,-2.7088,-2.6764,-2.6217,-2.6441,-2.6245,-2.5893,-2.5893,-2.5893,-2.5893,-2.5893,-2.6351,-2.6864,-2.6563,-2.7515,-2.8622,-2.8873,-2.9396,-3.0032,-3.0441,-3.0749,-3.0797,-3.0295,-3.0587,-3.0716,-3.0048,-2.9918,-2.9918,-2.9918,-2.9918,-2.9918,-2.9918,-2.9049,-2.845,-2.845,-2.7219,-2.6361,-2.6361,-2.5907,-2.5637,-2.5642,-2.5701,-2.5775,-2.5901,-2.626,-2.6469,-2.6538,-2.6775,-2.6923,-2.7053,-2.7149,-2.7307,-2.7552,-2.7642,-2.776,-2.7911,-2.7996,-2.8053,-1.4441,-1.498,0.0,0.0,0.0,0.0,0.0,0.0,0.0,0.0,0.0,0.0,0.0,0.0,0.0,0.0,0.0,0.0,0.0,0.0,0.0,-2.5725,-2.5452,-2.5364,-2.5823,-2.5314,-2.4991,-2.4991,-2.3894,-2.3451,-2.396,-2.4123,-2.4447,-2.4966,-2.4966,-2.4966,-2.4952,-2.4966,-2.4966,-2.498,-2.5584,-2.5879,-2.5893,-2.5893,-2.5893,-2.5893,-2.5893,-2.6245,-2.6793,-2.6793,-2.6793,-2.6793,-2.6793,-2.6793,-2.6722,-2.6118,-2.6287,-2.6722,-2.6104,-2.5893,-2.5893,-2.5893,-2.5893,-2.5893,-2.5893,-2.6204,-2.651,-2.651,-2.7019,-2.7665,-2.8319,-2.9198,-3.0275,-3.1656,-3.1445,-3.0865,-3.0865,-3.0865,-3.07,-3.0048,-2.9918,-2.9918,-2.9918,-2.9918,-2.9918,-2.9918,-2.8644,-2.7721,-2.7688,-2.6474,-2.5616,-2.5616,-2.5616,-2.5616,-2.5616,-2.5642,-2.5701,-2.5701,-2.5844,-2.597,-2.6168,-2.622,-2.6364,-2.6691,-2.7021,-2.7181,-2.7181,-2.7522,-2.7504,-2.7213,-2.7552,-2.7701,-1.4065,0.0,0.0,0.0,0.0,0.0,0.0,0.0,0.0,0.0,0.0,0.0,0.0,0.0,0.0,0.0,0.0,0.0,0.0,0.0,-2.3689,-2.4047,-2.3634,-2.3473,-2.4022,-2.389,-2.4121,-2.4952,-2.3958,-2.3514,-2.4096,-2.3782,-2.3412,-2.3104,-2.3942,-2.416,-2.3659,-2.416,-2.4385,-2.4385,-2.4952,-2.5472,-2.5893,-2.5893,-2.5893,-2.5893,-2.5893,-2.5992,-2.6174,-2.6174,-2.6174,-2.6174,-2.6174,-2.6174,-2.6146,-2.5964,-2.6006,-2.6132,-2.595,-2.5893,-2.5893,-2.5893,-2.5893,-2.5893,-2.5893,-2.6204,-2.651,-2.651,-2.721,-2.7978,-2.8174,-2.9281,-3.0422,-3.0522,-3.0344,-3.0182,-3.0182,-3.0182,-3.0117,-2.9951,-2.9918,-2.9918,-2.9918,-2.9918,-2.9918,-2.9918,-2.9065,-2.8109,-2.7122,-2.6636,-2.6183,-2.5681,-2.5616,-2.5616,-2.5616,-2.56,-2.5659,-2.5701,-2.5844,-2.597,-2.6063,-2.6063,-2.6134,-2.6329,-2.6468,-2.6607,-2.6858,-2.6939,-2.7195,-2.7535,-2.7654,-2.7836,-1.4235,0.0,0.0,0.0,0.0,0.0,0.0,0.0,0.0,0.0,0.0,0.0,0.0,0.0,0.0,0.0,0.0,0.0,-2.2793,-2.2498,-2.24,-2.2923,-2.2459,-2.2353,-2.291,-2.2751,-2.2898,-2.3582,-2.2564,-2.2233,-2.3071,-2.2535,-2.2363,-2.2605,-2.3091,-2.3252,-2.3097,-2.3477,-2.3674,-2.3688,-2.4357,-2.4938,-2.5542,-2.5781,-2.5893,-2.5907,-2.6146,-2.6118,-2.5921,-2.616,-2.6118,-2.5893,-2.5893,-2.6048,-2.6231,-2.5992,-2.6048,-2.6217,-2.5978,-2.5893,-2.5893,-2.5893,-2.5893,-2.5893,-2.5893,-2.6042,-2.6258,-2.6258,-2.6864,-2.7565,-2.7913,-2.8869,-2.9863,-3.0103,-3.0461,-3.0635,-3.0344,-3.0295,-3.0198,-2.9967,-2.9918,-2.9918,-2.9918,-2.9918,-2.9821,-2.9529,-2.8595,-2.7656,-2.6798,-2.6442,-2.6102,-2.5664,-2.5616,-2.5616,-2.5616,-2.5616,-2.56,-2.5659,-2.5749,-2.5807,-2.5864,-2.6026,-2.6115,-2.622,-2.6329,-2.6417,-2.6521,-2.664,-2.6808,-2.7019,-2.7289,-2.7491,0.0,0.0,0.0,0.0,0.0,0.0,0.0,0.0,0.0,0.0,0.0,0.0,0.0,0.0,0.0,0.0,0.0,-2.0976,-2.2154,-2.1276,-2.0951,-2.2127,-2.1655,-2.1538,-2.2192,-2.1677,-2.136,-2.1466,-2.0428,-2.0254,-2.125,-2.0822,-2.1246,-2.2742,-2.237,-2.2404,-2.2965,-2.3013,-2.3013,-2.3027,-2.3659,-2.4329,-2.4826,-2.5514,-2.5837,-2.5921,-2.6483,-2.6413,-2.5936,-2.6497,-2.6399,-2.5893,-2.5893,-2.6245,-2.6652,-2.6104,-2.6245,-2.6652,-2.609,-2.5893,-2.5893,-2.5893,-2.5893,-2.5893,-2.5893,-2.5893,-2.5893,-2.5948,-2.6204,-2.6707,-2.765,-2.8253,-2.8903,-3.0194,-3.1162,-3.1639,-3.0975,-3.083,-3.0635,-3.0032,-2.9918,-2.9918,-2.9918,-2.9918,-2.9643,-2.8806,-2.7608,-2.6733,-2.662,-2.6021,-2.5616,-2.5616,-2.5616,-2.5616,-2.5616,-2.5616,-2.5616,-2.5616,-2.5616,-2.5637,-2.5701,-2.599,-2.6168,-2.6168,-2.6469,-2.6486,-2.6168,-2.6469,-2.6418,-2.6046,-2.6691,-2.6923,0.0,0.0,0.0,0.0,0.0,0.0,0.0,0.0,0.0,0.0,0.0,0.0,0.0,0.0,0.0,0.0,0.0,-2.0701,-2.0949,-2.0412,-2.0092,-2.0346,-1.9905,-1.9775,-2.0307,-2.0254,-2.0536,-2.1445,-2.0446,-2.011,-2.0803,-2.0308,-2.0156,-2.0527,-2.122,-2.1622,-2.1745,-2.2178,-2.2381,-2.2381,-2.3013,-2.3364,-2.3533,-2.4657,-2.543,-2.5907,-2.6034,-2.602,-2.5907,-2.6034,-2.602,-2.5893,-2.5893,-2.5978,-2.6076,-2.595,-2.5978,-2.6076,-2.595,-2.5893,-2.5893,-2.5893,-2.5893,-2.5893,-2.5893,-2.5893,-2.5948,-2.6297,-2.6404,-2.6759,-2.7765,-2.8719,-2.9434,-2.9669,-3.0064,-3.0324,-3.0134,-3.0101,-3.0053,-2.9935,-2.9918,-2.9918,-2.9918,-2.9918,-2.9437,-2.8126,-2.7688,-2.7089,-2.5988,-2.5713,-2.5616,-2.5616,-2.5616,-2.5616,-2.5616,-2.5616,-2.5616,-2.5616,-2.5659,-2.5663,-2.5701,-2.5775,-2.5864,-2.597,-2.6026,-2.6026,-2.597,-2.6026,-2.6154,-2.6314,-2.6691,-2.6971,0.0,0.0,0.0,0.0,0.0,0.0,0.0,0.0,0.0,0.0,0.0,0.0,0.0,0.0,0.0,0.0,-1.9643,-1.985,-1.985,-1.9592,-1.9396,-1.9396,-1.9198,-1.9093,-1.9396,-1.9396,-1.9664,-2.0253,-1.9753,-1.9624,-2.0173,-1.9858,-1.9798,-2.0093,-2.0646,-2.0957,-2.1019,-2.1554,-2.1746,-2.1636,-2.2351,-2.2817,-2.3126,-2.4095,-2.4713,-2.5022,-2.5022,-2.5022,-2.5036,-2.5331,-2.5289,-2.5078,-2.5655,-2.5711,-2.5486,-2.5781,-2.5893,-2.5893,-2.5893,-2.5893,-2.5893,-2.5893,-2.5893,-2.5837,-2.5542,-2.5458,-2.5511,-2.571,-2.6064,-2.6513,-2.715,-2.8238,-2.9091,-2.8865,-2.9637,-3.0235,-2.979,-2.9814,-2.9858,-2.971,-2.9814,-2.9805,-2.9448,-2.9065,-2.8579,-2.7818,-2.7429,-2.696,-2.6231,-2.5826,-2.5616,-2.5616,-2.5616,-2.5616,-2.5616,-2.5616,-2.5616,-2.5616,-2.5621,-2.5659,-2.5659,-2.5659,-2.5733,-2.5897,-2.5897,-2.5897,-2.5897,-2.5897,-2.5954,-2.6101,-2.6505,-2.6741,0.0,0.0,0.0,0.0,0.0,0.0,0.0,0.0,0.0,0.0,0.0,0.0,0.0,0.0,0.0,0.0,-1.8915,-1.8855,-1.8855,-1.877,-1.871,-1.871,-1.871,-1.8758,-1.8843,-1.8855,-1.8891,-1.8987,-1.8987,-1.9146,-1.946,-1.946,-1.9643,-2.0067,-2.0169,-2.0283,-2.0409,-2.1019,-2.1215,-2.0993,-2.1779,-2.239,-2.2909,-2.3491,-2.3906,-2.4118,-2.4118,-2.4118,-2.416,-2.4667,-2.4568,-2.423,-2.5289,-2.543,-2.5036,-2.5542,-2.5725,-2.5725,-2.5626,-2.5655,-2.5725,-2.5612,-2.5655,-2.5626,-2.5008,-2.4812,-2.4812,-2.4812,-2.5365,-2.5987,-2.6266,-2.7389,-2.8373,-2.8131,-2.9377,-3.039,-2.9614,-2.9637,-2.9726,-2.9515,-2.9613,-2.9497,-2.8725,-2.8109,-2.7672,-2.7543,-2.7057,-2.6652,-2.6523,-2.5988,-2.5616,-2.5616,-2.5616,-2.5616,-2.5616,-2.5616,-2.5664,-2.5794,-2.5681,-2.5681,-2.5794,-2.5681,-2.5691,-2.586,-2.586,-2.586,-2.586,-2.586,-2.5807,-2.5717,-2.6279,-2.6504,0.0,0.0,0.0,0.0,0.0,0.0,0.0,0.0,0.0,0.0,0.0,0.0,0.0,0.0,0.0,0.0,-1.8602,-1.8301,-1.8301,-1.7917,-1.7628,-1.7628,-1.7628,-1.7808,-1.8265,-1.8301,-1.8494,-1.8963,-1.8987,-1.8999,-1.8905,-1.8905,-1.8893,-1.8815,-1.9267,-1.9592,-1.9708,-2.051,-2.0894,-2.0993,-2.1589,-2.1896,-2.1965,-2.23,-2.3076,-2.4118,-2.4118,-2.4118,-2.4118,-2.4202,-2.4188,-2.4188,-2.4826,-2.505,-2.4994,-2.5064,-2.5107,-2.5036,-2.454,-2.4709,-2.5008,-2.4526,-2.4709,-2.4994,-2.4413,-2.423,-2.423,-2.423,-2.4519,-2.4936,-2.5548,-2.6516,-2.7426,-2.796,-2.874,-2.9294,-2.9199,-2.9167,-2.9259,-2.947,-2.921,-2.8692,-2.7964,-2.7769,-2.751,-2.6911,-2.6749,-2.6474,-2.5843,-2.5681,-2.5616,-2.5616,-2.5616,-2.5616,-2.5616,-2.5616,-2.5875,-2.6506,-2.5956,-2.5891,-2.6523,-2.5956,-2.5616,-2.5654,-2.5654,-2.5654,-2.5654,-2.5654,-2.5654,-2.5654,-2.6189,-2.6418,0.0,0.0,0.0,0.0,0.0,0.0,0.0,0.0,0.0,0.0,0.0,0.0,0.0,0.0,0.0,0.0,-1.7917,-1.776,-1.776,-1.7568,-1.7412,-1.7412,-1.7351,-1.7386,-1.7625,-1.7649,-1.7745,-1.7972,-1.7996,-1.7945,-1.7816,-1.7702,-1.7639,-1.7576,-1.8128,-1.8346,-1.8222,-1.9133,-1.9966,-2.0643,-2.1151,-2.1616,-2.2044,-2.1996,-2.2337,-2.3062,-2.3062,-2.3062,-2.309,-2.3378,-2.3322,-2.3112,-2.4132,-2.425,-2.3969,-2.4385,-2.4526,-2.4484,-2.4202,-2.4287,-2.447,-2.4202,-2.4301,-2.4399,-2.3716,-2.3519,-2.3568,-2.3814,-2.4154,-2.452,-2.497,-2.5895,-2.6642,-2.6332,-2.6931,-2.7534,-2.7303,-2.7936,-2.8516,-2.8366,-2.7953,-2.751,-2.7203,-2.7138,-2.6895,-2.6199,-2.6442,-2.6426,-2.5697,-2.5616,-2.5616,-2.5616,-2.5616,-2.5616,-2.5616,-2.5616,-2.5745,-2.6069,-2.5794,-2.5762,-2.6069,-2.5778,-2.5616,-2.5616,-2.5616,-2.5616,-2.5616,-2.5616,-2.5616,-2.5616,-2.599,-2.6243,0.0,0.0,0.0,0.0,0.0,0.0,0.0,0.0,0.0,0.0,0.0,0.0,0.0,0.0,0.0,0.0,-1.7303,-1.7219,-1.7219,-1.7099,-1.7015,-1.7015,-1.6908,-1.686,-1.6979,-1.6954,-1.7013,-1.7144,-1.7156,-1.7107,-1.6971,-1.6849,-1.6799,-1.6749,-1.7143,-1.7229,-1.7044,-1.7884,-1.8841,-1.9914,-2.0465,-2.1083,-2.182,-2.1866,-2.1996,-2.2184,-2.2184,-2.2184,-2.2212,-2.2676,-2.2592,-2.2283,-2.3393,-2.3519,-2.3154,-2.3645,-2.3864,-2.385,-2.3695,-2.3737,-2.385,-2.3681,-2.3737,-2.3702,-2.3055,-2.2859,-2.2907,-2.3207,-2.3583,-2.3937,-2.4149,-2.5077,-2.5786,-2.4986,-2.5635,-2.6335,-2.6016,-2.6915,-2.762,-2.7163,-2.6824,-2.6581,-2.6442,-2.6426,-2.6296,-2.594,-2.6361,-2.6555,-2.6199,-2.5988,-2.5891,-2.5891,-2.5729,-2.5616,-2.5616,-2.5616,-2.5697,-2.5875,-2.5713,-2.5697,-2.5875,-2.5713,-2.5616,-2.5616,-2.5616,-2.5616,-2.5616,-2.5616,-2.5616,-2.5616,-2.5881,-2.6154,0.0,0.0,0.0,0.0,0.0,0.0,0.0,0.0,0.0,0.0,0.0,0.0,0.0,0.0,0.0,0.0,-1.6943,-1.662,-1.662,-1.6188,-1.5876,-1.5876,-1.5832,-1.5932,-1.6408,-1.6397,-1.6574,-1.7069,-1.7105,-1.7032,-1.6799,-1.6799,-1.6761,-1.6623,-1.6658,-1.6696,-1.6799,-1.7326,-1.7883,-1.8525,-1.9572,-2.0274,-2.0735,-2.1732,-2.2184,-2.2184,-2.2184,-2.2184,-2.2184,-2.2212,-2.2212,-2.224,-2.2887,-2.3126,-2.3097,-2.314,-2.3154,-2.3069,-2.2479,-2.2662,-2.3055,-2.2465,-2.2676,-2.3027,-2.2409,-2.2226,-2.2226,-2.2273,-2.2537,-2.2797,-2.2797,-2.3821,-2.4866,-2.4836,-2.5635,-2.638,-2.638,-2.6559,-2.662,-2.6141,-2.6213,-2.6174,-2.574,-2.5681,-2.5891,-2.6539,-2.6668,-2.6911,-2.751,-2.7041,-2.6636,-2.6636,-2.6037,-2.5616,-2.5616,-2.5616,-2.5907,-2.6604,-2.6005,-2.5924,-2.6604,-2.5988,-2.5616,-2.5616,-2.5616,-2.5616,-2.5616,-2.5616,-2.5616,-2.5616,-2.5881,-2.6154,0.0,0.0,0.0,0.0,0.0,0.0,0.0,0.0,0.0,0.0,0.0,0.0,0.0,0.0,0.0,0.0,-1.6154,-1.6035,-1.6035,-1.5778,-1.5603,-1.5603,-1.5525,-1.5517,-1.5693,-1.5671,-1.5764,-1.594,-1.5951,-1.5905,-1.5846,-1.5741,-1.5694,-1.5647,-1.598,-1.6164,-1.6201,-1.6658,-1.707,-1.7455,-1.8588,-1.9615,-2.0514,-2.107,-2.1667,-2.2184,-2.2184,-2.2184,-2.2184,-2.2184,-2.2184,-2.2198,-2.2423,-2.2507,-2.2507,-2.2507,-2.2507,-2.2479,-2.2255,-2.2325,-2.2479,-2.2255,-2.2339,-2.2465,-2.2255,-2.2184,-2.2217,-2.2434,-2.2618,-2.2785,-2.329,-2.3789,-2.423,-2.4444,-2.46,-2.4783,-2.5013,-2.5211,-2.5342,-2.5352,-2.5409,-2.5488,-2.5573,-2.5857,-2.6205,-2.6652,-2.7073,-2.7429,-2.7672,-2.7494,-2.7187,-2.6749,-2.6458,-2.6118,-2.5664,-2.5616,-2.5729,-2.5988,-2.5762,-2.5729,-2.5988,-2.5745,-2.5616,-2.5616,-2.5616,-2.5616,-2.5616,-2.5616,-2.5616,-2.5616,-2.5712,-2.5881,0.0,0.0,0.0,0.0,0.0,0.0,0.0,0.0,0.0,0.0,0.0,0.0,0.0,0.0,0.0,0.0,0.0,-1.5715,-1.5715,-1.557,-1.5513,-1.5513,-1.539,-1.5312,-1.5312,-1.5267,-1.521,-1.521,-1.521,0.0,-1.521,-1.5165,-1.5108,-1.5108,-1.5452,-1.5636,-1.5636,-1.5893,-1.6192,-1.6478,-1.7634,-1.8701,-1.9728,-2.0452,-2.1213,-2.1949,-2.2137,-2.2184,-2.2184,-2.2184,-2.2184,-2.2184,-2.2184,-2.2184,-2.2184,-2.2184,-2.2184,-2.2184,-2.2184,-2.2184,-2.2184,-2.2184,-2.2184,-2.2184,-2.2184,-2.2184,-2.2263,-2.248,-2.2526,-2.2663,-2.329,-2.361,-2.3882,-2.4219,-2.4135,-2.4009,-2.4261,-2.4385,-2.4589,-2.4806,-2.4886,-2.5005,-2.541,-2.5933,-2.6463,-2.6952,-2.7624,-2.8158,-2.8401,-2.8223,-2.7802,-2.7106,-2.683,-2.6409,-2.5681,-2.5616,-2.5616,-2.5616,-2.5616,-2.5616,-2.5616,-2.5616,-2.5616,-2.5616,-2.5616,-2.5616,-2.5616,-2.5616,-2.5616,-2.5616,-2.5616,-2.5749,0.0,0.0,0.0,0.0,0.0,0.0,0.0,0.0,0.0,0.0,0.0,0.0,0.0,0.0,0.0,0.0,0.0,-1.5671,-1.5671,-1.557,-1.5468,-1.5468,-1.5345,-1.5267,-1.5267,-1.5165,-1.5108,-1.5108,-1.5108,-1.5108,-1.5108,-1.5108,-1.5108,-1.5108,-1.5108,-1.5108,-1.5108,-1.5108,-1.5232,-1.5591,-1.6589,-1.753,-1.8423,-1.99,-2.0846,-2.1396,-2.1935,-2.2184,-2.2184,-2.2184,-2.2184,-2.2184,-2.2184,-2.2184,-2.2184,-2.2184,-2.2184,-2.2184,-2.2184,-2.2184,-2.2184,-2.2184,-2.2184,-2.2184,-2.2184,-2.2184,-2.2184,-2.2231,-2.2217,-2.231,-2.2663,-2.329,-2.3925,-2.4219,-2.4302,-2.4302,-2.4302,-2.4302,-2.4343,-2.4549,-2.4589,-2.4751,-2.5217,-2.5854,-2.6623,-2.7551,-2.832,-2.9049,-2.9821,-2.9302,-2.853,-2.7786,-2.7122,-2.6426,-2.5681,-2.5616,-2.5616,-2.5616,-2.5616,-2.5616,-2.5616,-2.5616,-2.5616,-2.5616,-2.5616,-2.5616,-2.5616,-2.5616,-2.5616,-2.5616,-2.5616,-2.5749,-1.4132,0.0,0.0,0.0,0.0,0.0,0.0,0.0,0.0,0.0,0.0,0.0,0.0,0.0,0.0,0.0,0.0,-1.5367,-1.4892,-1.4777,-1.4558,-1.4176,-1.4082,-1.4233,-1.4616,-1.4605,-1.4743,0.0,-1.5108,-1.5108,-1.5108,-1.5108,-1.5108,-1.5108,-1.5108,-1.5108,-1.5108,-1.5108,-1.5153,-1.5244,-1.5957,-1.6667,-1.738,-1.9027,-2.0129,-2.0725,-2.1741,-2.2184,-2.2184,-2.2184,-2.2184,-2.2184,-2.2184,-2.2184,-2.2184,-2.2184,-2.2184,-2.2184,-2.2184,-2.2184,-2.2184,-2.2184,-2.2184,-2.2184,-2.2184,-2.2184,-2.2263,-2.248,-2.2572,-2.2709,-2.3334,-2.3824,-2.4177,-2.4261,-2.4302,-2.4302,-2.4302,-2.4302,-2.4343,-2.4549,-2.4467,-2.4508,-2.5005,-2.5615,-2.6395,-2.7345,-2.8236,-2.9049,-2.9821,-2.974,-2.9097,-2.785,-2.7543,-2.6944,-2.5713,-2.5616,-2.5616,-2.5616,-2.5616,-2.5616,-2.5616,-2.5616,-2.5616,-2.5616,-2.5616,-2.5616,-2.5616,-2.5616,-2.5616,-2.5616,-2.5616,-2.5654,0.0,0.0,0.0,0.0,0.0,0.0,-1.4989,-1.5372,-1.554,0.0,0.0,0.0,0.0,0.0,0.0,0.0,0.0,-1.5277,-1.4595,-1.4444,-1.4186,-1.3658,-1.3621,-1.3705,-1.4046,-1.4093,-1.428,-1.4789,-1.4789,-1.488,-1.5108,-1.5108,-1.5108,-1.5108,-1.5108,-1.5108,-1.5108,-1.5108,-1.5108,-1.5108,-1.5513,-1.6209,-1.7178,-1.8513,-1.9668,-2.0691,-2.1627,-2.2091,-2.2184,-2.2184,-2.2184,-2.2184,-2.2184,-2.2184,-2.2184,-2.2184,-2.2184,-2.2184,-2.2184,-2.2184,-2.2184,-2.2184,-2.2184,-2.2184,-2.2184,-2.2184,-2.2217,-2.2449,-2.2572,-2.2785,-2.3246,-2.3696,-2.4094,-2.4094,-2.4219,-2.4302,-2.4302,-2.4302,-2.4343,-2.4467,-2.4385,-2.4426,-2.4766,-2.5413,-2.6135,-2.6846,-2.7917,-2.8753,-2.8951,-2.9227,-2.8871,-2.7446,-2.7284,-2.696,-2.6134,-2.6069,-2.6183,-2.6474,-2.649,-2.649,-2.649,-2.6215,-2.6069,-2.6069,-2.5778,-2.5616,-2.5616,-2.5616,-2.5616,-2.5616,-2.5616,-2.5616,0.0,0.0,0.0,0.0,0.0,0.0,-1.4209,-1.4893,-1.5241,-1.3335,0.0,0.0,0.0,0.0,0.0,0.0,0.0,-1.5118,-1.4549,-1.4398,-1.4093,-1.3563,-1.3478,-1.3467,-1.3515,-1.3515,-1.3705,-1.428,-1.4373,-1.4605,-1.5062,-1.5108,-1.5108,-1.5108,-1.5108,-1.5108,-1.5108,-1.5108,-1.5108,-1.5108,-1.5268,-1.6056,-1.7364,-1.8157,-1.9361,-2.0851,-2.1513,-2.1949,-2.2184,-2.2184,-2.2184,-2.2184,-2.2184,-2.2184,-2.2184,-2.2184,-2.2184,-2.2184,-2.2184,-2.2184,-2.2184,-2.2184,-2.2184,-2.2184,-2.2184,-2.2184,-2.2231,-2.2231,-2.248,-2.2754,-2.2754,-2.329,-2.3797,-2.3797,-2.4051,-2.4302,-2.4302,-2.4302,-2.4302,-2.4302,-2.4302,-2.4343,-2.4549,-2.5144,-2.5733,-2.6206,-2.739,-2.8132,-2.7858,-2.832,-2.819,-2.6944,-2.6733,-2.6668,-2.6587,-2.6652,-2.6944,-2.7559,-2.7672,-2.7705,-2.7705,-2.7057,-2.6701,-2.6701,-2.5988,-2.5664,-2.5729,-2.5664,-2.5616,-2.5616,-2.5616,-2.5616,0.0,0.0,0.0,0.0,0.0,0.0,-1.5401,-1.5457,-1.5377,0.0,0.0,0.0,0.0,0.0,0.0,0.0,0.0,0.0,-1.44,-1.4046,-1.3563,-1.3016,-1.2647,-1.255,-1.2919,-1.2967,-1.317,-1.3705,-1.414,-1.4605,-1.5062,-1.5108,-1.5108,-1.5108,-1.5108,-1.5108,-1.5108,-1.5108,-1.5108,-1.5119,-1.5544,-1.5938,-1.6266,-1.8091,-1.92,-1.9772,-2.1179,-2.1949,-2.2184,-2.2184,-2.2184,-2.2184,-2.2184,-2.2184,-2.2184,-2.2184,-2.2184,-2.2184,-2.2184,-2.2184,-2.2184,-2.2184,-2.2184,-2.2184,-2.2184,-2.2184,-2.2263,-2.2526,-2.2889,-2.3172,-2.3172,-2.348,-2.3797,-2.3797,-2.4051,-2.4302,-2.4302,-2.4302,-2.4302,-2.4302,-2.4302,-2.4302,-2.4343,-2.4616,-2.5102,-2.5914,-2.642,-2.7169,-2.845,-2.819,-2.7818,-2.7543,-2.7025,-2.6458,-2.5875,-2.6361,-2.6749,-2.6879,-2.7397,-2.7705,-2.7705,-2.7057,-2.6701,-2.6701,-2.5988,-2.5907,-2.6474,-2.5891,-2.5616,-2.5616,-2.5616,-2.5616,0.0,0.0,0.0,-1.5703,0.0,0.0,0.0,-1.5558,-1.5431,-1.5063,-1.397,-1.2967,0.0,0.0,0.0,0.0,0.0,0.0,-1.3409,-1.3516,-1.3243,-1.2263,-1.2143,-1.2166,-1.2452,-1.2442,-1.2783,-1.3515,-1.4316,-1.4834,-1.5108,-1.5108,-1.5108,-1.5108,-1.5108,-1.5108,-1.5108,-1.5108,-1.5108,-1.5119,-1.5694,-1.6254,-1.674,-1.8093,-1.9108,-1.9847,-2.0922,-2.1541,-2.1793,-2.2091,-2.2184,-2.2184,-2.2184,-2.2184,-2.2184,-2.2184,-2.2184,-2.2184,-2.2184,-2.2184,-2.2184,-2.2184,-2.2184,-2.2184,-2.2184,-2.2184,-2.2231,-2.2402,-2.2586,-2.2768,-2.2768,-2.3127,-2.3538,-2.3538,-2.3925,-2.4302,-2.4302,-2.4302,-2.4302,-2.4302,-2.4302,-2.4302,-2.4302,-2.4385,-2.4632,-2.5221,-2.5812,-2.6365,-2.6993,-2.7163,-2.7057,-2.6701,-2.6361,-2.6112,-2.5963,-2.6285,-2.6655,-2.705,-2.7347,-2.7784,-2.8223,-2.7251,-2.6701,-2.6701,-2.5988,-2.5972,-2.6701,-2.5972,-2.5616,-2.5616,-2.5616,-2.5616,0.0,0.0,0.0,0.0,0.0,-1.5424,0.0,0.0,0.0,-1.5071,-1.3554,0.0,0.0,0.0,0.0,0.0,0.0,0.0,0.0,-1.2587,0.0,-1.1743,-1.175,-1.1847,-1.2058,-1.2076,-1.2461,-1.3372,-1.4316,-1.4869,-1.4971,-1.5062,-1.5108,-1.5108,-1.5108,-1.5108,-1.5108,-1.5108,-1.5153,-1.5165,-1.5916,-1.6668,-1.7424,-1.82,-1.9182,-2.0271,-2.0795,-2.1202,-2.1616,-2.2044,-2.2184,-2.2184,-2.2184,-2.2184,-2.2184,-2.2184,-2.2184,-2.2184,-2.2184,-2.2184,-2.2184,-2.2184,-2.2184,-2.2184,-2.2184,-2.2184,-2.2184,-2.2184,-2.2184,-2.2217,-2.2263,-2.2814,-2.3319,-2.3407,-2.3882,-2.4302,-2.4302,-2.441,-2.4456,-2.4333,-2.4518,-2.4656,-2.4518,-2.4502,-2.4585,-2.4792,-2.544,-2.5803,-2.5488,-2.6005,-2.6322,-2.5976,-2.574,-2.5815,-2.6278,-2.6286,-2.6542,-2.7077,-2.7253,-2.7672,-2.8436,-2.7413,-2.6791,-2.6701,-2.6118,-2.6102,-2.6701,-2.5972,-2.5616,-2.5616,-2.5616,-2.5697,0.0,0.0,0.0,0.0,-1.5334,0.0,0.0,0.0,-1.5015,-1.4641,0.0,0.0,0.0,0.0,0.0,0.0,0.0,0.0,-0.9677,-1.0835,-1.1915,-1.2102,-1.1254,-1.1076,-1.1984,-1.2076,-1.2314,-1.2861,-1.3457,-1.3999,-1.4466,-1.488,-1.5108,-1.5108,-1.5108,-1.5108,-1.5108,-1.521,-1.5267,-1.5278,-1.6372,-1.6961,-1.7105,-1.8485,-1.9569,-2.037,-2.0845,-2.1444,-2.2137,-2.2184,-2.2184,-2.2184,-2.2184,-2.2184,-2.2184,-2.2184,-2.2184,-2.2184,-2.2184,-2.2184,-2.2184,-2.2184,-2.2184,-2.2184,-2.2184,-2.2184,-2.2184,-2.2184,-2.2184,-2.2278,-2.2572,-2.2994,-2.3363,-2.3653,-2.4009,-2.4302,-2.4302,-2.4779,-2.5025,-2.4425,-2.5272,-2.5859,-2.5302,-2.521,-2.5253,-2.5555,-2.5659,-2.5801,-2.5898,-2.5664,-2.5894,-2.7089,-2.6228,-2.5815,-2.6278,-2.6286,-2.6254,-2.6145,-2.6788,-2.7169,-2.7307,-2.7301,-2.7138,-2.6701,-2.662,-2.662,-2.6701,-2.5972,-2.5616,-2.5616,-2.5616,-2.5956,0.0,0.0,0.0,0.0,0.0,0.0,-1.4455,0.0,-1.4157,0.0,0.0,0.0,0.0,0.0,0.0,0.0,-1.0049,0.0,0.0,0.0,-1.0653,0.0,0.0,0.0,-1.1398,-1.164,-1.1705,-1.142,-1.3055,-1.3949,-1.3707,-1.4608,-1.5108,-1.5108,-1.5108,-1.5108,-1.5108,-1.521,-1.5312,-1.5324,-1.6515,-1.7107,-1.7191,-1.879,-1.9747,-2.0093,-2.0894,-2.141,-2.1746,-2.2091,-2.2184,-2.2184,-2.2184,-2.2184,-2.2184,-2.2184,-2.2184,-2.2184,-2.2184,-2.2184,-2.2184,-2.2184,-2.2184,-2.2184,-2.2184,-2.2184,-2.2184,-2.2184,-2.2184,-2.2278,-2.2603,-2.2979,-2.3407,-2.3711,-2.3925,-2.4009,-2.4009,-2.4353,-2.4552,-2.4282,-2.5168,-2.5986,-2.6092,-2.6045,-2.5839,-2.554,-2.5621,-2.5706,-2.5832,-2.5772,-2.5847,-2.6142,-2.6326,-2.6165,-2.56,-2.5812,-2.5711,-2.5221,-2.5973,-2.6344,-2.607,-2.6502,-2.6744,-2.6701,-2.628,-2.6458,-2.7284,-2.6587,-2.6442,-2.6814,-2.5988,-2.6005,-1.5379,0.0,0.0,0.0,0.0,0.0,0.0,0.0,0.0,0.0,0.0,0.0,0.0,0.0,0.0,0.0,0.0,-0.9529,0.0,0.0,0.0,0.0,0.0,0.0,0.0,-1.1192,-1.1257,-1.0428,-1.2381,-1.3433,-1.3006,-1.4077,-1.4821,-1.5096,-1.5108,-1.5108,-1.5108,-1.521,-1.5382,-1.5578,-1.6681,-1.7325,-1.7541,-1.9118,-1.9901,-2.0055,-2.1019,-2.1471,-2.1664,-2.2044,-2.2184,-2.2184,-2.2184,-2.2184,-2.2184,-2.2184,-2.2184,-2.2184,-2.2184,-2.2184,-2.2184,-2.2184,-2.2184,-2.2184,-2.2184,-2.2184,-2.2184,-2.2184,-2.2184,-2.2278,-2.2603,-2.2934,-2.3216,-2.3566,-2.3653,-2.3653,-2.3653,-2.3956,-2.4174,-2.3997,-2.5058,-2.6025,-2.6146,-2.6474,-2.6488,-2.5964,-2.588,-2.5796,-2.5594,-2.5775,-2.5778,-2.5433,-2.6192,-2.6314,-2.5305,-2.5305,-2.515,-2.4539,-2.5155,-2.5406,-2.51,-2.5775,-2.6182,-2.6237,-2.6131,-2.6509,-2.7332,-2.7082,-2.7219,-2.7672,-2.6474,-2.6409,0.0,0.0,0.0,-1.4512,0.0,0.0,0.0,0.0,-1.3621,0.0,0.0,0.0,0.0,0.0,0.0,0.0,0.0,0.0,0.0,0.0,0.0,0.0,0.0,0.0,0.0,-1.0827,-1.1177,-1.0349,-1.1102,-1.184,-1.2394,-1.3203,-1.4086,-1.5073,-1.5108,-1.5108,-1.5108,-1.521,-1.5613,-1.6268,-1.6907,-1.7516,-1.8193,-1.9292,-2.0105,-2.061,-2.1166,-2.1712,-2.2184,-2.2184,-2.2184,-2.2184,-2.2184,-2.2184,-2.2184,-2.2184,-2.2184,-2.2184,-2.2184,-2.2184,-2.2184,-2.2184,-2.2184,-2.2184,-2.2184,-2.2184,-2.2184,-2.2184,-2.2184,-2.2278,-2.2603,-2.2694,-2.2844,-2.3216,-2.3319,-2.3319,-2.3319,-2.3821,-2.4102,-2.3467,-2.5211,-2.6361,-2.5063,-2.6245,-2.7349,-2.7334,-2.678,-2.6103,-2.541,-2.5563,-2.569,-2.5686,-2.5884,-2.5942,-2.5686,-2.5035,-2.4539,-2.4302,-2.4333,-2.4457,-2.463,-2.5342,-2.5529,-2.5053,-2.6582,-2.7016,-2.6334,-2.7268,-2.7688,-2.7688,-2.6992,-2.7397,0.0,0.0,-1.4971,-1.4512,0.0,0.0,0.0,0.0,0.0,0.0,0.0,0.0,0.0,0.0,0.0,0.0,0.0,0.0,0.0,0.0,0.0,0.0,0.0,0.0,0.0,0.0,-0.9839,-0.8712,-1.0016,-1.1081,-1.1591,-1.3225,-1.444,-1.5096,-1.521,-1.521,-1.5108,-1.5334,-1.5705,-1.6291,-1.6907,-1.7528,-1.8268,-1.9699,-2.0409,-2.066,-2.1554,-2.2044,-2.2184,-2.2184,-2.2184,-2.2184,-2.2184,-2.2184,-2.2184,-2.2184,-2.2184,-2.2184,-2.2184,-2.2184,-2.2184,-2.2184,-2.2184,-2.2184,-2.2184,-2.2184,-2.2184,-2.2184,-2.2184,-2.2278,-2.2603,-2.2694,-2.2799,-2.3216,-2.3083,-2.2889,-2.2889,-2.3213,-2.3521,-2.354,-2.5085,-2.6311,-2.6116,-2.6825,-2.7396,-2.7396,-2.7211,-2.6965,-2.6718,-2.6408,-2.6032,-2.5753,-2.6025,-2.5901,-2.5066,-2.4606,-2.4385,-2.4302,-2.4302,-2.4385,-2.4589,-2.4848,-2.5001,-2.5021,-2.6094,-2.6807,-2.7048,-2.7494,-2.7948,-2.8401,-2.7688,-2.7883,-1.5108,-1.5108,0.0,-1.4512,-1.4373,0.0,-1.3304,0.0,-1.3025,0.0,0.0,0.0,0.0,0.0,0.0,0.0,0.0,0.0,0.0,-1.103,0.0,0.0,0.0,0.0,0.0,0.0,-0.9417,-0.7725,-0.9611,-1.0998,0.0,-1.3086,-1.4328,-1.4823,-1.5119,-1.521,-1.5153,-1.5345,-1.5833,-1.6634,-1.699,-1.7673,-1.8545,-1.9737,-2.0409,-2.066,-2.1554,-2.2044,-2.2184,-2.2184,-2.2184,-2.2184,-2.2184,-2.2184,-2.2184,-2.2184,-2.2184,-2.2184,-2.2184,-2.2184,-2.2184,-2.2184,-2.2184,-2.2184,-2.2184,-2.2184,-2.2184,-2.2184,-2.2184,-2.2263,-2.248,-2.2526,-2.2572,-2.2859,-2.2709,-2.2526,-2.2526,-2.2747,-2.2999,-2.3155,-2.456,-2.5711,-2.5649,-2.63,-2.6964,-2.7349,-2.7196,-2.698,-2.6826,-2.655,-2.6118,-2.541,-2.5733,-2.5592,-2.456,-2.4385,-2.4302,-2.4302,-2.4302,-2.4343,-2.4467,-2.4699,-2.503,-2.5503,-2.633,-2.7068,-2.7583,-2.7827,-2.8107,-2.8401,-2.819,-2.8336]}]]